[[{"header":{"parameterUnit":"m.s-1","parameterCategory":1,"la1":30.6,"la2":28.766,"lo1":-90.7593,"lo2":-88.6598,"dx":0.0162,"dy":0.0183,"nx":116,"ny":114,"refTime":"2022-11-08T06:00:00:Z","depth":0,"parameterNumber":2,"parameterNumberName":"U-component_of_WINDS"},"data":[0.0,0.0,0.0,0.0,0.0,0.0,0.0,0.0,0.0,0.0,0.0,0.0,0.0,0.0,0.0,0.0,0.0,0.0,0.0,0.0,0.0,0.0,0.0,0.0,0.0,0.0,0.0,0.0,0.0,0.0,0.0,0.0,0.0,0.0,0.0,0.0,0.0,0.0,0.0,0.0,0.0,0.0,0.0,0.0,0.0,0.0,0.0,0.0,0.0,0.0,0.0,0.0,0.0,0.0,0.0,0.0,0.0,0.0,0.0,0.0,0.0,0.0,0.0,0.0,0.0,0.0,0.0,0.0,0.0,0.0,0.0,0.0,0.0,0.0,0.0,0.0,0.0,0.0,0.0,0.0,0.0,0.0,0.0,0.0,0.0,0.0,0.0,0.0,0.0,0.0,0.0,0.0,0.0,0.0,0.0,0.0,0.0,0.0,0.0,0.0,0.0,0.0,0.0,0.0,0.0,0.0,0.0,0.0,0.0,0.0,0.0,0.0,0.0,0.0,0.0,0.0,0.0,0.0,0.0,0.0,0.0,0.0,0.0,0.0,0.0,0.0,0.0,0.0,0.0,0.0,0.0,0.0,0.0,0.0,0.0,0.0,0.0,0.0,0.0,0.0,0.0,0.0,0.0,0.0,0.0,0.0,0.0,0.0,0.0,0.0,0.0,0.0,0.0,0.0,0.0,0.0,0.0,0.0,0.0,0.0,0.0,0.0,0.0,0.0,0.0,0.0,0.0,0.0,0.0,0.0,0.0,0.0,0.0,0.0,0.0,0.0,0.0,0.0,0.0,0.0,0.0,0.0,0.0,0.0,0.0,0.0,0.0,0.0,0.0,0.0,0.0,0.0,0.0,0.0,0.0,0.0,0.0,0.0,0.0,0.0,0.0,0.0,0.0,0.0,0.0,0.0,0.0,0.0,0.0,0.0,0.0,0.0,0.0,0.0,0.0,0.0,0.0,0.0,0.0,0.0,0.0,0.0,0.0,0.0,0.0,0.0,0.0,0.0,0.0,0.0,0.0,0.0,0.0,0.0,0.0,0.0,0.0,0.0,0.0,0.0,0.0,0.0,0.0,0.0,0.0,0.0,0.0,0.0,0.0,0.0,0.0,0.0,0.0,0.0,0.0,0.0,0.0,0.0,0.0,0.0,0.0,0.0,0.0,0.0,0.0,0.0,0.0,0.0,0.0,0.0,0.0,0.0,0.0,0.0,0.0,0.0,0.0,0.0,0.0,0.0,0.0,0.0,0.0,0.0,0.0,0.0,0.0,0.0,0.0,0.0,0.0,0.0,0.0,0.0,0.0,0.0,0.0,0.0,0.0,0.0,0.0,0.0,0.0,0.0,0.0,0.0,0.0,0.0,0.0,0.0,0.0,0.0,0.0,0.0,0.0,0.0,0.0,0.0,0.0,0.0,0.0,0.0,0.0,0.0,0.0,0.0,0.0,0.0,0.0,0.0,0.0,0.0,0.0,0.0,0.0,0.0,0.0,0.0,0.0,0.0,0.0,0.0,0.0,0.0,0.0,0.0,0.0,0.0,0.0,0.0,0.0,0.0,0.0,0.0,0.0,0.0,0.0,0.0,0.0,0.0,0.0,0.0,0.0,0.0,0.0,0.0,0.0,0.0,0.0,0.0,0.0,0.0,0.0,0.0,0.0,0.0,0.0,0.0,0.0,0.0,0.0,0.0,0.0,0.0,0.0,0.0,0.0,0.0,0.0,0.0,0.0,0.0,0.0,0.0,0.0,0.0,0.0,0.0,0.0,0.0,0.0,0.0,0.0,0.0,0.0,0.0,0.0,0.0,0.0,0.0,0.0,0.0,0.0,0.0,0.0,0.0,0.0,0.0,0.0,0.0,0.0,0.0,0.0,0.0,0.0,0.0,0.0,0.0,0.0,0.0,0.0,0.0,0.0,0.0,0.0,0.0,0.0,0.0,0.0,0.0,0.0,0.0,0.0,0.0,0.0,0.0,0.0,0.0,0.0,0.0,0.0,0.0,0.0,0.0,0.0,0.0,0.0,0.0,0.0,0.0,0.0,0.0,0.0,0.0,0.0,0.0,0.0,0.0,0.0,0.0,0.0,0.0,0.0,0.0,0.0,0.0,0.0,0.0,0.0,0.0,0.0,0.0,0.0,0.0,0.0,0.0,0.0,0.0,0.0,0.0,0.0,0.0,0.0,0.0,0.0,0.0,0.0,0.0,0.0,0.0,0.0,0.0,0.0,0.0,0.0,0.0,0.0,0.0,0.0,0.0,0.0,0.0,0.0,0.0,0.0,0.0,0.0,0.0,0.0,0.0,0.0,0.0,0.0,0.0,0.0,0.0,0.0,0.0,0.0,0.0,0.0,0.0,0.0,0.0,0.0,0.0,0.0,0.0,0.0,0.0,0.0,0.0,0.0,0.0,0.0,0.0,0.0,0.0,0.0,0.0,0.0,0.0,0.0,0.0,0.0,0.0,0.0,0.0,0.0,0.0,0.0,0.0,0.0,0.0,0.0,0.0,0.0,0.0,0.0,0.0,0.0,0.0,0.0,0.0,0.0,0.0,0.0,0.0,0.0,0.0,0.0,0.0,0.0,0.0,0.0,0.0,0.0,0.0,0.0,0.0,0.0,0.0,0.0,0.0,0.0,0.0,0.0,0.0,0.0,0.0,0.0,0.0,0.0,0.0,0.0,0.0,0.0,0.0,0.0,0.0,0.0,0.0,0.0,0.0,0.0,0.0,0.0,0.0,0.0,0.0,0.0,0.0,0.0,0.0,0.0,0.0,0.0,0.0,0.0,0.0,0.0,0.0,0.0,0.0,0.0,0.0,0.0,0.0,0.0,0.0,0.0,0.0,0.0,0.0,0.0,0.0,0.0,0.0,0.0,0.0,0.0,0.0,0.0,0.0,0.0,0.0,0.0,0.0,0.0,0.0,0.0,0.0,0.0,0.0,0.0,0.0,0.0,0.0,0.0,0.0,0.0,0.0,0.0,0.0,0.0,0.0,0.0,0.0,0.0,0.0,0.0,0.0,0.0,0.0,0.0,0.0,0.0,0.0,0.0,0.0,0.0,0.0,0.0,0.0,0.0,0.0,0.0,0.0,0.0,0.0,0.0,0.0,0.0,0.0,0.0,0.0,0.0,0.0,0.0,0.0,0.0,0.0,0.0,0.0,0.0,0.0,0.0,0.0,0.0,0.0,0.0,0.0,0.0,0.0,0.0,0.0,0.0,0.0,0.0,0.0,0.0,0.0,0.0,0.0,0.0,0.0,0.0,0.0,0.0,0.0,0.0,0.0,0.0,0.0,0.0,0.0,0.0,0.0,0.0,0.0,0.0,0.0,0.0,0.0,0.0,0.0,0.0,0.0,0.0,0.0,0.0,0.0,0.0,0.0,0.0,0.0,0.0,0.0,0.0,0.0,0.0,0.0,0.0,0.0,0.0,0.0,0.0,0.0,0.0,0.0,0.0,0.0,0.0,0.0,0.0,0.0,0.0,0.0,0.0,0.0,0.0,0.0,0.0,0.0,0.0,0.0,0.0,0.0,0.0,0.0,0.0,0.0,0.0,0.0,0.0,0.0,0.0,0.0,0.0,0.0,0.0,0.0,0.0,0.0,0.0,0.0,0.0,0.0,0.0,0.0,0.0,0.0,0.0,0.0,0.0,0.0,0.0,0.0,0.0,0.0,0.0,0.0,0.0,0.0,0.0,0.0,0.0,0.0,0.0,0.0,0.0,0.0,0.0,0.0,0.0,0.0,0.0,0.0,0.0,0.0,0.0,0.0,0.0,0.0,0.0,0.0,0.0,0.0,0.0,0.0,0.0,0.0,0.0,0.0,0.0,0.0,0.0,0.0,0.0,0.0,0.0,0.0,0.0,0.0,0.0,0.0,0.0,0.0,0.0,0.0,0.0,0.0,0.0,0.0,0.0,0.0,0.0,0.0,0.0,0.0,0.0,0.0,0.0,0.0,0.0,0.0,0.0,0.0,0.0,0.0,0.0,0.0,0.0,0.0,0.0,0.0,0.0,0.0,0.0,0.0,0.0,0.0,0.0,0.0,0.0,0.0,0.0,0.0,0.0,0.0,0.0,0.0,0.0,0.0,0.0,0.0,0.0,0.0,0.0,0.0,0.0,0.0,0.0,0.0,0.0,0.0,0.0,0.0,0.0,0.0,0.0,0.0,0.0,0.0,0.0,0.0,0.0,0.0,0.0,0.0,0.0,0.0,0.0,0.0,0.0,0.0,0.0,0.0,0.0,0.0,0.0,0.0,0.0,0.0,0.0,0.0,0.0,0.0,0.0,0.0,0.0,0.0,0.0,0.0,0.0,0.0,0.0,0.0,0.0,0.0,0.0,0.0,0.0,0.0,0.0,0.0,0.0,0.0,0.0,0.0,0.0,0.0,0.0,0.0,0.0,0.0,0.0,0.0,0.0,0.0,0.0,0.0,0.0,0.0,0.0,0.0,0.0,0.0,0.0,0.0,0.0,0.0,0.0,0.0,0.0,0.0,0.0,0.0,0.0,0.0,0.0,0.0,0.0,0.0,0.0,0.0,0.0,0.0,0.0,0.0,0.0,0.0,0.0,0.0,0.0,0.0,0.0,0.0,0.0,0.0,0.0,0.0,0.0,0.0,0.0,0.0,0.0,0.0,0.0,0.0,0.0,0.0,0.0,0.0,0.0,0.0,0.0,0.0,0.0,0.0,0.0,0.0,0.0,0.0,0.0,0.0,0.0,0.0,0.0,0.0,0.0,0.0,0.0,0.0,0.0,0.0,0.0,0.0,0.0,0.0,0.0,0.0,0.0,0.0,0.0,0.0,0.0,0.0,0.0,0.0,0.0,0.0,0.0,0.0,0.0,0.0,0.0,0.0,0.0,0.0,0.0,0.0,0.0,0.0,0.0,0.0,0.0,0.0,0.0,0.0,0.0,0.0,0.0,0.0,0.0,0.0,0.0,0.0,0.0,0.0,0.0,0.0,0.0,0.0,0.0,0.0,0.0,0.0,0.0,0.0,0.0,0.0,0.0,0.0,0.0,0.0,0.0,0.0,0.0,0.0,0.0,0.0,0.0,0.0,0.0,0.0,0.0,0.0,0.0,0.0,0.0,0.0,0.0,0.0,0.0,0.0,0.0,0.0,0.0,0.0,0.0,0.0,0.0,0.0,0.0,0.0,0.0,0.0,0.0,0.0,0.0,0.0,0.0,0.0,0.0,0.0,0.0,0.0,0.0,0.0,0.0,0.0,0.0,0.0,0.0,0.0,0.0,0.0,0.0,0.0,0.0,0.0,0.0,0.0,0.0,0.0,0.0,0.0,0.0,0.0,0.0,0.0,0.0,0.0,0.0,0.0,0.0,0.0,0.0,0.0,0.0,0.0,0.0,0.0,0.0,0.0,0.0,0.0,0.0,0.0,0.0,0.0,0.0,0.0,0.0,0.0,0.0,0.0,0.0,0.0,0.0,0.0,0.0,0.0,0.0,0.0,0.0,0.0,0.0,0.0,0.0,0.0,0.0,0.0,0.0,0.0,0.0,0.0,0.0,0.0,0.0,0.0,0.0,0.0,0.0,0.0,0.0,0.0,0.0,0.0,0.0,0.0,0.0,0.0,0.0,0.0,0.0,0.0,0.0,0.0,0.0,0.0,0.0,0.0,0.0,0.0,0.0,0.0,0.0,0.0,0.0,0.0,0.0,0.0,0.0,0.0,0.0,0.0,0.0,0.0,0.0,0.0,0.0,0.0,0.0,0.0,0.0,0.0,0.0,0.0,0.0,0.0,0.0,0.0,0.0,0.0,0.0,0.0,0.0,0.0,0.0,0.0,0.0,0.0,0.0,0.0,0.0,0.0,0.0,0.0,0.0,0.0,0.0,0.0,0.0,0.0,0.0,0.0,0.0,0.0,0.0,0.0,0.0,0.0,0.0,0.0,0.0,0.0,0.0,0.0,0.0,0.0,0.0,0.0,0.0,0.0,0.0,0.0,0.0,0.0,0.0,0.0,0.0,0.0,0.0,0.0,0.0,0.0,0.0,0.0,0.0,0.0,0.0,0.0,0.0,0.0,0.0,0.0,0.0,0.0,0.0,0.0,0.0,0.0,0.0,0.0,0.0,0.0,0.0,0.0,1.8749,1.4999,0.0,0.0,0.0,0.0,0.0,0.0,0.0,0.0,0.0,0.0,0.0,0.0,0.0,0.0,0.0,0.0,0.0,0.0,0.0,0.0,0.0,0.0,0.0,0.3259,0.3535,0.3684,0.3696,0.0,0.0,0.0,0.0,0.0,0.0,0.0,0.3591,0.4237,0.5153,0.6317,0.7518,0.9528,1.2292,1.1198,0.9293,0.6727,0.0,0.0,0.0,0.0,0.0,0.0,0.0,0.0,0.0,0.0,0.0,0.0,0.0,0.0,0.0,0.0,0.0,0.0,0.0,0.0,0.0,0.0,0.0,0.0,0.0,0.0,0.0,0.0,0.0,0.0,0.0,0.0,0.0,0.0,0.0,0.0,0.0,0.0,0.0,0.0,0.0,0.0,0.0,0.0,0.0,0.0,0.0,0.0,0.0,0.0,0.0,0.0,0.0,0.0,0.0,0.0,0.0,0.0,0.0,0.0,0.0,0.0,0.0,0.0,0.0,0.0,0.0,0.0,0.0,0.0,2.2613,2.0187,0.0,0.0,0.0,0.0,0.0,0.0,0.0,0.0,0.0,0.0,0.0,0.0,0.0,0.0,0.0,0.0,0.0,0.0,0.0,0.0,0.0,0.2946,0.3055,0.3643,0.4112,0.4374,0.4316,0.4269,0.4269,0.3749,0.0,0.0,0.3492,0.363,0.3765,0.4717,0.6429,0.8938,1.1521,1.4281,1.7121,1.7777,1.6017,1.2179,0.9486,0.0,0.0,0.0,0.0,0.0,0.0,0.0,0.0,0.0,0.0,0.0,0.0,0.0,0.0,0.0,0.0,0.0,0.0,0.0,0.0,0.0,0.0,0.0,0.0,0.0,0.0,0.0,0.0,0.0,0.0,0.0,0.0,0.0,0.0,0.0,0.0,0.0,0.0,0.0,0.0,0.0,0.0,0.0,0.0,0.0,0.0,0.0,0.0,0.0,0.0,0.0,0.0,0.0,0.0,0.0,0.0,0.0,0.0,0.0,0.0,0.0,0.0,0.0,2.4829,2.5297,2.6033,2.659,2.8325,3.0746,2.6914,2.6357,2.7675,2.1954,0.0,0.0,0.0,0.0,0.0,0.0,0.0,0.0,0.0,0.0,0.0,0.0,0.0,0.0,0.0,0.0,0.0,0.0,0.0,0.3405,0.3649,0.4176,0.4797,0.551,0.5139,0.4871,0.4871,0.4324,0.3794,0.3329,0.345,0.3817,0.446,0.5286,0.7061,0.9843,1.6335,2.0361,2.2,2.3055,2.293,2.1545,1.6166,1.3425,1.2699,0.0,0.0,0.0,0.0,0.0,0.0,0.0,0.0,0.0,0.0,0.0,0.0,0.0,0.0,0.0,0.0,0.0,0.0,0.0,0.0,0.0,0.0,0.0,0.0,0.0,0.0,0.0,0.0,0.0,0.0,0.0,0.0,0.0,0.0,0.0,0.0,0.0,0.0,0.0,0.0,0.0,2.0598,1.9006,0.0,0.0,0.0,0.0,0.0,0.0,0.0,0.0,0.0,0.0,0.0,0.0,0.0,2.5202,2.7713,2.8813,3.0253,3.2093,3.3245,3.4442,3.5579,3.5653,3.5952,3.6357,3.5729,0.0,2.9953,2.7979,0.0,0.0,0.0,0.0,0.0,0.0,0.0,0.0,0.0,0.0,0.0,0.0,0.0,0.0,0.0,0.0,0.0,0.0,0.0,0.0,0.0,0.6525,0.7695,0.8941,0.9126,0.8624,0.7381,0.6445,0.5306,0.3819,0.3638,0.4049,0.513,0.7423,1.1589,1.7651,2.2555,2.5356,2.6104,2.6596,2.6482,2.5758,2.3152,2.0205,1.7006,1.4806,0.0,0.0,0.0,0.0,0.0,0.0,0.0,0.0,0.0,0.0,0.0,0.0,0.0,0.0,0.0,0.0,0.0,0.0,0.0,0.0,0.0,0.0,0.0,0.0,0.0,0.0,0.0,0.0,0.0,0.0,0.0,0.0,0.0,0.0,0.0,0.0,0.0,0.0,0.0,1.8236,2.0162,1.9069,1.9068,1.7595,0.0,0.0,0.0,0.0,0.0,0.0,0.0,0.0,0.0,2.8183,2.8929,3.0308,3.2467,3.3395,3.4472,3.5699,3.6297,3.6849,3.7387,3.7387,3.7387,3.7387,3.7387,3.6267,3.4203,3.1764,2.9192,2.6458,0.0,0.0,0.0,0.0,2.1764,2.2375,0.0,0.0,0.0,0.0,0.0,0.0,0.0,0.0,0.0,0.0,0.0,0.0,0.7338,0.909,1.0706,1.2112,1.2446,1.1844,1.005,0.8626,0.6958,0.503,0.4354,0.4751,0.6275,1.0772,1.669,2.4118,2.7115,2.8745,2.9086,2.9252,2.9086,2.859,2.859,2.6045,2.1595,1.95,1.7195,1.4675,0.0,0.0,0.0,0.0,0.0,0.0,0.0,0.0,0.0,0.0,0.0,0.0,0.0,0.0,0.0,0.0,0.0,0.0,0.0,0.0,0.0,0.0,0.0,0.0,0.0,0.0,0.0,0.0,0.0,0.0,0.0,0.0,0.0,0.0,0.0,0.0,0.0,1.9463,2.1102,2.0614,2.1608,2.0632,0.0,0.0,0.0,0.0,0.0,0.0,2.8349,2.8862,3.0162,3.2597,3.3487,3.4736,3.6297,3.6593,3.7045,3.7674,3.7674,3.7764,3.7896,3.7896,3.7896,3.7896,3.7896,3.7896,3.7704,3.4905,3.317,3.1974,2.8833,2.7009,2.6219,2.7248,2.7607,2.8218,0.0,0.0,0.0,0.0,0.0,0.0,0.0,0.0,0.0,0.0,0.0,0.8278,0.9008,1.1262,1.3057,1.3912,1.3483,1.2906,1.2262,1.0201,0.8492,0.7294,0.5934,0.6167,0.8218,1.5483,2.1315,2.5483,2.8227,2.9845,3.0432,3.1062,3.1331,3.1301,3.1301,2.9774,2.7016,2.4369,2.2174,1.9966,1.4819,0.0,0.0,0.0,0.0,0.0,0.0,0.0,0.0,0.0,0.0,0.0,0.0,0.0,0.0,0.0,0.0,0.0,0.0,0.0,0.0,0.0,0.0,0.0,0.0,0.0,0.0,0.0,0.0,0.0,0.0,0.0,0.0,0.0,0.0,0.0,0.0,0.0,0.0,2.655,2.754,0.0,0.0,0.0,0.0,2.8022,2.8513,3.0905,3.5983,3.4901,3.5815,3.9468,3.8123,3.773,3.8536,3.7755,3.7704,3.835,3.835,3.8691,3.9302,3.9302,3.9302,3.9302,3.9302,3.9302,3.9182,3.7746,3.6058,3.4248,3.344,3.1898,3.0432,3.2377,3.3095,3.3484,0.0,0.0,0.0,0.314,0.3002,0.2993,0.3166,0.3383,0.3739,0.4407,0.7142,0.9481,1.0672,1.3563,1.605,1.764,1.7939,1.7487,1.622,1.3374,1.1553,1.1137,0.9073,1.0762,1.684,2.1685,2.5644,2.8743,3.0149,3.0927,3.1166,3.1391,3.1511,3.1511,3.1511,3.0972,3.0,2.8218,2.6087,2.3634,2.0554,1.6463,0.0,0.0,0.0,0.0,0.0,0.0,0.0,0.0,0.0,0.0,0.0,0.0,0.0,0.0,0.0,0.0,0.0,0.0,0.0,0.0,0.0,0.0,0.0,0.0,0.0,0.0,0.0,0.0,0.0,0.0,0.0,0.0,0.0,0.0,0.0,0.0,0.0,2.7389,2.9476,0.0,2.7107,2.903,3.1014,3.2326,3.4743,3.7166,3.9512,3.9556,3.9674,3.9962,3.9936,3.9454,3.852,3.8743,3.8939,3.9032,3.9032,3.9152,3.9421,3.984,4.0277,4.0696,4.0696,4.1156,4.1844,4.0965,3.9457,3.7644,3.7404,3.6849,3.637,3.7524,3.7943,3.8123,0.0,0.0,0.0,0.3263,0.3153,0.321,0.3517,0.3753,0.4358,0.566,0.834,1.0831,1.2667,1.5783,1.8334,1.9814,2.058,2.0175,1.8329,1.5582,1.3763,1.3157,1.2471,1.5514,2.2862,2.5596,2.8231,3.0837,3.1026,3.1117,3.1117,3.1117,3.0925,3.0688,3.1248,3.1336,3.1058,3.047,2.8966,2.6764,2.4653,2.101,1.6544,0.0,0.0,0.0,0.0,0.0,0.0,0.0,0.0,0.0,0.0,0.0,0.0,0.0,0.0,0.0,0.0,0.0,0.0,0.0,0.0,0.0,0.0,0.0,0.0,0.0,0.0,0.0,0.0,0.0,0.0,0.0,0.0,0.0,0.0,2.6124,2.9597,2.9177,3.2134,3.3246,3.0868,3.3676,3.596,3.6705,3.9309,4.1068,4.1542,4.2016,4.1921,4.1125,4.1376,4.1065,4.0059,4.0042,4.0074,4.0159,3.9884,3.996,4.0427,4.0876,4.1433,4.2043,4.2062,4.2551,4.326,4.288,4.1923,4.0707,4.0707,4.0707,4.0767,4.1216,4.1384,4.1444,0.0,0.0,0.3501,0.3501,0.33,0.3388,0.4175,0.4097,0.4993,0.7997,1.0144,1.2378,1.4927,1.7824,1.9761,2.0212,2.1039,2.0588,1.8443,1.6672,1.4958,1.3258,1.61,2.0213,2.5568,2.6971,2.887,3.1438,3.0658,3.0269,3.0269,3.0269,2.9798,2.9066,3.0703,3.0984,3.0344,3.1131,3.0749,2.9428,2.6811,2.5029,2.3313,0.0,0.0,0.0,0.0,0.0,0.0,0.0,0.0,0.0,0.0,0.0,0.0,0.0,0.0,0.0,0.0,0.0,0.0,0.0,0.0,0.0,0.0,0.0,0.0,0.0,0.0,0.0,0.0,0.0,0.0,0.0,0.0,0.0,2.5939,2.9025,3.1674,3.2429,3.5735,3.7686,3.6998,3.887,4.0447,4.117,4.1914,4.2333,4.2333,4.2367,4.2679,4.3415,4.2708,4.2631,4.331,4.1705,4.1176,4.1753,4.094,4.122,4.244,4.2479,4.28,4.3369,4.3419,4.3449,4.3409,4.3379,4.3409,4.3409,4.3319,4.329,4.329,4.3319,4.3349,4.3349,0.3501,0.3501,0.3501,0.3501,0.3605,0.3822,0.4228,0.4401,0.5307,0.7586,0.9931,1.2377,1.4906,1.7526,1.9693,2.1148,2.1502,2.135,2.0624,1.7877,1.6559,1.7169,2.1945,2.5497,2.7521,2.8253,2.8981,2.969,2.9473,2.9364,2.9364,2.9364,2.9239,2.9018,2.9473,2.9905,3.0314,3.0524,3.0749,3.0867,2.9654,2.7625,2.4989,0.0,0.0,0.0,0.0,0.0,0.0,0.0,0.0,0.0,0.0,0.0,0.0,0.0,0.0,0.0,0.0,0.0,0.0,0.0,0.0,0.0,0.0,0.0,0.0,0.0,0.0,0.0,0.0,0.0,0.0,0.0,2.6218,2.9321,2.8915,3.3007,3.6332,3.7088,3.8543,3.9626,3.9952,4.0561,4.1204,4.1948,4.2692,4.3085,4.3085,4.3653,4.401,4.4112,4.4537,4.448,4.3961,4.4642,4.4398,4.3237,4.4261,4.4186,4.3159,4.4372,4.4874,4.4766,4.4766,4.5334,4.6151,4.5672,4.5762,4.6001,4.4057,4.329,4.3349,4.3848,4.4326,4.4766,0.3501,0.3501,0.3501,0.3501,0.3718,0.3994,0.4254,0.4527,0.5676,0.8436,1.0353,1.2676,1.5783,1.802,1.9906,2.1369,2.1611,2.1143,1.9872,1.8004,1.8373,2.1552,2.5018,2.7426,2.8557,2.8861,2.9002,2.9002,2.8636,2.846,2.846,2.846,2.8266,2.7999,2.8684,2.9081,2.9254,3.001,3.0554,3.0984,3.0948,2.9858,2.8114,2.6868,2.4173,2.0788,1.8471,1.8299,1.8879,1.6832,0.0,0.0,0.0,0.0,0.0,0.0,0.0,0.0,0.0,0.0,0.0,0.0,0.0,0.0,0.0,0.0,0.0,0.0,0.0,0.0,0.0,0.0,0.0,0.0,3.0997,3.3829,3.3829,3.6434,3.8633,3.9356,4.01,4.0743,4.117,4.2049,4.2658,4.276,4.3775,4.437,4.437,4.4823,4.5178,4.5405,4.5923,4.6017,4.5731,4.6337,4.6338,4.5854,4.609,4.5872,4.5262,4.5807,4.6072,4.6142,4.6142,4.6591,4.7279,4.6869,4.6929,0.0,0.0,0.0,0.0,0.0,4.5813,4.6172,0.3501,0.3501,0.3501,0.3501,0.3744,0.4019,0.4219,0.4532,0.6076,0.9768,1.0986,1.3047,1.7028,1.8839,2.0117,2.104,2.1436,2.0532,1.7931,1.8144,2.0505,2.534,2.6116,2.7213,2.8805,2.8764,2.8716,2.8716,2.795,2.7554,2.7554,2.7554,2.7179,2.6568,2.8038,2.833,2.7819,2.9457,3.0208,3.0374,3.119,3.1511,3.1511,3.1511,3.0059,2.7854,2.6297,2.4459,2.2603,2.1262,0.0,0.0,0.0,0.0,0.0,0.0,0.0,0.0,0.0,0.0,0.0,0.0,0.0,0.0,0.0,0.0,0.0,0.0,0.0,0.0,0.0,0.0,0.0,0.0,3.6005,3.9288,3.9356,3.9389,3.9559,4.0045,4.0811,4.1373,4.1441,4.3436,4.4465,4.3829,4.5046,4.5838,4.5838,4.5838,0.0,0.0,0.0,4.7394,4.8157,4.7558,4.7803,4.8906,4.744,4.7172,4.7902,4.7106,4.6975,4.7309,4.7309,4.7309,4.7309,4.7399,4.7459,4.7519,4.7369,4.7369,4.7429,4.7429,4.7459,4.7608,0.3501,0.3501,0.3501,0.3501,0.39,0.4163,0.4009,0.4567,0.6216,0.9544,1.0591,1.2781,1.7383,1.8459,1.9349,2.0611,2.0972,2.0834,2.0109,2.1957,2.354,2.4602,2.6448,2.76,2.794,2.733,2.696,2.696,2.6816,2.6731,2.6731,2.6731,2.6645,2.6516,2.685,2.7246,2.7769,2.8812,2.9659,3.0374,3.119,3.1511,3.1511,3.1511,3.1182,3.0703,3.0345,2.9956,2.9358,2.7687,2.6071,2.4516,2.3152,2.0611,0.0,0.0,0.0,0.0,0.0,0.0,0.0,0.0,0.0,0.0,0.0,0.0,0.0,0.0,0.0,0.0,0.0,0.0,0.0,3.5126,3.8565,4.0967,4.1589,4.1657,4.1284,4.0214,4.1284,4.232,4.2916,4.4505,4.5669,4.6109,4.6413,4.6597,4.6597,4.6597,4.6921,4.765,4.8274,4.8917,4.9661,5.07,5.0928,5.0406,5.1503,0.0,4.8624,4.9307,4.8757,4.7309,4.7309,4.7309,4.7339,4.7878,4.8438,4.8798,4.7728,4.7638,4.8087,4.8087,4.8468,4.8917,0.3501,0.3501,0.3501,0.3501,0.3947,0.4203,0.3942,0.4466,0.587,0.8588,0.9791,1.1701,1.5083,1.5981,1.6626,1.7276,1.812,1.9364,2.1185,2.2999,2.4623,2.5977,2.7103,2.7504,2.7112,2.6714,2.6499,2.6499,2.6499,2.6499,2.6499,2.6776,2.6901,2.6901,2.6901,2.7127,2.7575,2.8579,2.9254,2.9752,3.0984,3.1511,3.1511,3.1511,3.1511,3.1511,3.1511,3.1511,3.1361,3.0478,2.9766,2.9081,2.8002,2.5979,2.3238,0.0,0.0,0.0,0.0,0.0,0.0,0.0,0.0,0.0,0.0,0.0,0.0,0.0,0.0,2.6234,2.9914,0.0,3.552,3.851,4.0561,4.2012,4.2693,4.3147,4.2997,4.1865,4.2773,4.3755,4.4471,4.5925,4.6805,4.68,4.7158,4.7361,4.7361,4.7361,4.7868,4.8984,4.9357,5.0067,5.1183,5.1928,5.2236,5.2163,5.2513,5.1867,5.0346,5.0397,4.9813,4.8831,4.864,4.8539,4.8557,4.8741,4.9007,4.9217,4.8558,4.8498,4.8798,4.8798,4.9007,4.9337,0.3501,0.3501,0.3501,0.3501,0.3947,0.4203,0.3942,0.4351,0.5434,0.751,0.8797,1.0314,1.2351,1.325,1.3826,1.4067,1.5614,1.8037,2.1459,2.314,2.503,2.7366,2.7454,2.7162,2.6516,2.6499,2.6499,2.6499,2.6499,2.6499,2.6499,2.6952,2.7135,2.7135,2.7135,2.7135,2.7233,2.8481,2.9002,2.9144,3.0837,3.1511,3.1511,3.1511,3.1511,3.1511,3.1511,3.1511,3.1511,3.1511,3.1895,3.2317,3.1782,3.0649,2.8672,2.4556,2.339,0.0,0.0,0.0,0.0,0.0,0.0,0.0,0.0,2.2165,2.3763,2.5997,2.8739,3.1775,3.5159,3.7415,3.9377,4.1292,4.2252,4.304,4.3863,4.4394,4.4669,4.449,4.4925,4.5413,4.5887,4.7244,4.7853,4.7259,4.78,4.8124,4.8124,4.8259,4.8883,5.0083,5.0387,5.1082,5.23,5.2469,5.2875,5.3501,5.2627,5.2083,5.1885,5.1061,5.057,5.0371,5.0198,5.0175,5.0192,4.9921,4.9742,4.9666,4.9666,4.9666,4.9666,4.9516,4.9546,4.9756,0.3501,0.3501,0.3501,0.3501,0.3947,0.4203,0.3942,0.4351,0.5253,0.682,0.7723,0.9019,1.116,1.201,1.2834,1.3912,1.6451,1.8811,2.0794,2.3716,2.5752,2.6603,2.6611,2.6602,2.6499,2.6499,2.6499,2.6499,2.6499,2.6499,2.6499,2.6549,2.6575,2.6575,2.6575,2.6575,2.6695,2.8309,2.9002,2.9144,3.0837,3.1511,3.1511,3.1511,3.1511,3.1511,3.1511,3.1511,3.1511,3.1511,3.1554,3.1725,3.229,3.1836,3.0879,2.9621,2.8305,2.7147,2.6646,2.6244,2.626,2.7554,2.6361,2.5567,0.0,2.9499,3.0726,3.2926,3.525,3.764,4.002,4.1204,4.2083,4.3017,4.3809,4.4824,4.6139,4.5884,4.6243,4.8066,4.7803,4.7251,4.6724,4.8003,4.8849,4.8748,4.8849,4.8883,4.8883,4.9492,4.9932,5.0083,5.1352,5.2131,5.23,5.301,5.3416,5.3518,5.3382,5.2835,5.1903,5.1795,5.1229,5.0429,5.1055,5.1419,5.1661,5.1624,5.1369,5.0966,5.0966,5.0966,5.093,5.0308,5.0488,5.0996,0.3501,0.3501,0.3553,0.3703,0.4055,0.4254,0.4142,0.4451,0.5019,0.5915,0.6502,0.7235,0.8297,0.8459,0.8872,0.983,1.387,1.7086,1.8821,2.3138,2.5879,2.6474,2.6499,2.6499,2.6499,2.6499,2.6499,2.6499,2.6499,2.6499,2.6499,2.6826,2.6977,2.6977,2.6977,2.6977,2.7056,2.8427,2.9002,2.9144,3.0837,3.1511,3.1511,3.1511,3.1511,3.1391,3.0658,3.0209,0.0,3.0299,3.0402,3.0578,3.1625,3.1376,3.0602,3.0025,3.0152,3.0737,3.1989,3.1789,3.1403,3.2046,3.1471,3.1224,3.2905,3.3897,3.4956,3.675,3.8565,4.0223,4.1576,4.2455,4.3301,4.4432,4.4967,4.5685,4.7035,4.7413,4.7898,4.8751,4.8979,4.8836,4.8147,4.8646,4.9018,4.9018,4.9018,4.9187,4.9627,4.9932,5.0489,5.1352,5.1995,5.2536,5.2976,5.3348,5.3518,5.3518,5.3518,5.328,5.2835,5.2835,5.2705,5.2536,5.3271,5.3556,5.3471,5.3471,5.3361,5.3121,5.244,5.22,5.2078,5.1125,5.0966,5.1206,0.3501,0.3501,0.3612,0.3952,0.4163,0.432,0.4396,0.4572,0.4824,0.516,0.5462,0.5755,0.6015,0.5776,0.5935,0.6754,1.1302,1.5085,1.7315,2.2031,2.5244,2.6449,2.6499,2.6499,2.6499,2.6499,2.6499,2.6499,2.6499,2.6499,2.6499,2.6901,2.706,2.706,2.706,2.706,2.7157,2.8454,2.9002,2.9144,3.0837,3.1511,3.1511,3.1511,3.0918,3.0047,2.951,2.8816,2.8158,2.7991,2.8081,2.8402,2.9468,2.949,2.9335,3.0354,3.2032,3.3715,3.4461,3.4742,3.4742,3.455,3.4821,3.5261,3.5814,3.6705,3.7833,3.9309,4.0629,4.1813,4.2773,4.3369,4.4143,4.5354,4.5649,4.6225,4.7755,4.8333,4.8755,4.9083,4.9493,4.9536,4.9031,4.9018,4.9018,4.9018,4.9187,4.9526,5.0083,5.0489,5.1183,5.2266,5.2536,5.2909,5.3484,5.3518,5.3518,5.3518,5.3518,5.3518,5.3518,5.3721,5.4151,5.4819,5.5349,5.5351,5.5064,5.5064,5.4879,5.4526,5.3677,5.3352,5.3275,5.244,5.175,5.1206,0.3501,0.3501,0.3661,0.4188,0.429,0.4386,0.4646,0.4691,0.4696,0.4719,0.4737,0.4836,0.5117,0.5127,0.5473,0.634,0.9788,1.3376,1.6883,2.0493,2.3696,2.6381,2.6499,2.6499,2.6499,2.6499,2.6499,2.6499,2.6499,2.6499,2.6499,2.6524,2.6524,2.6524,2.6524,2.6524,2.6619,2.8309,2.9002,2.9144,3.0837,3.1511,3.1511,3.1511,2.9479,2.6841,2.8146,2.7662,2.6117,2.4369,2.4197,2.4837,2.5335,2.5916,2.7322,3.1942,3.4879,3.6051,3.3173,3.3964,3.5408,3.4675,3.5633,3.6728,3.6761,3.79,3.9343,4.0832,4.1745,4.274,4.4228,4.4547,4.4818,4.5563,4.5717,4.6431,4.8557,4.8333,4.8439,4.9815,4.9417,4.9,4.9018,4.9018,4.9018,4.9018,4.9661,5.0083,5.0117,5.1454,5.2266,5.23,5.3078,5.3484,5.3518,5.3518,5.3518,5.3518,5.3518,5.3518,5.3518,5.4228,5.5327,5.6729,5.6745,5.6534,5.6165,5.6165,5.5518,5.461,5.4568,5.4547,5.4547,5.4505,5.3099,5.1206,0.3723,0.376,0.3937,0.4466,0.4562,0.4651,0.4918,0.4957,0.4957,0.4957,0.4957,0.0,0.0,0.0,0.0,0.0,0.8659,1.1506,1.4267,1.8564,2.1986,2.4148,2.5048,2.5833,2.6499,2.5851,2.5833,2.6499,2.6499,2.6499,2.6499,2.6499,2.6499,2.6499,2.6499,2.6499,2.6585,2.767,2.846,2.9097,3.0238,3.0703,3.0703,3.0703,2.8265,2.474,0.0,2.2319,2.0487,2.1367,2.1834,2.2264,2.3733,2.4141,2.4942,2.9235,3.1708,3.3298,3.4235,3.5036,3.5678,3.5938,3.6784,3.7652,3.8137,3.9411,4.073,4.1711,4.1745,4.1745,4.2252,4.2354,4.2717,4.3919,4.5786,4.7507,4.8681,4.9085,4.9286,4.9342,4.9138,4.9018,4.9018,4.9018,4.9165,4.962,4.9937,5.0521,5.1489,5.2031,5.2536,5.3078,5.3382,5.3518,5.3518,5.3518,5.3518,5.3518,5.3991,5.4499,5.4989,5.5716,5.6325,5.6833,5.7306,5.7462,5.7335,5.7335,5.7129,5.6715,5.5949,5.5638,5.5591,5.4879,5.4105,5.3362,0.3718,0.3833,0.4045,0.4476,0.4631,0.0,0.0,0.0,0.0,0.0,0.0,0.0,0.0,0.0,0.0,0.0,0.0,0.9507,1.2004,1.5647,1.8657,2.0816,2.1691,2.2502,2.3293,2.2394,2.2558,2.3829,2.4116,2.4689,2.55,2.581,2.6164,2.6499,2.6499,2.6499,2.6551,2.7364,2.8032,2.8566,2.8834,2.8825,2.854,2.7551,2.4848,0.0,1.9585,1.7251,1.5332,1.7236,1.8664,1.9887,2.1288,2.3527,2.5909,2.7481,3.0239,3.3108,3.4765,3.5611,3.6231,3.6987,3.7956,3.8824,3.9288,4.073,4.2104,4.2591,4.1677,4.0899,4.117,4.1204,4.1664,4.3117,4.631,4.8681,4.8844,4.9778,5.0105,4.9111,4.9018,4.912,4.9357,4.939,4.9573,5.0002,5.033,5.1016,5.2248,5.256,5.2976,5.3484,5.3518,5.3518,5.3518,5.3518,5.3619,5.389,5.4634,5.5378,5.6105,5.6596,5.6934,5.7205,5.7679,5.79,5.79,5.79,5.79,5.7827,5.7076,5.6797,5.672,5.6028,5.553,5.4991,0.3538,0.3744,0.4014,0.0,0.0,0.0,0.0,0.0,0.0,0.0,0.0,0.0,0.0,0.0,0.0,0.0,0.0,0.0,1.0162,1.1927,1.4034,1.669,1.6866,1.7115,1.7545,1.6776,1.7197,1.8923,1.9766,2.1276,2.3425,2.428,2.5199,2.6072,2.6097,2.6122,2.6173,2.694,2.7275,2.7247,2.6465,2.5827,2.5028,2.2356,1.9544,1.6801,1.502,1.2902,1.1113,1.2393,1.5022,1.79,1.8554,2.397,2.9597,2.708,3.0727,3.5408,3.4776,3.5769,3.7122,3.7787,3.9026,4.0109,4.0134,4.1813,4.3321,4.3288,4.1508,4.0134,4.073,4.0899,4.1407,4.2814,4.6921,4.9694,4.9017,5.0267,5.0681,4.924,4.9034,4.9323,5.0049,5.015,5.0184,5.0218,5.0879,5.1572,5.2363,5.3094,5.3518,5.3518,5.3518,5.3518,5.3518,5.3551,5.3957,5.4719,5.5428,5.6139,5.6867,5.6867,5.7239,5.79,5.79,5.79,5.79,5.79,5.79,5.79,5.79,5.79,5.79,5.79,5.7222,5.6145,0.0,0.0,0.0,0.0,0.0,0.0,0.0,0.0,0.0,0.0,0.0,0.0,0.0,0.0,0.0,0.0,0.0,0.0,0.7921,0.9981,1.1981,1.3852,1.4955,1.5972,1.6986,1.6219,1.6511,1.7964,1.8177,1.8732,1.9626,2.0253,2.0447,2.0338,2.0726,2.0902,2.0916,2.1146,2.1575,2.2122,2.1533,2.093,2.0304,1.9168,1.6472,1.3239,1.2894,1.1544,1.0182,1.213,1.5634,1.9689,2.2629,2.5283,2.7676,2.9461,3.2249,3.4979,3.5938,3.7709,3.9165,3.8814,3.9423,4.0235,4.0798,4.1779,4.2422,4.1867,3.9546,3.7371,3.6378,3.6659,3.7335,3.834,4.3593,4.7677,4.8065,4.94,5.0189,4.978,4.9794,4.9898,5.0083,5.0608,5.115,5.1691,5.1928,5.2561,5.3856,5.3647,5.3518,5.3518,5.3518,5.3518,5.3518,5.4025,5.4972,5.6224,5.6427,5.69,5.7611,5.7611,5.773,5.79,5.79,5.79,5.79,5.79,5.79,5.79,5.79,5.79,5.79,5.79,5.7735,5.7409,0.0,0.0,0.0,0.0,0.0,0.0,0.0,0.0,0.0,0.0,0.0,0.0,0.0,0.0,0.0,0.0,0.0,0.0,0.0,0.7886,0.9189,0.9973,1.0763,1.16,1.2474,1.1699,1.2129,1.3832,1.4005,1.4883,1.6412,1.6907,1.7227,1.7464,1.7779,1.7904,1.7904,1.7904,1.818,0.0,0.0,1.677,1.6076,1.4822,1.2958,1.0984,1.0781,1.1197,1.2269,1.5256,1.8561,2.2043,2.5644,2.8049,2.9876,3.1495,3.4086,3.6648,3.7528,3.8916,3.9986,3.9592,4.0269,4.0844,3.9952,4.0548,4.0832,3.9094,3.64,3.4178,3.3637,3.4664,3.6164,3.7923,4.3545,4.7966,4.8661,4.9492,4.9919,4.959,4.9328,4.939,5.0049,5.0473,5.1174,5.2251,5.2325,5.2809,5.3994,5.3691,5.3518,5.3518,5.3518,5.3653,5.3991,5.504,5.5987,5.6799,5.7137,5.7476,5.79,5.79,5.79,5.79,5.79,5.79,5.79,5.79,5.79,5.79,5.79,5.79,5.79,5.79,5.79,5.79,0.0,0.0,0.0,0.0,0.0,0.0,0.0,0.0,0.0,0.5423,0.5244,0.5108,0.5108,0.5108,0.0,0.0,0.0,0.0,0.0,0.0,0.6495,0.6263,0.6281,0.6478,0.6891,0.6239,0.6809,0.8726,0.9109,1.0667,1.328,1.3737,1.4492,1.5397,1.5482,1.5532,1.5532,1.5532,1.5532,1.5382,1.3912,1.3023,1.2329,0.0,0.9689,0.975,0.9342,1.1615,1.5439,1.9677,2.2344,2.4491,2.81,3.1264,3.3607,3.3266,3.602,3.9153,3.914,3.977,4.0379,4.0269,4.1217,4.1407,3.8565,3.8959,3.9048,3.5938,3.3119,3.1336,3.1785,3.3761,3.6139,3.8715,4.4168,4.8391,4.9153,4.9505,4.9476,4.9044,4.8538,4.8698,4.9981,5.0168,5.0803,5.2136,5.2193,5.2518,5.3312,5.3229,5.3281,5.3484,5.3518,5.3957,5.4871,5.6156,5.6867,5.6934,5.7577,5.79,5.79,5.79,5.79,5.79,5.79,5.79,5.79,5.79,5.79,5.79,5.79,5.79,5.79,5.79,5.79,5.79,0.0,0.0,0.0,0.0,0.0,0.0,0.0,0.0,0.0,0.0,0.5987,0.5108,0.0,0.0,0.0,0.0,0.0,0.0,0.0,0.0,0.0,0.5967,0.6125,0.6249,0.6328,0.6317,0.6637,0.7344,0.7591,0.8143,0.8991,0.9728,0.994,0.9736,1.0182,1.0383,1.0383,1.0383,1.0383,1.0308,0.9598,0.924,0.9088,0.8485,0.8668,0.0,1.0787,1.2808,1.5667,2.129,2.41,2.6037,3.0513,3.2708,3.3841,3.4898,3.7418,3.9897,3.9906,4.0899,4.1779,4.117,4.1204,4.0798,3.8418,3.8565,3.8159,3.4529,3.2408,3.0862,2.9788,3.1867,3.3939,3.4451,3.9564,4.3941,4.529,4.6556,4.7753,4.8789,4.9396,4.983,5.0083,5.0642,5.113,5.1392,5.1399,5.1741,5.2539,5.1957,5.2182,5.345,5.3518,5.4431,5.6393,5.6664,5.7103,5.7712,5.7832,5.79,5.79,5.79,5.79,5.79,5.79,5.79,5.79,5.79,5.79,5.79,5.79,5.79,5.79,5.79,5.79,5.79,0.0,0.0,0.0,0.0,0.0,0.0,0.0,0.6959,0.7459,0.8542,0.8168,0.7376,0.6258,0.5646,0.5358,0.0,0.0,0.0,0.0,0.0,0.0,0.5911,0.5847,0.5846,0.5846,0.5761,0.6008,0.6592,0.0,0.6711,0.7393,0.7528,0.7518,0.7423,0.7683,0.7809,0.7809,0.7809,0.7809,0.7809,0.7819,0.7925,0.8136,0.8562,0.9762,0.0,1.2047,1.4041,1.6833,2.0421,2.3162,2.5952,3.1011,3.3582,3.4974,3.6052,3.8434,4.0764,4.1136,4.1745,4.2232,4.1847,4.207,4.1258,3.7077,3.653,3.554,3.0871,2.9153,2.8354,2.7883,3.0557,3.3094,3.3839,3.833,4.2372,4.4262,4.5521,4.6763,4.823,4.8704,4.912,4.9492,4.9864,5.0067,5.0067,5.0067,5.0545,5.1732,5.1781,5.2131,5.2841,5.3653,5.4769,5.6206,5.663,5.7171,5.79,5.79,5.79,5.79,5.79,5.79,5.79,5.79,5.79,5.79,5.79,5.79,5.79,5.79,5.79,5.79,5.79,5.79,5.79,0.0,0.0,0.0,0.0,0.0,0.0,0.0,0.7919,0.8569,0.9864,1.0361,0.9804,0.7734,0.6643,0.593,0.0,0.0,0.0,0.0,0.0,0.0,0.0,0.5666,0.5492,0.5492,0.0,0.0,0.6055,0.5787,0.0,0.0,0.0,0.0,0.0,0.6611,0.6611,0.6611,0.6611,0.6662,0.0,0.0,0.7759,0.8404,0.0,0.0,0.0,0.0,1.4902,1.737,1.9271,2.1724,2.4787,2.943,3.2621,3.493,3.6384,3.8652,4.1001,4.2219,4.2523,4.2523,4.2523,4.2949,4.1833,3.587,3.4779,3.3462,2.7838,2.6418,2.6245,2.6632,2.9508,3.2256,3.3569,3.7285,4.081,4.3207,4.4524,4.5824,4.7481,4.7954,4.836,4.8951,4.9018,4.9018,4.9018,4.9154,4.9661,5.0694,5.142,5.1961,5.23,5.3653,5.4803,5.5699,5.6274,5.6934,5.7645,5.7645,5.7645,5.7663,5.7832,5.7832,5.7679,5.7832,5.79,5.79,5.79,5.79,5.79,5.79,5.79,5.79,5.79,5.79,5.79,0.0,0.0,0.0,0.0,0.0,0.0,0.0,0.8678,0.9903,1.1232,1.1458,1.0802,0.9023,0.8241,0.7327,0.0,0.0,0.0,0.0,0.0,0.0,0.0,0.0,0.0,0.0,0.0,0.0,0.5575,0.5952,0.0,0.0,0.0,0.0,0.0,0.0,0.6611,0.6611,0.6611,0.0,0.0,0.0,0.0,0.0,0.0,0.0,0.0,0.0,1.4819,1.562,1.9352,2.1206,2.2373,2.4622,2.7957,3.1672,3.5081,3.7571,3.9783,4.2544,4.3288,4.3288,4.3288,4.3355,4.1833,3.587,3.5036,3.3866,2.79,2.6666,2.6649,2.6691,2.8687,3.0567,3.1366,3.4109,3.7144,4.0108,4.2279,4.4437,4.665,4.8071,4.8951,4.8984,4.9018,4.9018,4.9018,4.9627,4.9763,4.9221,4.9898,5.0929,5.2266,5.3145,5.4279,5.5699,5.5767,5.6172,5.69,5.69,5.69,5.6934,5.7577,5.7509,5.6934,5.7629,5.79,5.79,5.79,5.79,5.79,5.79,5.79,5.79,5.79,5.79,5.79,0.0,0.0,0.0,0.0,0.0,0.0,0.8188,0.8909,1.0,1.2113,1.2367,1.1819,1.0312,0.9613,0.833,0.6101,0.0,0.0,0.0,0.0,0.0,0.0,0.0,0.0,0.0,0.0,0.5642,0.5925,0.6469,0.0,0.0,0.0,0.0,0.0,0.0,0.6611,0.6611,0.6611,0.0,0.0,0.0,0.0,0.0,0.0,0.0,0.0,0.0,0.0,1.6189,1.775,1.9014,2.0109,2.1276,2.3794,2.7466,3.3184,3.6295,3.8791,4.2996,4.3775,4.3524,4.4012,4.3775,4.1969,3.6422,3.4835,3.3025,2.7797,2.6487,2.6341,2.6649,2.8188,2.9542,2.9813,3.2341,3.5002,3.7099,4.0109,4.2929,4.521,4.7158,4.8496,4.8951,4.9018,4.9187,4.9627,4.9932,5.0168,5.0322,5.1014,5.1691,5.2266,5.3078,5.3991,5.504,5.504,5.5412,5.6139,5.6139,5.6139,5.6139,5.6461,5.6664,5.6833,5.7103,5.7476,5.79,5.79,5.79,5.79,5.79,5.79,5.79,5.79,5.79,5.79,0.0,0.0,0.0,0.0,0.0,0.627,0.8312,0.9062,1.0088,1.2043,1.252,1.2187,1.0859,0.9824,0.8444,0.6511,0.6437,0.0,0.0,0.0,0.0,0.0,0.0,0.0,0.0,0.0,0.6132,0.6458,0.7013,0.7227,0.0,0.0,0.7048,0.6832,0.0,0.0,0.0,0.0,0.0,0.0,0.0,0.0,0.0,0.0,0.0,0.0,0.0,0.0,0.0,0.0,0.0,1.8484,1.8972,2.0771,2.4157,3.1361,3.5042,3.7882,4.2874,4.4012,4.391,4.4465,4.3673,4.1495,3.6681,3.4432,3.2079,2.7611,2.6453,2.6322,2.6641,2.7579,2.8468,2.8942,3.1302,3.366,3.5363,3.8654,4.1542,4.3382,4.5771,4.7447,4.797,4.8612,4.9323,5.0049,5.0304,5.0744,5.1472,5.2216,5.2536,5.23,5.3078,5.3754,5.4262,5.4262,5.4634,5.5361,5.5361,5.5361,5.5361,5.5597,5.5868,5.6156,5.6393,5.69,5.7577,5.7577,5.7697,5.79,5.79,5.79,5.79,5.79,5.79,5.79,0.0,0.0,0.0,0.0,0.0,0.0,0.7452,0.918,1.044,1.0879,1.1677,1.1716,1.0449,0.8579,0.7428,0.7387,0.6663,0.0,0.0,0.0,0.0,0.0,0.0,0.0,0.0,0.0,0.7085,0.709,0.7494,0.7899,0.8255,0.7142,0.6878,0.7369,0.0,0.0,0.0,0.0,0.0,0.0,0.0,0.0,1.148,0.0,0.0,0.0,0.0,0.0,0.0,0.0,0.0,0.0,0.0,1.9112,2.223,2.9809,3.3916,3.707,4.2051,4.3978,4.4581,4.4615,4.2909,4.0244,3.6445,3.3897,3.1234,2.7478,2.6691,2.6691,2.67,2.67,2.7207,2.8739,3.0871,3.3061,3.5306,3.8203,4.0379,4.117,4.391,4.5722,4.5722,4.7733,4.9323,5.0049,5.0777,5.1505,5.2266,5.3044,5.3112,5.2334,5.3078,5.3518,5.3518,5.3518,5.389,5.46,5.46,5.46,5.4651,5.5361,5.531,5.4668,5.5395,5.6139,5.6799,5.6799,5.7239,5.79,5.79,5.79,5.79,5.79,5.79,5.79,0.0,0.0,0.0,0.0,0.0,0.0,0.0,0.7551,0.8477,0.9464,0.9609,0.9668,0.9806,0.8245,0.7243,0.7388,0.6532,0.0,0.0,0.0,0.0,0.0,0.0,0.0,0.0,0.744,0.8103,0.9013,0.9917,1.0213,0.9924,0.9573,0.9103,0.8512,0.7558,0.726,0.0,0.0,0.0,0.0,0.0,1.1296,1.148,0.0,0.0,0.0,0.0,0.0,0.0,0.0,0.0,0.0,0.0,0.0,0.0,2.5753,2.9297,3.2702,3.6898,3.8667,3.9153,3.8599,3.7516,3.5893,3.322,3.1664,3.0006,2.7275,2.67,2.67,2.67,2.67,2.7841,3.1427,3.2577,3.4032,3.6794,3.9297,4.0751,4.0481,4.4012,4.6853,4.7868,4.9052,5.0067,5.0811,5.1555,5.2283,5.3078,5.3382,5.3382,5.3145,5.3382,5.3518,5.3518,5.3518,5.3619,5.3856,5.3856,5.3856,5.3856,5.4093,5.4329,5.46,5.4837,5.5649,5.6765,5.6258,5.6477,5.7137,5.7137,5.7137,5.7205,5.7712,5.79,5.7832,0.0,0.0,0.0,0.0,0.0,0.0,0.0,0.6699,0.7383,0.8184,0.8074,0.823,0.9054,0.7466,0.6629,0.734,0.6307,0.0,0.0,0.0,0.0,0.0,0.0,0.0,0.7262,0.756,0.8529,1.0206,1.1819,1.2287,1.1645,1.1645,1.0958,0.9673,0.8746,0.8209,0.0,0.0,0.0,0.0,1.0948,1.126,1.165,0.0,0.0,0.0,0.0,0.0,0.0,0.0,0.0,0.0,0.0,0.0,0.0,0.0,2.5157,2.8468,3.354,3.5633,3.6231,3.5746,3.4641,3.3231,3.1572,3.0176,2.8746,2.7063,2.7173,2.7376,2.6801,2.7173,2.8391,3.0876,3.2466,3.3954,3.5554,3.843,4.0629,4.1292,4.3795,4.6447,4.8781,4.9661,5.0405,5.1133,5.1894,5.2638,5.345,5.3518,5.3518,5.3518,5.3518,5.3518,5.3518,5.3518,5.3518,5.3518,5.3518,5.3518,5.3518,5.3518,5.3754,5.416,5.416,5.4871,0.0,5.548,5.5716,5.6393,5.6393,5.6393,5.6461,5.69,5.707,5.7002,0.0,0.0,0.0,0.0,0.0,0.0,0.0,0.6471,0.7012,0.7012,0.7012,0.7318,0.8151,0.6385,0.5701,0.7148,0.0,0.0,0.0,0.0,0.0,0.0,0.0,0.0,0.7138,0.7424,0.8654,1.0876,1.3207,1.4034,1.3423,1.3407,1.2472,1.0851,1.0315,0.9452,0.8502,0.9009,1.0028,1.13,1.1008,1.1241,0.0,0.0,0.0,0.0,0.0,0.0,0.0,0.0,0.0,0.0,0.0,0.0,0.0,0.0,0.0,0.0,0.0,3.4075,3.5025,3.4924,3.3402,3.1698,3.0953,2.9173,0.0,2.6793,2.79,2.857,2.7139,2.8028,2.8831,2.8365,3.1282,3.3423,3.2869,3.6513,4.0358,4.3355,4.3693,4.508,4.8815,4.9763,5.0473,5.1235,5.1961,5.2706,5.345,5.3518,5.3518,5.3518,5.3518,5.3518,5.3518,5.3518,5.3518,5.3518,5.3518,5.3518,5.3518,5.3518,5.3518,5.3518,5.3518,5.3923,5.4617,5.4532,5.4972,5.5631,5.5631,5.5631,5.5631,5.5665,5.5699,5.5699,0.0,0.0,0.0,0.0,0.0,0.0,0.0,0.0,0.0,0.0,0.6111,0.6265,0.668,0.593,0.5544,0.0,0.0,0.0,0.0,0.0,0.0,0.0,0.0,0.0,0.7696,0.8767,1.0407,1.2597,1.4061,1.509,1.5723,1.5306,1.4227,1.2588,1.1884,1.098,0.9997,1.0267,1.0889,1.1692,1.1608,1.167,0.0,0.0,0.0,0.0,1.4729,1.6069,0.0,0.0,0.0,0.0,0.0,0.0,0.0,0.0,2.1018,2.364,2.5856,0.0,2.9396,2.8496,2.8138,2.7774,0.0,2.6797,2.68,2.6252,2.7687,2.8874,2.8536,2.8773,2.9847,3.251,3.4652,3.6344,3.7291,3.9795,4.2861,4.6433,4.6346,4.7225,5.0389,5.0829,5.1235,5.1995,5.2773,5.3315,5.3484,5.3518,5.3518,5.3518,5.3518,5.3518,5.3518,5.3518,5.3518,5.3518,5.3518,5.3518,5.3518,5.3518,5.3518,5.3518,5.3518,5.3923,5.4583,5.3991,5.4194,5.4871,5.4871,5.4871,5.4938,5.5496,5.5699,5.5631,0.0,0.0,0.0,0.0,0.0,0.0,0.0,0.0,0.0,0.0,0.0,0.5766,0.6028,0.5831,0.0,0.0,0.0,0.0,0.0,0.0,0.0,0.0,0.0,0.6648,0.787,0.8723,1.0482,1.3198,1.3826,1.494,1.6511,1.6457,1.5283,1.314,1.1869,1.1073,1.0669,1.064,1.1062,1.176,1.1455,0.0,0.0,0.0,0.0,0.0,1.4549,1.5852,0.0,1.7601,1.8395,1.9121,0.0,0.0,0.0,0.0,2.0448,2.2241,2.3793,2.5375,2.6574,2.6354,2.6175,2.5982,2.5901,2.6148,2.6383,2.6315,2.7758,2.8773,2.8096,2.9348,3.0838,3.1809,3.4697,3.7799,4.0629,4.2049,4.3809,4.6568,4.6549,4.7192,4.9476,4.9984,5.0761,5.2198,5.3044,5.3518,5.3518,5.3518,5.3518,5.3518,5.3518,5.3518,5.3518,5.3518,5.3518,5.3518,5.3518,5.3518,5.3518,5.3518,5.3518,5.3518,5.3856,5.4025,5.4126,5.4397,5.4566,5.4617,5.4617,5.4617,5.46,5.4668,5.4684,5.4617,0.0,0.0,0.0,0.0,0.0,0.0,0.0,0.0,0.0,0.0,0.0,0.0,0.0,0.0,0.0,0.0,0.0,0.0,0.0,0.0,0.0,0.0,0.5886,0.6635,0.8116,0.8321,1.0037,1.3341,1.3407,1.4544,1.6647,1.7181,1.5986,1.3318,1.1506,1.0817,1.0944,1.0719,1.1085,1.176,1.1181,0.0,0.0,0.0,0.0,0.0,0.0,0.0,0.0,1.7451,1.8147,1.8694,1.8694,0.0,0.0,0.0,0.0,0.0,2.3428,2.4668,2.5483,2.6375,2.5937,2.5524,2.6298,2.6157,2.5988,2.6385,2.7734,2.8563,2.761,3.0104,3.1921,3.0736,3.4629,3.9322,4.366,4.4167,4.4674,4.621,4.6278,4.6838,4.8428,4.9052,5.0202,5.2334,5.3112,5.3518,5.3518,5.3518,5.3518,5.3518,5.3518,5.3518,5.3518,5.3518,5.3518,5.3518,5.3518,5.3518,5.3518,5.3518,5.3518,5.3551,5.416,0.0,5.3754,5.5023,5.5175,5.4617,5.4617,5.455,5.4363,5.3721,5.3518,5.3518,0.0,0.0,0.0,0.0,0.0,0.0,0.0,0.0,0.0,0.0,0.0,0.0,0.0,0.0,0.0,0.0,0.0,0.0,0.0,0.0,0.0,0.6837,0.6413,0.7149,0.9288,0.9088,1.0617,1.3946,1.4415,1.5527,1.7261,1.7819,1.6721,1.4253,1.2798,1.1841,1.125,1.1476,1.1663,1.179,1.17,0.0,0.0,0.0,0.0,0.0,0.0,0.0,0.0,1.731,1.8147,1.8694,1.8694,0.0,0.0,0.0,0.0,0.0,2.3014,2.4538,2.57,2.6043,2.5988,2.5806,2.5496,2.5373,2.5345,2.5421,2.6958,2.8817,3.0452,3.1613,3.3444,3.6885,4.0223,4.3727,4.7582,4.7616,4.7752,4.9255,4.8883,4.9323,5.142,5.1167,5.1539,5.3179,5.345,5.3518,5.3518,5.3518,5.3518,5.3518,5.3518,5.3518,5.3518,5.3518,5.3518,5.3518,5.3518,5.3518,5.3518,5.3518,5.3518,5.3518,0.0,5.3957,5.4431,5.4668,5.4702,5.4617,5.4617,5.4228,5.3653,5.3551,5.3518,5.3518,0.0,0.0,0.0,0.0,0.0,0.0,0.0,0.0,0.0,0.0,0.0,0.0,0.0,0.0,0.0,0.0,0.0,0.0,0.0,0.0,0.6839,0.812,0.7918,0.8529,1.0158,1.0641,1.2362,1.5412,1.6547,1.7501,1.8217,1.6845,1.5594,1.4431,1.2644,1.1656,1.1313,1.1665,1.179,1.179,0.0,0.0,0.0,0.0,0.0,0.0,0.0,0.0,0.0,0.0,1.8147,1.8813,1.9561,0.0,0.0,0.0,0.0,0.0,2.2364,2.3572,2.4802,2.6714,2.7305,2.7486,2.7838,2.7391,2.6912,2.6787,2.7505,2.87,3.0529,3.2707,3.5952,4.1178,4.3179,4.506,4.7988,4.8462,4.8597,4.8883,4.8951,4.939,5.0439,5.0574,5.142,5.3348,5.3518,5.3518,5.3518,5.3518,5.3518,5.3518,5.3518,5.3518,5.3518,5.3518,5.3518,5.3518,5.3518,5.3518,5.3518,5.3518,5.3518,5.3551,0.0,5.4668,5.4685,5.5903,5.5919,5.5209,5.5209,5.4735,5.4059,5.3653,5.3518,5.3551,0.0,0.0,0.0,0.0,0.0,0.0,0.0,0.0,0.0,0.0,0.0,0.0,0.0,0.0,0.0,0.0,0.0,0.0,0.0,0.6615,0.7423,0.885,0.9277,1.01,1.1467,1.2354,1.4077,1.6712,1.8356,1.9183,1.912,1.6248,1.4682,1.4217,1.2327,1.1319,1.1111,1.1417,1.158,1.1575,0.0,0.0,0.0,0.0,0.0,0.0,0.0,0.0,0.0,0.0,0.0,0.0,0.0,0.0,0.0,2.0737,2.0468,2.03,2.2007,2.3081,2.4428,2.7303,2.7986,2.841,3.005,2.9256,2.8272,2.8584,2.8625,2.9073,3.0571,3.4606,3.9255,4.4077,4.5447,4.6496,4.8191,4.8732,4.88,4.8225,4.88,4.9323,4.9492,5.0168,5.142,5.3348,5.3518,5.3518,5.3518,5.3518,5.3518,5.3518,5.3518,5.3518,5.3518,5.3518,5.3518,5.3518,5.3518,5.3518,5.3518,5.3687,5.3754,5.3822,5.5124,5.548,5.5243,5.6934,5.6968,5.5936,5.5767,5.5124,5.4262,5.3721,5.3518,5.3619,0.0,0.0,0.0,0.0,0.0,0.0,0.0,0.0,0.0,0.0,0.0,0.0,0.0,0.0,0.0,0.0,0.0,0.0,0.0,0.7064,0.7653,0.8331,0.978,1.16,1.3804,1.3939,1.5079,1.7348,1.8957,1.9723,1.9685,1.7243,1.5261,1.3711,1.2478,1.1392,1.0467,1.0756,1.0872,1.0937,1.1545,0.0,0.0,0.0,0.0,0.0,0.0,0.0,0.0,0.0,0.0,0.0,0.0,0.0,2.0757,2.1425,2.1146,2.0917,2.2294,2.3918,2.5586,2.7104,2.6834,2.7047,3.0383,2.9232,2.7996,2.9861,3.019,3.0647,3.2226,3.8227,4.3535,4.5332,4.7902,4.9778,4.9914,4.939,4.8984,4.8951,4.956,5.0304,5.0964,5.1725,5.2536,5.345,5.3518,5.3518,5.3518,5.3518,5.3518,5.3518,5.3518,5.3518,5.3518,5.3518,5.3518,5.3518,5.3518,5.3518,5.3518,5.4194,5.4499,5.4583,5.5378,5.6037,5.6664,5.6799,5.6833,5.6664,5.5969,5.482,5.3585,5.3518,5.3518,5.3619,0.0,0.0,0.0,0.0,0.0,0.0,0.0,0.0,0.0,0.0,0.0,0.0,0.0,0.0,0.0,0.0,0.0,0.0,0.0,0.6782,0.7523,0.8912,1.0099,1.1371,1.2812,1.5027,1.7233,1.9459,2.0063,2.0175,1.9748,1.6819,1.4937,1.3955,1.2509,1.1894,1.1855,1.1562,1.1665,1.2035,1.1885,1.179,0.0,0.0,0.0,0.0,0.0,0.0,0.0,0.0,1.8117,1.9121,2.0148,2.0857,2.1365,2.1635,2.1246,2.0974,2.2139,2.3884,2.5791,2.7486,2.8575,3.0078,3.3273,3.2816,3.2513,3.5129,3.4197,3.355,3.5595,4.0084,4.4075,4.6075,4.8071,4.9424,4.9424,4.956,4.9661,4.9661,5.0744,5.1589,5.186,5.2604,5.3179,5.3484,5.3518,5.3518,5.3518,5.3518,5.3518,5.3518,5.3518,5.3518,5.3518,5.3957,5.416,5.416,5.416,5.416,5.4194,5.4938,5.504,5.4685,5.5852,5.6562,5.6833,5.7273,5.7205,5.6731,5.6003,5.5074,5.4228,5.4702,5.46,5.4431,0.0,0.0,0.0,0.0,0.0,0.0,0.0,0.0,0.0,0.0,0.0,0.0,0.0,0.0,0.0,0.0,0.0,0.0,0.6487,0.6717,0.7403,0.8679,1.0009,1.1189,1.2277,1.5455,1.7881,1.9469,1.9923,1.9926,1.9407,1.6646,1.5238,1.4979,1.3435,1.2999,1.3358,1.249,1.225,1.246,1.222,1.213,0.0,0.0,0.0,0.0,0.0,0.0,0.0,0.0,1.7938,1.9211,2.0058,2.0956,2.1734,2.1944,2.1994,2.2044,2.2554,2.4137,2.6134,2.8117,2.9919,3.2306,3.6473,3.6238,3.6047,3.9309,3.7997,3.6739,3.8334,4.0881,4.3643,4.6345,4.7631,4.8477,4.8951,4.9627,5.0117,5.0117,5.1386,5.23,5.23,5.3044,5.3518,5.3518,5.3518,5.3518,5.3518,5.3518,5.3518,5.3518,5.3518,5.3518,5.3518,5.4228,5.4719,5.4938,5.5175,5.5175,5.4972,5.5699,5.5784,5.5344,5.6596,5.7137,5.7171,5.7679,5.7476,5.6765,5.624,5.575,5.5344,5.5852,5.5886,5.5886,0.0,0.0,0.0,0.0,0.0,0.0,0.0,0.0,0.0,0.0,0.0,0.0,0.0,0.0,0.0,0.0,0.0,0.0,0.6211,0.6948,0.7355,0.7309,0.9482,1.1302,1.2648,1.5161,1.6587,1.6815,1.8262,1.8899,1.871,1.6938,1.6376,1.6804,1.5418,1.4812,1.4692,1.3358,1.2424,1.1874,1.2519,1.2795,1.2951,0.0,0.0,0.0,0.0,0.0,0.0,0.0,1.769,1.8177,2.0827,2.1665,2.1824,2.2493,2.358,2.4425,2.377,2.4895,2.6784,2.8961,3.0416,3.3017,3.9715,3.8913,3.7794,4.1564,4.1155,4.0146,4.0036,4.0769,4.2556,4.6224,4.6819,4.7327,4.8815,4.9627,5.0117,5.0117,5.142,5.23,5.23,5.3044,5.3518,5.3518,5.3518,5.3518,5.3518,5.3518,5.3518,5.3518,5.3518,5.3518,5.3518,5.4228,5.4972,5.5699,5.6461,5.6409,5.5733,5.6461,5.6799,5.6833,5.7577,5.79,5.79,5.79,5.7476,5.6799,5.6799,5.6799,5.6799,5.6833,5.7273,5.8035,0.0,0.0,0.0,0.0,0.0,0.0,0.0,0.0,0.0,0.0,0.0,0.0,0.0,0.0,0.0,0.0,0.0,0.0,0.6226,0.6287,0.6525,0.6934,0.8863,0.9987,1.0155,1.2576,1.4937,1.7228,1.7656,1.7252,1.6064,1.5811,1.5507,1.521,1.5507,1.5003,1.3826,1.3205,1.2909,1.2856,1.2802,1.3089,1.3585,0.0,0.0,0.0,0.0,0.0,0.0,0.0,0.0,0.0,1.9202,2.0557,2.1734,2.1944,2.2263,2.2656,2.3112,2.5987,2.9241,3.1035,3.4096,3.79,4.2536,4.1941,4.1198,4.3864,4.4443,4.4024,4.2661,4.3865,4.5469,4.6615,4.7665,4.868,4.9627,5.0405,5.1082,5.1589,5.2536,5.3145,5.3145,5.3382,5.3518,5.3518,5.3518,5.3518,5.3518,5.3518,5.3518,5.3518,5.3518,5.3518,5.3518,5.4752,5.5462,5.5733,5.6968,5.7171,5.6494,5.7239,5.7273,5.6833,5.7577,5.79,5.79,5.79,5.7764,5.7577,5.7577,5.7577,5.7645,5.8152,5.849,5.8863,0.0,0.0,0.0,0.0,0.0,0.0,0.0,0.0,0.0,0.0,0.7428,0.8125,0.0,0.0,0.0,0.0,0.0,0.0,0.623,0.6274,0.6622,0.733,0.8515,0.9458,1.0072,1.1937,1.3503,1.4739,1.5638,1.541,1.419,1.5559,1.6,1.5676,1.7153,1.679,1.4998,1.4944,1.457,1.4038,1.4254,1.4453,1.4663,0.0,0.0,0.0,0.0,0.0,0.0,0.0,0.0,0.0,1.8087,1.9681,2.1515,2.2552,2.343,2.4398,2.6029,2.9085,3.231,3.4462,3.7013,4.0066,4.4127,4.4907,4.4863,4.5203,4.638,4.6716,4.451,4.5555,4.6943,4.7571,4.7936,4.8578,4.9914,5.0744,5.1472,5.2198,5.301,5.3518,5.3518,5.3518,5.3518,5.3518,5.3518,5.3518,5.3518,5.3518,5.3518,5.3518,5.3518,5.3518,5.3518,5.4955,5.5699,5.5733,5.7205,5.7663,5.7239,5.7697,5.7645,5.7273,5.773,5.79,5.79,5.79,5.79,5.79,5.79,5.8272,5.8829,5.9268,5.9825,6.0486,0.0,0.0,0.0,0.0,0.0,0.0,0.0,0.0,0.0,0.6636,0.7099,0.7783,0.0,0.0,0.0,0.8175,0.7253,0.6523,0.6211,0.6624,0.7254,0.8092,0.8506,0.9656,1.1625,1.2538,1.2179,1.055,1.278,1.3497,1.2871,1.5834,1.7186,1.7189,1.9522,1.9216,1.7033,1.7345,1.6511,1.5053,1.6052,1.6174,1.5793,1.6412,0.0,0.0,0.0,0.0,0.0,0.0,0.0,0.0,1.7481,1.9044,2.1116,2.3588,2.5811,2.7999,3.0598,3.3077,3.5635,3.8566,3.9556,4.0865,4.4978,4.753,4.8361,4.6201,4.7457,4.824,4.6069,4.638,4.7406,4.8766,4.7936,4.7849,4.9914,5.0845,5.1573,5.2334,5.3044,5.3518,5.3518,5.3518,5.3518,5.3518,5.3518,5.3518,5.3518,5.3518,5.3518,5.3518,5.3518,5.3551,5.3585,5.4989,5.5733,5.58,5.7239,5.79,5.79,5.79,5.79,5.79,5.79,5.79,5.79,5.79,5.79,5.79,5.7949,5.8863,6.0114,6.0182,6.1129,6.24,0.0,0.0,0.0,0.0,0.0,0.0,0.0,0.0,0.5852,0.6611,0.696,0.7426,0.8073,0.8123,0.0,0.7628,0.7213,0.6772,0.6226,0.6546,0.6959,0.7478,0.9393,1.1025,1.2187,1.1578,1.0657,0.9453,1.1246,1.1804,1.1293,1.5077,1.6333,1.555,1.8718,1.813,1.4805,1.4931,1.4592,1.4042,1.4427,1.484,1.5312,1.5927,1.579,0.0,0.0,0.0,0.0,0.0,0.0,0.0,1.734,1.8724,2.0238,2.1844,2.4128,2.6556,2.8608,3.2831,3.7306,4.005,4.3394,4.623,4.721,4.8225,4.918,4.9787,4.9135,4.8589,4.8959,4.8611,4.8444,4.891,4.9221,4.9763,5.0829,5.1623,5.2367,5.3145,5.3382,5.3518,5.3518,5.3518,5.3518,5.3518,5.3518,5.3518,5.3518,5.3518,5.3518,5.3518,5.3518,5.3788,5.4363,5.5225,5.6003,5.6562,5.7476,5.79,5.79,5.79,5.79,5.79,5.79,5.79,5.79,5.79,5.79,5.7967,5.8558,5.9302,6.0182,6.0825,6.1603,6.24,0.0,0.0,0.0,0.0,0.0,0.0,0.0,0.0,0.5741,0.6419,0.6854,0.7306,0.7846,0.7888,0.0,0.0,0.7059,0.6724,0.6413,0.6898,0.7512,0.8275,1.0218,1.1132,1.0822,1.0244,0.9391,0.8281,0.9441,1.0395,1.1206,1.4629,1.6176,1.6212,1.8514,1.7874,1.5151,1.5254,1.5305,1.5328,1.543,1.584,1.6306,1.6026,1.5711,1.5433,1.5354,0.0,0.0,0.0,0.0,0.0,0.0,0.0,1.9609,2.1585,2.356,2.6114,3.0765,3.5016,3.8968,4.247,4.5655,4.7718,4.7008,4.76,4.8607,4.9791,4.9482,4.8976,4.874,4.8709,4.8895,4.9434,4.9846,5.0473,5.1589,5.2063,5.2604,5.3416,5.3518,5.3518,5.3518,5.3518,5.3518,5.3518,5.3518,5.3518,5.3518,5.3518,5.3518,5.3518,5.3518,5.3687,5.4059,5.5158,5.5902,5.6274,5.7374,5.79,5.79,5.79,5.79,5.79,5.79,5.79,5.79,5.79,5.79,5.7949,5.8709,5.9453,6.0216,6.0994,6.1772,6.24,0.0,0.0,0.0,0.0,0.0,0.0,0.0,0.0,0.0,0.609,0.6546,0.7017,0.7501,0.7339,0.7206,0.0,0.0,0.0,0.6611,0.7362,0.8316,0.9434,1.0663,1.071,0.9403,0.9101,0.8537,0.7703,0.8275,0.9843,1.2362,1.4648,1.6256,1.7286,1.8393,1.7792,1.5987,1.5911,1.6099,1.6407,1.6342,1.6545,1.6828,1.5876,1.5438,1.5287,1.4918,1.5155,1.5649,1.5769,0.0,0.0,0.0,0.0,1.9151,2.1355,2.3152,2.5864,3.2609,3.6797,4.0347,4.4763,4.6805,4.7447,4.65,4.6926,4.7736,4.8528,4.8898,4.876,4.7645,4.8007,4.8827,4.9909,5.0304,5.0913,5.2131,5.2435,5.2739,5.3416,5.3518,5.3518,5.3518,5.3518,5.3518,5.3518,5.3518,5.3518,5.3518,5.3518,5.3518,5.3518,5.3518,5.3551,5.3687,5.5023,5.5767,5.5902,5.7273,5.79,5.79,5.79,5.79,5.79,5.79,5.79,5.79,5.79,5.79,5.8001,5.8863,5.9554,6.0216,6.1163,6.1873,6.24,0.0,0.0,0.0,0.0,0.0,0.0,0.0,0.0,0.0,0.0,0.5678,0.5838,0.6128,0.6282,0.6446,0.6694,0.6637,0.6611,0.6611,0.0,0.0,0.9772,1.0017,1.0244,1.0475,0.9109,0.8568,0.8875,0.9416,1.155,1.5166,1.5527,1.6045,1.6661,1.7791,1.6983,1.4687,1.3783,1.3509,1.3704,1.3276,1.3382,1.383,1.4127,1.394,1.3653,1.4495,1.4849,1.5035,1.5612,1.6189,0.0,0.0,0.0,1.8753,1.9121,2.1663,2.4925,2.7844,3.4164,4.1053,4.552,4.6786,4.7225,4.8308,4.8057,4.7803,4.8545,4.7383,4.6703,4.823,4.7954,4.8076,4.9829,5.115,5.2063,5.2266,5.2909,5.3382,5.3484,5.3518,5.3518,5.3518,5.3518,5.3518,5.3518,5.3518,5.3518,5.3518,5.3518,5.3518,5.3518,5.3518,5.3822,5.4431,5.5259,5.6003,5.6664,5.7476,5.79,5.79,5.79,5.79,5.79,5.79,5.79,5.79,5.79,5.79,5.8035,5.9404,6.0013,6.0283,6.1704,6.2333,6.24,0.0,0.0,0.0,0.0,0.0,0.0,0.0,0.0,0.0,0.0,0.0,0.6188,0.6237,0.663,0.6794,0.6628,0.6611,0.6732,0.7028,0.7508,0.817,0.8964,0.9008,0.8952,0.8854,0.8159,0.7914,0.815,0.9334,1.1733,1.5251,1.5869,1.7275,1.9233,1.7866,1.6786,1.587,1.3591,1.3168,1.3954,1.2997,1.3936,1.5683,1.3757,1.4084,1.5346,1.3747,1.3885,1.4828,1.493,1.598,1.7093,1.6114,0.0,0.0,0.0,1.9234,2.2616,2.981,3.6762,4.2713,4.5974,4.68,4.6969,4.7597,4.7747,4.7825,4.8051,4.7389,4.701,4.7933,4.8091,4.8655,5.045,5.1623,5.2469,5.2909,5.3281,5.3518,5.3518,5.3518,5.3518,5.3518,5.3518,5.3518,5.3518,5.3518,5.3518,5.3518,5.3518,5.3518,5.3518,5.3518,5.3653,5.3991,5.4735,5.5649,5.6799,5.7137,5.7476,5.79,5.79,5.79,5.79,5.79,5.79,5.79,5.79,5.8118,5.8626,5.9674,6.0385,6.0892,6.2009,6.24,6.24,0.0,0.0,0.0,0.0,0.0,0.0,0.0,0.0,0.0,0.0,0.0,0.6449,0.6423,0.0,0.0,0.0,0.6552,0.6757,0.7173,0.7319,0.7603,0.8044,0.8069,0.7864,0.7418,0.7393,0.7468,0.7628,0.9435,1.196,1.5145,1.622,1.8355,2.1181,1.8242,1.6848,1.6557,1.3776,1.3302,1.4302,1.3468,1.4803,1.6992,1.4846,1.5963,1.8236,1.4802,1.4675,1.6009,1.5219,1.5988,1.7123,1.6114,1.6548,0.0,0.0,0.0,2.0575,3.0098,3.6061,4.0365,4.3569,4.4733,4.5345,4.6278,4.6926,4.7391,4.7864,4.777,4.7721,4.8149,4.863,4.9542,5.1206,5.2131,5.2807,5.3416,5.3518,5.3518,5.3518,5.3518,5.3518,5.3518,5.3518,5.3518,5.3518,5.3518,5.3518,5.3518,5.3518,5.3518,5.3518,5.3518,5.3518,5.3518,5.4228,5.5243,5.6528,5.6697,5.7103,5.7611,5.749,5.7628,5.79,5.79,5.79,5.7934,5.8084,5.849,5.9081,6.0047,6.0757,6.14,6.211,6.2223,6.1951,0.0,0.0,0.0,0.0,0.0,0.0,0.0,0.0,0.0,0.0,0.0,0.5939,0.6196,0.6402,0.6468,0.6236,0.6465,0.6611,0.6637,0.7123,0.7418,0.7443,0.7443,0.0,0.7393,0.7393,0.7678,0.8255,1.0452,1.2939,1.5668,1.6809,1.858,2.0666,1.8894,1.7146,1.5387,1.3834,1.3286,1.3536,1.4146,1.4708,1.5416,1.7822,2.0162,2.1784,1.9118,1.889,1.9507,1.7385,1.6457,1.614,1.5884,1.6248,1.6637,0.0,0.0,0.0,2.47,2.7598,3.0542,3.6261,3.908,4.1386,4.4959,4.5636,4.6194,4.8464,4.8225,4.8083,4.9659,4.9859,5.0289,5.1965,5.2909,5.345,5.3484,5.3518,5.3518,5.3518,5.3518,5.3518,5.3518,5.3518,5.3518,5.3518,5.3518,5.3518,5.3518,5.3518,5.3518,5.3518,5.3518,5.3518,5.3518,5.4228,5.5006,5.5767,5.6461,5.6833,5.6831,5.6459,5.6887,5.79,5.79,5.79,5.7967,5.866,5.8979,5.9148,6.0655,6.1264,6.14,6.211,6.1676,6.067,0.0,0.0,0.0,0.0,0.0,0.0,0.0,0.0,0.0,0.0,0.0,0.0,0.0,0.7299,0.7196,0.7002,0.6733,0.6611,0.6611,0.6782,0.6878,0.6878,0.6878,0.6878,0.6878,0.7223,0.7703,0.8306,1.0137,1.2278,1.4702,1.5789,1.6934,1.7978,1.7389,1.6964,1.6511,1.3821,1.2905,1.3375,1.4599,1.6086,1.7745,1.9269,2.188,2.4416,2.2247,2.1085,2.0512,1.9856,1.8101,1.625,1.634,1.6357,1.6239,1.5898,1.7731,2.0642,2.4277,2.6928,2.9702,3.4167,3.7136,3.9549,4.1787,4.3643,4.5253,4.6625,4.626,4.6577,4.9546,4.9876,5.0304,5.2016,5.2402,5.2697,5.3399,5.3518,5.3518,5.3518,5.3518,5.3518,5.3518,5.3518,5.3518,5.3518,5.3518,5.3518,5.3518,5.3518,5.3518,5.3518,5.3518,5.3518,5.3518,5.3754,5.4499,5.5699,5.5241,5.5514,5.6412,5.628,5.6418,5.6835,5.7591,5.79,5.7967,5.8693,5.9284,5.981,6.0892,6.1124,6.1004,6.2009,6.1173,5.9544,0.0,0.0,0.0,0.0,0.0,0.5803,0.5803,0.5527,0.5595,0.6303,0.0,0.0,0.0,0.0,0.8028,0.7439,0.7258,0.7092,0.6882,0.7062,0.7087,0.6882,0.7062,0.7062,0.6882,0.7588,0.8175,0.8568,1.0005,1.1575,1.3292,1.4566,1.5452,1.5969,1.5768,1.622,1.6959,1.4914,1.4047,1.423,1.6535,1.795,1.8995,2.1439,2.4187,2.6463,2.4821,2.3717,2.2968,2.2684,2.0664,1.818,1.7729,1.6861,1.5975,1.5838,1.7448,1.9766,2.2025,2.4277,2.6999,3.1057,3.3329,3.5656,3.978,4.1755,4.3349,4.5602,4.6075,4.6969,4.9932,5.0459,5.1015,5.2792,5.2703,5.268,5.3399,5.3518,5.3518,5.3518,5.3518,5.3518,5.3518,5.3518,5.3348,5.2973,5.2956,5.2818,5.2469,5.2451,5.2592,5.2939,5.3314,5.3518,5.3518,5.3363,5.4001,5.5327,5.4321,5.4554,5.5822,5.5699,5.5638,5.5711,5.6696,5.7553,5.8321,5.9066,5.981,6.055,6.0909,6.0863,6.0628,6.1036,5.9913,5.8314,0.0,0.0,0.0,0.0,0.608,0.5842,0.5817,0.5823,0.5993,0.6381,0.0,0.0,0.0,0.0,0.0,0.7553,0.7977,0.8032,0.7439,0.7948,0.8028,0.7429,0.7989,0.8019,0.7443,0.8537,0.9113,0.9113,1.0162,1.0983,1.1615,1.325,1.4299,1.4818,1.4333,1.4994,1.6468,1.6949,1.6591,1.6021,1.9837,2.0153,1.8932,2.4412,2.7171,2.797,2.7071,2.6972,2.7131,2.5991,2.4053,2.1733,1.9823,1.7637,1.5829,1.5799,1.6241,1.6868,0.0,0.0,0.0,2.6406,2.7364,2.9542,3.8838,3.9839,4.0312,4.5568,4.78,4.9289,5.0897,5.1559,5.2458,5.4327,5.4008,5.3518,5.3551,5.3551,5.3501,5.3467,5.3501,5.3501,5.3399,5.3416,5.3024,5.1939,5.1867,5.1414,5.0455,5.0397,5.0855,5.1867,5.2904,5.345,5.3518,5.3096,5.3461,5.4582,5.3805,5.4011,5.5009,5.47,5.4547,5.4611,5.5282,5.6882,5.9021,5.9749,6.0492,6.1138,6.073,6.0522,6.0353,5.9214,5.8016,5.6967,0.0,0.0,0.0,0.6459,0.6582,0.6621,0.6295,0.6523,0.6895,0.0,0.0,0.0,1.0238,1.0701,1.0193,0.8351,0.8338,0.8113,0.7298,0.7651,0.7789,0.7629,0.8046,0.823,0.8044,0.8744,0.9113,0.9113,0.9792,1.0413,1.0958,1.1867,1.2571,1.3132,1.4205,1.4702,1.4727,1.4031,1.4502,1.5864,1.777,1.9585,2.1568,2.5141,2.8117,3.0572,3.1932,3.1205,2.9713,3.0601,2.6779,2.1114,1.7955,1.6733,1.6383,1.5934,1.6578,1.7443,1.7661,0.0,0.0,0.0,0.0,0.0,3.1172,3.3819,3.6733,4.1726,4.3504,4.5602,5.0322,5.0675,5.1376,5.4832,5.4559,5.4195,5.4969,5.4634,5.4021,5.3234,5.3344,5.2921,5.1392,5.1936,5.1903,0.0,5.0817,5.0684,5.0397,5.0397,5.0855,5.1867,5.2205,5.2731,5.3501,5.3096,5.3346,5.4151,5.2893,5.2719,5.3522,5.3389,5.3634,5.4125,5.5164,5.6541,5.8061,5.8278,5.8494,5.8744,5.9122,5.8735,5.8053,5.861,5.7488,5.5819,0.0,0.0,0.7663,0.772,0.7954,0.8117,0.8047,0.827,0.8457,0.0,0.0,0.0,1.1947,1.2082,1.1359,0.9537,0.9408,0.8948,0.7845,0.8328,0.8469,0.8063,0.8623,0.8863,0.8643,0.9151,0.9428,0.9428,0.9742,1.0062,1.0382,1.0965,1.1392,1.1728,1.2705,1.325,1.3334,1.2429,1.3458,1.595,1.8678,2.0371,2.1669,2.5402,2.7691,2.9312,3.2265,3.1824,3.0214,3.2836,2.9165,2.301,2.017,1.8643,1.7738,1.6851,1.7707,1.8894,1.8604,1.951,2.0747,2.1695,0.0,0.0,2.9341,3.2119,3.5296,4.0809,4.298,4.5242,4.9605,5.0311,5.1274,5.4503,5.4901,5.4992,5.5628,5.5074,5.4203,5.3122,5.2919,5.2187,5.055,5.117,5.1158,4.9844,5.0251,5.027,4.9562,4.9653,5.0223,5.1229,5.1266,5.189,5.3235,5.2425,5.2617,5.376,5.2274,5.2027,5.29,5.29,5.3012,5.3277,5.4675,5.5651,5.6279,5.6536,5.7256,5.8147,5.8087,5.7621,5.7039,5.7229,5.6427,5.5305,0.0,0.0,0.8739,0.9591,0.9777,0.9981,1.044,1.0567,1.044,0.0,1.1511,1.2876,1.3565,1.3367,1.2579,1.0981,1.0828,1.0233,0.8868,0.9475,0.9473,0.858,0.9391,0.9641,0.9154,0.9653,0.992,0.9893,0.9916,0.9941,0.9993,1.0407,1.0643,1.0701,1.0701,1.1309,1.2295,1.201,1.3517,1.655,2.0888,2.1797,2.1041,2.5728,2.7042,2.6917,3.0557,3.0959,3.0236,3.3448,3.1128,2.6521,2.4464,2.2168,1.9951,1.8537,1.9552,2.0967,2.0238,2.0956,2.2143,2.3131,2.2464,0.0,3.0011,3.212,3.4362,4.0398,4.3311,4.541,4.77,4.8952,5.0289,5.2167,5.3746,5.4914,5.5522,5.5018,5.4126,5.302,5.2276,5.1448,5.0368,5.0858,5.0575,4.8965,4.9972,4.9974,4.8483,4.8614,4.9239,5.0312,5.0351,5.1102,5.2716,5.1502,5.1705,5.3277,5.1894,5.1727,5.2701,5.2793,5.2635,5.2408,5.4079,5.464,5.4371,5.494,5.6475,5.8291,5.7229,5.68,5.6686,5.5601,5.5179,5.5179,0.8509,0.877,0.9258,1.0439,1.0967,1.1349,1.1766,1.2148,1.2355,1.2277,1.3597,1.455,1.454,1.4897,1.4415,1.2619,1.1811,1.1015,1.0028,0.9439,0.9037,0.883,0.9314,0.9505,0.9338,0.9818,1.0019,0.9893,0.9946,1.0171,1.055,1.0206,1.0288,1.0701,1.0701,1.1084,1.1834,1.3082,1.5698,1.9045,1.9586,2.1969,2.5443,2.772,2.9854,3.1909,3.395,3.4803,3.4801,3.3768,3.2057,2.9725,2.5878,2.4415,2.3691,2.1543,2.2313,2.3588,2.2423,2.2662,2.3041,2.2263,2.2604,0.0,2.3624,2.5519,2.8381,3.2422,3.4541,3.6699,4.0065,4.0634,4.0974,4.2307,4.58,4.9957,5.458,5.457,5.3613,5.2272,5.1737,5.0989,4.9626,4.988,4.9881,4.9249,4.9432,4.9463,4.912,4.8637,4.8843,4.9895,4.9936,5.0477,5.1688,5.1644,5.1785,5.2125,5.1486,5.1316,5.1549,5.2091,5.2575,5.3049,5.3928,5.4594,5.4999,5.5149,5.5506,5.5869,5.5651,5.5551,5.5526,5.528,5.5179,5.5179,0.8961,0.9355,1.0117,1.1621,1.2258,1.2903,1.3984,1.4349,1.4422,1.4193,1.4978,1.5647,1.5733,1.5626,1.5013,1.3619,1.2727,1.178,1.0664,1.0377,1.0055,0.962,1.021,1.0543,1.05,1.0745,1.0661,1.0306,1.0328,1.0335,1.0313,1.0037,1.0955,1.273,1.1334,1.1936,1.4036,1.376,1.5578,1.8756,2.0701,2.4004,2.7896,2.981,3.1416,3.2893,3.4806,3.6234,3.686,3.465,3.3296,3.2031,2.8996,2.7692,2.6824,2.4371,2.4807,2.5734,2.4088,2.4118,2.4358,2.3389,2.337,0.0,0.0,2.5615,2.7706,3.1423,3.2257,3.3168,3.6021,3.6286,3.6445,3.7647,4.2172,4.6042,4.7376,5.1284,5.3344,5.1588,5.1215,5.061,4.9426,4.9708,5.0069,5.0228,4.9666,4.9426,4.9733,4.9157,4.9268,5.0275,4.9815,5.0205,5.1591,5.1177,5.1151,5.1485,5.1306,5.1355,5.1708,5.2067,5.2755,5.3713,5.4072,5.4581,5.5179,5.5179,5.5179,5.5179,5.5179,5.5179,5.5179,5.5179,5.5179,5.5179,0.9327,0.9951,1.1056,1.2621,1.3301,1.416,1.5718,1.6046,1.6026,1.582,1.6402,1.7028,1.7506,1.7249,1.6703,1.5922,1.5098,1.3939,1.2266,1.2192,1.1893,1.1205,1.1204,1.152,1.2197,1.164,1.113,1.0701,1.0617,1.0393,1.0062,0.9943,1.1457,1.4189,1.2446,1.329,1.5994,1.5046,1.631,1.9296,2.31,2.5963,2.8229,3.0763,3.1938,3.2545,3.5205,3.6936,3.7663,3.5431,3.4319,3.3542,3.1649,3.0718,2.9755,2.7136,2.7303,2.7902,2.5752,2.5663,2.5908,2.4706,2.4388,2.4724,0.0,0.0,0.0,3.112,3.0807,3.0508,3.2272,3.2305,3.2391,3.3287,3.8193,4.0959,3.8184,4.5368,5.0456,4.9202,4.9816,4.9878,4.8827,4.9157,4.9907,5.0998,4.9622,4.917,5.0246,4.9757,4.9853,5.0663,4.9898,5.0125,5.148,5.0766,5.0667,5.1206,5.1325,5.1678,5.2217,5.2486,5.3174,5.4221,5.4341,5.47,5.5179,5.5179,5.5179,5.5179,5.5179,5.5179,5.5179,5.5179,5.5179,5.5179,1.0224,1.0841,1.1752,1.2739,1.3522,1.4367,1.5318,1.5835,1.6359,1.7086,1.8516,1.9766,2.0586,2.1992,2.2678,2.2208,2.1387,1.9686,1.6852,1.5271,1.438,1.4281,1.1434,1.1269,1.438,1.1756,1.0463,1.0701,1.0274,1.0264,1.06,1.0112,1.0653,1.2068,1.4196,1.4859,1.4601,1.829,2.1708,2.4782,2.6331,2.5963,2.4958,2.8649,3.0959,3.2767,3.6985,3.8291,3.7663,3.5431,3.4575,3.397,3.145,3.1971,3.2921,3.0016,3.0029,3.0508,2.7961,2.7752,2.7522,2.4562,2.5496,2.6313,2.3094,0.0,2.5083,2.5531,0.0,2.4735,2.5561,0.0,0.0,2.4266,2.8934,3.1977,3.0155,3.5621,4.0474,4.2274,4.6082,4.8061,4.677,4.6656,4.7803,5.0562,4.815,4.7741,5.05,5.0291,5.0145,5.0252,5.0168,5.0175,5.0372,5.0857,5.1116,5.1206,5.1798,5.2127,5.2247,5.3443,5.4072,5.4227,5.482,5.5119,5.5179,5.5179,5.5179,5.5179,5.5179,5.5179,5.5179,5.5179,5.5179,5.5179,1.0391,1.1008,1.1869,1.2758,1.3379,1.4225,1.5601,1.6598,1.7422,1.801,1.8945,1.998,2.1073,2.1405,2.1875,2.2715,2.2012,2.0644,1.8613,1.738,1.6146,1.4901,1.3,1.2541,1.3717,1.204,1.0999,1.0754,1.0333,1.0157,1.0238,1.0331,1.1811,1.4513,1.603,1.804,2.0402,2.1594,2.31,2.4808,2.6256,2.608,2.546,3.0331,3.2972,3.4502,3.7362,3.8015,3.7538,3.7588,3.6243,3.4579,3.5101,3.3883,3.2032,3.1006,2.9911,2.8641,2.6822,2.7227,2.7584,2.5322,2.6007,2.6672,2.4476,2.3722,2.3819,2.4945,0.0,0.0,0.0,0.0,0.0,0.0,2.6598,2.8844,2.6591,3.1863,3.6613,3.8342,0.0,0.0,0.0,0.0,0.0,0.0,4.8396,4.8193,5.0561,5.1391,5.1463,5.081,5.0787,5.0787,5.0787,5.1056,5.1206,5.1206,5.1887,5.2396,5.2785,5.3773,5.4431,5.479,5.5059,5.5179,5.5179,5.5179,5.5179,5.5179,5.5179,5.5179,5.5179,5.5179,5.5179,5.5179,1.0684,1.1252,1.1937,1.2445,1.3164,1.4205,1.585,1.7086,1.8125,1.8851,1.9563,2.0496,2.1864,2.2095,2.271,2.4064,2.4202,2.3477,2.172,2.0398,1.9233,1.8261,1.5392,1.4318,1.5442,1.3011,1.1548,1.1213,1.0639,1.0445,1.0589,1.0833,1.2697,1.5894,1.7225,2.0087,2.3913,2.4315,2.5168,2.6364,2.7738,2.8316,2.8706,3.2466,3.4753,3.6183,3.7864,3.8115,3.7813,3.8693,3.7422,0.0,3.7213,3.5457,3.2796,3.2672,3.1172,2.9199,2.7458,2.7754,2.8038,2.5932,2.602,2.6334,2.5329,2.4257,2.395,2.5555,2.4608,0.0,0.0,0.0,2.3411,2.2793,0.0,2.6303,2.4347,2.8081,3.1674,3.356,3.5609,0.0,0.0,0.0,0.0,0.0,0.0,4.7331,4.9842,5.184,5.2242,5.0737,5.0996,5.1206,5.1206,5.1206,5.1206,5.1206,5.2067,5.2749,5.3228,5.4072,5.473,5.5179,5.5179,5.5179,5.5179,5.5179,5.5179,5.5179,5.5179,5.5179,5.5179,5.5179,5.5179,5.5179,1.1478,1.1895,1.2078,1.1713,1.2988,1.4537,1.5889,1.6832,1.8025,1.963,2.0938,2.229,2.3853,2.6363,2.8053,2.8373,3.0536,3.0595,2.7624,2.5024,2.4515,2.6523,1.8572,1.6486,2.1599,1.5007,1.175,1.2259,1.126,1.1303,1.232,1.1809,1.2503,1.4308,1.7526,1.9949,2.1884,2.6138,2.9503,3.1993,3.2638,3.3822,3.5082,3.4248,3.5253,3.7386,3.9044,3.9296,0.0,3.7637,3.7448,0.0,0.0,3.631,3.7139,3.5859,3.5411,3.4706,3.1793,3.0702,2.9597,2.6069,2.5385,2.5216,2.4033,2.467,2.5704,2.6422,2.6004,2.5513,2.5513,2.4477,2.3411,2.2793,2.2793,0.0,0.0,2.2393,2.3321,2.6512,3.0789,0.0,0.0,0.0,0.0,0.0,0.0,0.0,4.7959,5.1184,5.1812,4.9442,5.0571,5.1206,5.1206,5.1206,5.1206,5.1206,5.2546,5.3169,5.3258,5.4576,5.5179,5.5179,5.5179,5.5179,5.5179,5.5179,5.5179,5.5179,5.5179,5.5179,5.5179,5.5179,5.5179,5.5179,1.1308,1.2273,1.2839,1.2117,1.2937,1.4147,1.543,1.7074,1.8476,1.9322,2.0659,2.2117,2.3657,2.3554,2.4823,2.848,2.9245,2.9375,2.8969,2.6504,2.5386,2.6108,1.9805,1.7367,1.971,1.5328,1.2741,1.2177,1.2094,1.2159,1.2359,1.2986,1.3745,1.4802,1.8479,2.206,2.5477,2.7677,3.0663,3.385,3.3696,3.46,3.608,3.5703,3.6004,3.6884,3.8567,3.8567,0.0,3.9019,3.8261,3.7153,3.8761,3.7623,3.5808,3.6467,3.5381,3.3725,0.0,0.0,3.194,2.8609,2.7525,2.6607,2.408,2.3825,2.4478,2.5691,2.6358,2.6623,2.6325,2.5896,2.5087,2.3561,2.2972,2.2553,0.0,2.1455,2.1883,2.4212,2.8716,3.2001,0.0,0.0,0.0,0.0,0.0,0.0,0.0,5.1802,5.2259,5.1698,5.1377,5.1206,5.1206,5.1206,5.1206,5.1206,5.2546,5.3198,5.3258,5.4606,5.5179,5.5179,5.5179,5.5179,5.5179,5.5179,5.5179,5.5179,5.5179,5.5179,5.5179,5.5179,5.5179,5.5179,1.2699,1.324,1.3444,1.2605,1.3301,1.4381,1.5669,1.7667,1.9271,1.9852,2.0724,2.1835,2.321,2.2674,2.3882,2.7969,2.9379,3.0043,3.006,2.834,2.7376,2.7532,2.293,2.0879,2.203,1.7752,1.5165,1.4458,1.3559,1.323,1.3427,1.4075,1.4662,1.5268,1.822,2.217,2.6742,2.8062,3.1416,3.5882,3.5956,3.6381,3.7009,3.7411,3.7085,3.6658,0.0,3.8994,3.8642,4.0475,3.9772,3.8542,4.0902,3.9521,3.7262,3.8341,3.7412,3.5881,3.5326,3.5125,0.0,3.1784,3.0551,2.924,2.6403,2.5934,2.6355,2.7338,2.699,2.6946,2.8197,2.6679,2.5053,2.4529,2.3284,2.2044,0.0,2.1216,2.1811,2.2904,2.6082,2.8769,3.0228,0.0,0.0,0.0,0.0,0.0,0.0,0.0,5.0973,5.07,5.013,5.0062,5.0511,5.0511,5.087,5.1565,5.2665,5.3318,5.3593,5.47,5.5179,5.5179,5.5179,5.5179,5.5179,5.5179,5.5179,5.5179,5.5179,5.5179,5.5179,5.5179,5.5179,5.5209,1.5313,1.4704,1.3919,1.3196,1.4056,1.5278,1.6511,1.8546,2.0229,2.1015,2.1322,2.1769,2.2625,2.3994,2.5514,2.7217,3.0977,3.2641,3.1113,3.0527,3.0469,3.0996,2.765,2.6557,2.8281,2.2031,1.878,1.8802,1.5618,1.4563,1.5448,1.5096,1.5172,1.5657,1.6822,2.0385,2.5595,2.7307,3.1822,3.799,3.912,3.8894,3.8015,3.9195,3.8341,3.6833,3.9546,4.0499,4.0676,4.1808,4.1806,4.1453,4.206,4.1831,4.1378,4.1378,4.1378,4.1051,3.9522,3.8266,3.7027,3.5403,3.4155,0.0,0.0,3.0645,3.1119,3.1155,2.8209,2.6891,3.0938,2.6925,2.3612,2.5513,2.353,2.1315,2.0028,2.1475,2.2596,0.0,0.0,2.5228,2.9338,0.0,0.0,0.0,0.0,4.0198,0.0,4.8326,4.8135,4.6919,4.7162,4.7938,4.9299,4.9277,5.0265,5.2217,5.2899,5.3533,5.4221,5.488,5.5179,5.5179,5.5179,5.5179,5.5179,5.5179,5.5179,5.5179,5.5179,5.5179,5.5179,5.5179,5.5179,5.5299,1.4212,1.4659,1.5103,1.5263,1.5557,1.5992,1.6677,1.8821,2.0319,2.0255,2.3109,2.4542,2.3003,2.6257,2.8395,2.8013,3.0115,3.1827,3.27,3.1484,3.1328,3.2715,2.8867,2.7318,2.873,2.3779,2.0847,2.0109,1.7624,1.6376,1.6276,1.5528,1.5335,1.5623,1.6255,1.9875,2.5535,2.6341,3.035,3.6259,3.7387,3.7161,3.6359,0.0,3.8492,3.7839,3.9798,4.0499,4.0676,4.1808,4.2085,4.206,4.2612,4.2688,4.2559,4.2559,4.2559,4.2459,4.206,4.1128,3.9874,3.8237,3.6364,3.4461,0.0,0.0,0.0,0.0,3.2652,3.1591,3.0305,2.854,2.6432,2.396,2.2937,2.2313,2.1984,2.1944,0.0,2.318,0.0,0.0,0.0,0.0,0.0,0.0,0.0,0.0,4.8907,0.0,4.5959,4.9335,4.8057,4.7938,4.9299,4.9277,5.0265,5.2217,5.2899,5.3533,5.4221,5.488,5.5179,5.5179,5.5179,5.5179,5.5179,5.5179,5.5179,5.5179,5.5179,5.5179,5.5179,5.5179,5.5179,5.5299,1.5331,1.5448,1.5642,1.5946,1.6571,1.7143,1.7536,1.8467,1.9295,1.9823,2.281,2.4202,2.2308,2.5852,2.8328,2.8196,2.98,3.1233,3.2241,3.2109,3.209,3.2305,3.0703,3.0128,3.085,2.7046,2.4346,2.2832,1.9788,1.7675,1.6503,1.5502,1.5045,1.5116,1.5855,1.8953,2.3803,2.7597,3.1386,3.5004,3.7337,3.7764,0.0,3.9195,3.9747,3.9596,4.0802,4.1078,4.0976,4.1884,4.2213,4.2286,4.2838,4.3014,4.3014,4.3014,4.3014,4.3014,4.3014,4.2534,4.1831,4.0929,3.9722,3.8291,3.6408,3.6004,3.6119,0.0,3.5307,3.4173,0.0,0.0,2.7874,2.4153,2.3077,2.2703,2.2703,0.0,0.0,0.0,2.5666,0.0,0.0,0.0,0.0,0.0,0.0,0.0,0.0,0.0,4.3599,4.8614,4.7251,4.707,4.8409,4.8438,4.9277,5.0953,5.1887,5.2815,5.3803,5.476,5.5179,5.5179,5.5179,5.5179,5.5179,5.5179,5.5179,5.5179,5.5179,5.5179,5.5179,5.5179,5.5414,5.5743,1.6904,1.6216,1.563,1.5695,1.6951,1.8109,1.8574,1.8272,1.8462,1.9887,2.1922,2.2741,2.1475,2.4517,2.7088,2.8163,2.987,3.1048,3.1395,3.2773,3.293,3.1465,3.2793,3.3555,3.3484,3.0664,2.8098,2.5971,2.183,1.8758,1.6701,1.5351,1.462,1.4541,1.5551,1.8137,2.2224,2.9917,3.3655,3.4751,3.8517,3.9748,3.9497,4.1026,4.1628,4.1704,4.2235,4.1982,4.1503,4.211,4.2286,4.2414,4.2864,4.3014,4.3014,4.3014,4.3014,4.2989,4.2914,4.2889,4.2889,4.2813,4.2838,4.2386,4.0477,4.0074,4.0124,4.0124,3.7337,3.5931,0.0,0.0,2.9176,2.6253,2.4627,2.3931,2.453,0.0,0.0,0.0,0.0,0.0,0.0,0.0,0.0,0.0,0.0,0.0,0.0,0.0,4.1279,4.6523,4.5799,4.5933,4.7309,0.0,4.8057,4.9329,5.069,5.2007,5.3258,5.4606,5.5179,5.5179,5.5179,5.5179,5.5179,5.5179,5.5179,5.5179,5.5179,5.5179,5.5209,5.5299,5.5743,5.6402,1.4848,1.4831,1.5043,1.4796,1.5845,1.7212,1.8706,2.0355,2.1284,2.0931,2.3316,2.44,2.2782,2.575,2.8097,2.8643,3.0271,3.2064,3.3927,3.4316,3.4336,3.4043,3.4316,3.4316,3.3965,3.1719,2.9492,2.735,2.3038,2.0074,1.8409,1.594,1.484,1.4966,1.5009,1.8769,2.5434,3.1102,3.497,3.7538,4.0552,4.171,4.1733,4.2911,4.3363,4.3388,4.3489,4.2889,4.2135,4.2688,4.2864,4.2889,4.2964,4.3014,4.3014,4.3014,4.3014,4.2914,4.2462,4.2336,4.221,4.1704,4.1957,4.2235,4.1833,4.211,4.2436,4.2436,4.1153,3.9546,3.804,0.0,0.0,3.2109,0.0,0.0,0.0,0.0,0.0,0.0,0.0,0.0,0.0,0.0,0.0,0.0,3.0455,0.0,0.0,0.0,3.939,0.0,4.5799,0.0,0.0,0.0,4.8528,4.9307,5.1139,5.2426,5.3258,5.4606,5.5179,5.5179,5.5179,5.5179,5.5179,5.5179,5.5179,5.5179,5.5179,5.5179,5.5294,5.5833,5.6432,5.6944,1.5428,1.5203,1.5347,1.5657,1.6538,1.7763,1.9375,2.1437,2.2423,2.1253,2.2489,2.3144,2.2311,2.4433,2.6299,2.7257,2.8943,3.0796,3.2847,3.3867,3.4473,3.4687,3.4707,3.4609,3.4394,3.3184,3.0937,2.7656,2.4668,2.1469,1.8101,1.6758,1.5822,1.5324,1.6976,2.0762,2.6221,3.1075,3.5354,3.9094,4.1607,4.2788,4.314,4.3915,4.4188,4.4188,4.4188,4.389,4.3388,4.3115,4.3014,4.3014,4.3014,4.3014,4.3014,4.3014,4.3014,4.2889,4.2363,4.2386,4.2487,4.1907,4.221,4.2612,4.2612,4.2813,4.3014,4.3014,4.2559,4.1679,4.0092,3.7091,0.0,0.0,0.0,0.0,0.0,0.0,3.2886,0.0,0.0,0.0,0.0,0.0,0.0,3.0339,3.0421,3.3156,0.0,0.0,3.871,0.0,0.0,0.0,0.0,0.0,0.0,4.9307,5.1259,5.2546,5.3258,5.4606,5.5179,5.5179,5.5179,5.5179,5.5179,5.5179,5.5179,5.5179,5.5179,5.5388,5.5773,5.6072,5.6795,5.7633,1.6426,1.5821,1.5771,1.6788,1.7766,1.8783,1.985,2.1878,2.2865,2.1737,2.1877,2.2037,2.197,2.3014,2.4329,2.5903,2.7629,2.9479,3.1412,3.3239,3.4394,3.4824,3.4844,3.4844,3.4844,3.4531,3.2422,2.843,2.6367,2.2971,1.8357,1.7888,1.7383,1.7028,1.9566,2.3052,2.7264,0.0,3.5954,4.0223,4.2724,4.394,4.4392,4.4819,4.489,4.4765,4.4765,4.469,4.4464,4.3614,4.3237,4.3165,4.3039,4.3014,4.3014,4.3014,4.3014,4.2889,4.2363,4.2512,4.2688,4.2135,4.2411,4.2838,4.2838,4.2914,4.3014,4.3014,4.3014,4.2894,4.2503,3.9887,0.0,0.0,0.0,0.0,0.0,0.0,3.6542,0.0,0.0,0.0,0.0,0.0,0.0,0.0,3.1444,3.2736,3.7866,0.0,0.0,0.0,0.0,4.5514,4.686,0.0,4.8768,4.9329,5.1432,5.2665,5.3258,5.4606,5.5179,5.5179,5.5179,5.5179,5.5179,5.5179,5.5179,5.5209,5.5359,5.5743,5.6222,5.6492,5.7244,5.8115,1.647,1.5724,1.5721,1.7268,1.8747,1.9663,1.9508,2.1657,2.3238,2.3105,2.338,2.3496,2.3158,2.3252,2.4094,2.601,2.7799,2.9714,3.1874,3.3657,3.4844,3.5312,3.5332,3.5332,3.5332,3.5293,3.3926,3.1123,2.7871,2.4633,2.1426,1.9435,1.9688,2.1815,2.1781,2.5011,0.0,3.4225,3.7748,4.1343,4.4655,4.6024,4.6075,4.6125,4.5849,4.5422,4.5422,4.507,4.4564,4.4464,4.4141,4.3639,4.3165,4.3014,4.3014,4.3014,4.3014,4.2889,4.2363,4.2263,4.2135,4.1528,4.1831,4.2288,4.2288,4.2637,4.3014,4.3014,4.3014,4.3024,4.3093,4.4688,4.5284,0.0,0.0,0.0,0.0,0.0,3.9094,4.1703,0.0,0.0,0.0,0.0,0.0,0.0,3.2278,3.1539,3.3933,0.0,0.0,4.4237,4.3818,4.4117,4.5454,4.7959,4.9217,4.9307,5.1881,5.3139,5.3258,5.4606,5.5179,5.5179,5.5179,5.5179,5.5179,5.5179,5.5179,5.5239,5.5863,5.6132,5.6342,5.7513,5.7995,5.8175,1.849,1.8023,1.8063,1.9158,1.965,2.041,2.1918,2.2886,2.3527,2.3821,2.3647,2.346,2.3305,2.3487,2.3898,2.468,2.6199,2.8044,3.0207,3.1845,3.3392,3.4928,3.5234,3.5391,3.5391,3.5391,3.4258,3.1914,2.8965,2.5723,2.2266,2.2127,2.3064,2.4883,2.6021,2.8733,3.2634,3.5309,3.8259,4.1414,4.3802,4.4737,4.4859,4.5883,4.6175,4.5974,4.5974,4.5824,4.5568,4.5246,4.4769,4.4242,4.4041,4.3966,4.389,4.3564,4.3463,4.3288,4.2411,4.2464,4.2537,4.1984,4.2261,4.2688,4.2688,4.2838,4.3014,4.3014,4.3014,4.3239,4.412,4.3523,4.3237,0.0,0.0,0.0,0.0,0.0,0.0,4.2986,0.0,4.0816,0.0,0.0,0.0,0.0,2.944,2.9654,0.0,0.0,0.0,4.0079,0.0,4.3775,4.5882,4.7781,4.987,5.2247,5.3707,5.4426,5.4401,5.4965,5.5179,5.5179,5.5179,5.5179,5.5209,5.5653,5.5803,5.5863,5.6492,5.6974,5.7393,5.7905,5.8354,5.874,2.0588,2.0481,2.0632,2.1283,2.1224,2.1691,2.3399,2.3621,2.371,2.3955,2.3674,2.346,2.346,2.3647,2.3763,2.3647,2.5103,2.6649,2.8168,2.9714,3.1511,3.3655,3.4194,3.4734,3.5391,3.5508,3.4766,3.3156,3.0673,2.7832,2.4785,2.5035,2.6289,0.0,2.9755,3.1865,3.4548,3.6997,3.9328,4.1576,4.3623,4.4466,4.459,4.5823,4.6301,4.6301,4.6301,4.6301,4.625,4.5849,4.5447,4.5041,4.469,4.4589,4.4514,4.4166,4.3915,4.3639,4.2889,4.2838,4.2914,4.2512,4.2713,4.3014,4.3014,4.3014,4.3014,4.3014,4.3014,4.3409,4.4752,4.3074,4.2195,4.4198,0.0,0.0,0.0,4.3551,0.0,4.244,4.2947,0.0,0.0,0.0,0.0,0.0,2.9566,3.0363,0.0,0.0,0.0,0.0,0.0,0.0,4.4637,4.6654,4.9453,5.3074,5.4086,5.4769,5.5179,5.5179,5.4976,5.4535,5.4535,5.4653,5.486,5.533,5.589,5.6521,5.7154,5.7693,5.8115,5.8324,5.871,5.9099,2.2338,2.2619,2.2987,2.3402,2.3719,2.3719,2.3027,2.3415,2.3736,2.3549,2.3683,2.3803,2.3803,2.3803,2.3647,2.3319,2.4974,2.601,2.6045,2.7663,2.9478,3.137,3.1881,3.3155,3.5357,3.5801,3.5801,3.5351,3.3215,0.0,3.0059,2.7969,2.9043,3.2695,3.2335,3.384,3.6873,3.9865,4.1417,4.2026,4.5079,4.6271,4.6271,4.6271,4.6301,4.6301,4.6301,4.6301,4.6301,4.6301,4.6301,4.61,4.4941,4.4589,4.4589,4.4589,4.4242,4.379,4.379,4.3388,4.3014,4.2989,4.2989,4.3014,4.3014,4.3014,4.3014,4.3014,4.3014,4.3409,4.4752,4.4968,4.4545,4.3412,0.0,0.0,0.0,4.4344,0.0,4.0013,3.7804,0.0,3.5168,3.2391,0.0,0.0,3.4585,3.4796,0.0,0.0,0.0,4.0481,3.9369,0.0,4.0769,4.4339,4.7553,5.0365,5.2174,5.3808,5.5179,5.5179,5.4406,5.3016,5.3016,5.3362,5.3936,5.3936,5.5201,5.7154,5.7842,5.8085,5.8175,5.886,5.9099,5.9099,2.3581,2.3714,2.3794,2.3825,2.3932,2.3839,2.3402,2.3674,2.3888,2.3701,2.4075,2.4128,2.3527,2.3474,2.3434,2.3305,2.3666,2.4505,2.5893,2.6295,2.7831,3.0872,3.1685,3.3007,3.4889,3.5644,3.5923,3.582,0.0,0.0,0.0,3.0703,3.2003,3.459,3.5332,3.6191,3.716,3.8142,3.9354,4.0813,4.2922,4.4522,4.5806,4.6948,4.7149,4.6848,4.6848,4.6597,4.6301,4.6301,4.6301,4.625,4.5869,4.5773,4.5698,4.5321,4.5095,4.4869,4.4468,4.4213,4.4091,4.4091,4.3815,4.3539,4.3539,4.3237,4.3014,4.3014,4.3014,4.3129,4.3547,4.3657,4.3512,4.3144,4.3743,0.0,4.3198,4.3459,4.2746,3.9988,4.1285,0.0,0.0,3.7621,0.0,0.0,0.0,3.2356,0.0,0.0,0.0,0.0,3.8874,0.0,4.192,4.4294,4.6827,4.9485,5.0808,5.1671,5.2132,5.2132,5.2088,5.2044,5.2044,5.2352,5.2911,5.3387,5.3951,5.463,5.531,5.6221,5.7149,5.7381,5.8166,5.9099,2.4329,2.4369,2.4306,2.4252,2.4146,2.3968,2.3541,2.3834,2.4022,2.383,2.4369,2.4479,2.3705,2.3719,2.3692,2.3514,2.342,2.396,2.5248,2.5146,2.6557,3.0054,3.0898,3.2326,3.4641,3.5566,0.0,3.5781,3.459,3.3809,3.3457,3.3762,3.4701,3.6152,3.6934,3.7383,3.7555,3.8062,3.9038,4.0385,4.1902,4.3661,4.5437,4.6507,4.6966,4.7099,4.7099,4.6747,4.6301,4.6301,4.6301,4.6301,4.6301,4.6301,4.625,4.5899,4.5648,4.5422,4.5045,4.4765,4.4589,4.4589,4.4338,4.4066,4.384,4.3539,4.324,4.3039,4.3014,4.3014,4.3014,4.3014,4.3014,4.3014,4.3014,4.3014,4.3014,4.3491,4.277,3.9857,0.0,0.0,0.0,3.9804,3.9763,0.0,0.0,0.0,0.0,0.0,3.7521,3.8628,4.0,0.0,4.2387,4.4122,4.6077,4.83,5.0161,5.1044,5.1044,5.1237,5.1257,5.1068,5.1068,5.1392,5.1988,5.24,5.3054,5.3863,5.4867,5.5849,5.6792,5.7384,5.8248,5.9099,2.4599,2.4599,2.4586,2.4572,2.4382,2.4048,2.3603,2.3901,2.4102,2.387,2.4566,2.4836,2.4262,2.4426,2.4372,2.3884,0.0,0.0,2.4209,2.4182,2.562,2.8909,2.96,3.1337,3.4483,3.5519,3.582,3.543,3.582,3.623,3.6656,3.6695,3.691,3.7266,3.7285,3.7539,3.7962,3.923,4.009,4.0654,4.1864,4.3456,4.5104,4.5104,4.5844,4.686,4.6984,4.664,4.617,4.6316,4.6351,4.6301,4.6301,4.6301,4.6301,4.6301,4.5949,4.5547,4.5547,4.5146,4.4715,4.4715,4.469,4.4514,4.3991,4.3865,4.3689,4.319,4.3065,4.3039,4.3014,4.3014,4.3014,4.3014,4.3014,4.3042,4.3129,4.4202,4.3594,0.0,0.0,0.0,0.0,3.9593,4.0627,0.0,0.0,0.0,0.0,0.0,3.7029,4.2258,4.2279,4.2238,4.2263,4.3815,4.5365,4.6971,4.9925,5.1339,5.1367,5.1858,5.1373,5.0116,5.0116,5.0488,5.1101,5.1101,5.2275,5.4208,5.5647,5.6337,5.6736,5.8221,5.8909,5.9099,0.0,0.0,2.4532,2.4342,2.4249,2.4088,2.379,2.3981,2.4182,2.4115,2.4476,2.4609,2.4249,2.4426,2.4452,2.4128,2.3968,2.3968,2.4195,2.3995,2.4937,2.7271,2.9,3.0892,3.2973,3.4958,3.5942,3.5879,3.5942,3.6074,3.6172,3.6523,3.6753,3.6871,3.7148,3.7539,3.791,3.822,3.943,4.1123,4.1418,4.2695,4.4369,4.4369,4.4309,4.4371,4.577,4.5645,4.5039,4.6444,4.6622,4.6301,4.6301,4.6301,4.6301,4.6301,4.6225,4.6125,4.6125,4.6024,4.5924,4.5924,4.5598,4.5121,4.4539,4.4389,4.4267,4.3714,4.3614,4.3489,4.309,4.3014,4.3014,4.3014,4.3014,4.3379,4.4372,4.3967,4.3297,0.0,4.3736,4.3554,4.0695,4.2525,4.2787,0.0,0.0,4.0693,4.1099,3.9778,4.0389,4.3441,4.266,4.2386,4.2813,4.4016,4.5448,4.7069,4.8226,4.8793,4.8793,4.8891,4.904,4.9132,4.9132,4.9463,4.9971,4.9971,5.0302,5.0759,5.1142,5.2792,5.4976,5.5356,5.7047,5.9099,2.5064,2.4999,2.4983,2.4823,2.4796,2.4703,2.4446,2.4609,2.4756,2.4623,2.497,2.513,2.4836,2.4906,2.4917,2.4636,2.4342,2.4289,2.4583,2.4499,2.5317,2.7436,2.848,3.0175,3.2673,3.4046,3.5123,3.5982,3.5982,3.6196,3.6601,3.6695,3.691,3.7246,3.7285,3.7422,3.7656,3.7816,3.8601,3.9765,3.9968,4.117,4.2836,4.2836,4.3014,4.3444,4.4418,4.4757,4.488,4.5612,4.6229,4.6622,4.6401,4.6301,4.6301,4.6301,4.6301,4.6301,4.6301,4.6301,4.6301,4.6301,4.6075,4.5723,4.5146,4.502,4.4794,4.3966,4.379,4.3639,4.3115,4.3014,4.3014,4.3014,4.3519,4.4155,4.4887,4.4437,4.4048,4.4175,4.4973,4.4597,4.2316,4.4118,4.435,4.1764,4.1329,0.0,4.2331,4.213,4.2812,4.46,4.4032,4.3969,4.4493,4.5347,4.6321,4.745,4.8033,4.8309,4.8309,4.856,4.8862,4.9195,4.9195,4.9314,4.959,4.959,4.959,4.9687,5.0404,5.2205,5.4475,5.5181,5.7019,5.9099,2.5518,2.5518,2.5518,2.5518,2.5518,2.5424,2.5184,2.5358,2.5438,2.5275,2.565,2.585,2.5598,2.5545,2.5411,2.517,2.4877,2.481,2.5064,2.5115,2.5951,2.7876,2.7962,2.9304,3.2158,3.2875,3.4123,3.5982,3.5982,3.6387,3.709,3.6738,3.6953,3.7582,3.7266,3.7148,3.7226,3.7656,3.7835,3.7933,3.8398,3.9514,4.0886,4.0886,4.1621,4.2638,4.2911,4.3645,4.4449,4.4287,4.5394,4.6699,4.6182,4.6215,4.6396,4.6326,4.625,4.62,4.6276,4.6301,4.6301,4.6301,4.6301,4.6175,4.5623,4.5497,4.5171,4.4041,4.379,4.3664,4.3187,4.3065,4.2939,4.2788,4.3704,4.4517,4.4731,0.0,4.4711,4.5159,4.5389,4.4932,4.3363,4.4643,4.5089,4.3875,4.3438,4.3589,4.4414,4.4066,4.4317,4.5447,4.5573,4.5924,4.6552,4.7074,4.7606,4.8033,4.8642,4.8919,4.8944,4.9389,4.959,4.959,4.959,4.959,4.959,4.959,4.959,4.9751,5.1079,5.2761,5.4564,5.5878,5.7524,5.9099,2.5558,2.5518,2.5518,2.5518,2.5518,2.5504,2.5451,2.5478,2.5585,2.5837,2.5717,2.5665,2.5904,2.5665,2.5491,2.5451,2.5184,2.5037,2.5115,2.5115,2.5362,2.5949,2.747,2.8439,2.8679,3.1663,3.4123,3.5982,3.5982,3.606,3.6177,3.6152,3.6191,3.6274,3.625,3.6426,3.6832,3.7226,3.7598,3.7933,3.8398,3.8793,3.9027,3.9027,3.9169,3.9537,4.1065,4.1451,4.1474,4.2973,4.4374,4.5406,4.4848,4.5728,4.6873,4.6421,4.5974,4.5723,4.6175,4.6301,4.6301,4.6301,4.6301,4.6175,4.5623,4.5497,4.5171,4.4041,4.379,4.3765,4.3689,4.3316,4.2685,4.1729,4.1742,4.2281,4.3493,4.263,4.2856,4.5473,4.442,4.3517,4.3672,4.395,4.4045,4.3818,4.4141,4.4242,4.394,4.384,4.4317,4.5447,4.5949,4.6652,4.7657,4.8234,4.8592,4.8667,4.9188,4.9464,4.9464,4.9565,4.959,4.959,4.959,4.959,4.959,4.959,4.959,4.9622,4.9854,5.1798,5.4416,5.4653,5.6594,5.9099,2.6012,2.5985,2.5985,2.5985,2.5985,2.5985,2.5985,2.5985,2.6039,2.6212,2.6066,2.6039,2.6212,2.5971,2.5758,2.5758,2.5382,2.5144,2.5304,2.5317,2.5451,2.5784,2.6616,2.783,2.9435,3.191,3.4123,3.5982,3.5982,3.6133,3.6367,3.6133,3.6152,3.6367,3.6133,3.6133,3.6348,3.6777,3.707,3.7305,3.7969,3.8223,3.8242,3.8476,3.8611,3.872,3.955,4.0299,4.1102,4.2388,4.3877,4.5222,4.54,4.5814,4.62,4.5949,4.5673,4.5472,4.5422,4.5623,4.5799,4.5472,4.5623,4.5723,4.5146,4.502,4.4794,4.3966,4.379,4.379,4.379,4.3589,4.3263,4.2733,4.3526,4.4213,4.4256,4.396,4.4188,4.5282,4.4233,4.3413,4.3363,4.3639,4.379,4.379,4.3765,4.3765,4.379,4.379,4.4041,4.4568,4.5999,4.728,4.836,4.8667,4.8944,4.9213,4.9464,4.9439,4.9195,4.9195,4.9195,4.917,4.8812,4.9038,4.9565,4.9264,4.9314,4.959,4.959,5.158,5.4386,5.4386,5.6394,5.9159,2.6386,2.6386,2.6386,2.6386,2.6386,2.6386,2.6386,2.6386,2.6386,2.6386,2.6386,2.6386,2.6386,2.6225,2.6091,2.6091,2.5623,2.5344,2.5504,2.5518,2.5611,2.5877,2.5824,2.7354,3.0726,3.1928,3.3674,3.5982,3.5982,3.6191,3.6538,3.6172,3.6191,3.6504,3.6172,3.5982,3.6021,3.6484,3.6714,3.6773,3.748,3.7773,3.7812,3.8144,3.8317,3.8317,3.8317,3.9213,4.047,4.1027,4.2449,4.4077,4.452,4.467,4.4663,4.4541,4.4615,4.4699,4.4627,4.4945,4.5171,4.4715,4.497,4.5146,4.4568,4.4414,4.4238,4.3714,4.3614,4.3639,4.379,4.379,4.3714,4.3463,4.4673,4.5371,4.4484,4.4641,4.4796,4.4744,4.4061,4.3489,4.3187,4.3564,4.379,4.379,4.3413,4.3363,4.379,4.379,4.3991,4.4367,4.602,4.7531,4.8793,4.8667,4.8894,4.9414,4.9264,4.8987,4.8592,4.8592,4.8592,4.8535,4.8109,4.8485,4.9364,4.8843,4.8944,4.9453,4.9653,5.147,5.4031,5.452,5.6478,5.8895,2.6386,2.6386,2.6386,2.6386,2.6386,2.6386,2.6386,2.6386,2.6386,2.6386,2.6386,2.6386,2.6386,2.6373,2.636,2.636,2.6105,2.5824,2.5531,2.5518,2.5518,2.5545,2.5291,2.6932,3.071,3.0598,3.2298,3.5982,3.5982,3.6001,3.604,3.6001,3.6001,3.604,3.6035,3.5982,3.6021,3.6484,3.6714,3.6753,3.7168,3.7344,3.7344,3.7383,3.7383,3.7383,3.7383,3.7489,3.761,3.7656,3.8902,4.041,3.9878,4.0881,4.2172,4.1665,4.1924,4.2682,4.4182,4.4614,4.464,4.4614,4.4614,4.4514,4.3991,4.3865,4.3714,4.319,4.3065,4.3215,4.3714,4.379,4.3463,4.2462,4.2446,4.2503,4.24,4.1969,4.2194,4.3733,4.3397,4.324,4.3689,4.379,4.379,4.379,4.3765,4.3765,4.379,4.379,4.4518,4.6075,4.6276,4.7129,4.8793,4.8234,4.8259,4.8868,4.8284,4.8008,4.7983,4.7983,4.7983,4.7958,4.7933,4.8259,4.8818,4.8209,4.8309,4.8976,4.9823,5.1159,5.2874,5.4884,5.6704,5.8047,2.6386,2.6386,2.6386,2.6386,2.6386,2.6386,2.6386,2.6386,2.6319,2.6185,2.6158,2.6052,2.5865,2.6012,2.6078,2.5865,2.5957,2.5864,2.5531,2.5344,2.5331,2.5504,2.5237,2.6322,2.8945,2.9864,3.1597,3.428,3.5451,3.5982,3.5982,3.5982,3.5982,3.5982,3.5982,3.5982,3.6001,3.6191,3.6269,3.6309,3.6738,3.6949,3.6968,3.7207,3.7305,3.7305,3.7305,3.7305,3.7422,3.8217,3.8951,3.966,4.0235,4.0646,4.0826,4.0302,4.1076,4.215,4.2431,4.3288,4.4041,4.3689,4.3865,4.3966,4.3413,4.3288,4.3266,4.3039,4.3014,4.3165,4.3689,4.379,4.3664,4.3266,4.3463,4.3438,4.2788,4.2785,4.2961,4.3263,4.3112,4.309,4.3263,4.3288,4.3438,4.3765,4.379,4.394,4.4292,4.4644,4.5296,4.6276,4.6301,4.6928,4.8209,4.8008,4.8033,4.8234,4.8008,4.7732,4.74,4.74,4.74,4.7375,4.7054,4.7431,4.8209,4.8008,4.8259,4.8882,4.9557,5.0777,5.2302,5.3087,5.4438,5.5794,2.6533,2.6453,2.6386,2.6386,2.6386,2.636,2.6305,2.6333,2.6253,2.5904,2.5931,2.5877,2.5545,2.5824,2.5917,2.5665,2.5877,2.5864,2.5531,2.5157,2.5024,2.5224,2.505,2.5848,2.7724,2.9441,3.1228,3.3205,3.5089,3.5982,3.5982,3.5982,3.5982,3.5982,3.5982,3.5982,3.5982,3.5982,3.5982,3.6035,3.6348,3.6465,3.6504,3.6797,3.6894,3.6894,3.6894,3.6894,3.701,3.7888,3.8193,3.8367,3.9276,3.9282,3.9077,3.9591,4.0608,4.1646,4.2112,4.3004,4.3664,4.314,4.3291,4.3438,4.309,4.3014,4.3014,4.3014,4.3014,4.3115,4.3463,4.3689,4.379,4.379,4.4116,4.4091,4.3338,4.3413,4.3413,4.3039,4.3014,4.3014,4.3014,4.3165,4.3388,4.3765,4.3966,4.4292,4.484,4.5422,4.5924,4.6301,4.6301,4.6652,4.7405,4.7405,4.7481,4.7657,4.7481,4.7199,4.6848,4.6848,4.6948,4.7074,4.6697,4.7179,4.8159,4.7983,4.8259,4.885,4.9533,5.0468,5.1522,5.22,5.313,5.4104,2.6787,2.66,2.64,2.64,2.6386,2.6293,2.6038,2.6199,2.6172,2.5585,2.581,2.5877,2.5545,2.5772,2.5984,2.5998,2.5998,2.5864,2.5531,2.4919,2.4599,2.4599,2.4599,2.5492,2.7469,2.9329,3.1228,3.3205,3.5089,3.5982,3.5982,3.5982,3.5982,3.5982,3.5982,3.5982,3.5982,3.5982,3.5982,3.5982,3.5982,3.5982,3.5982,3.5982,3.5982,3.5982,3.5982,3.5982,3.5982,3.5982,3.5982,3.5982,3.5982,3.5982,3.6541,3.943,4.0293,4.0933,4.3811,4.4213,4.3689,4.314,4.3014,4.3014,4.3014,4.3014,4.3014,4.3014,4.3014,4.3014,4.3014,4.3413,4.379,4.379,4.379,4.379,4.379,4.3341,4.3014,4.3014,4.3014,4.3014,4.3014,4.3489,4.3815,4.3815,4.4288,4.4865,4.5472,4.6024,4.6301,4.6301,4.6301,4.6301,4.6301,4.6301,4.6577,4.7099,4.6547,4.6301,4.6326,4.6326,4.6597,4.7124,4.7124,4.7757,4.8743,4.8159,4.8259,4.8901,4.9815,5.0213,5.0446,5.2611,5.336,5.3265,2.7134,2.7108,2.7041,2.7041,2.6667,2.636,2.6279,2.5985,2.5638,2.5264,2.5329,2.5224,2.4893,2.5157,2.5424,2.5625,2.5877,2.5864,2.5531,2.4919,2.4599,2.4599,2.4599,2.5492,2.7469,2.9329,3.1228,3.3205,3.5089,3.5982,3.5982,3.5982,3.5982,3.5982,3.5982,3.5982,3.5982,3.5982,3.5982,3.5982,3.5982,3.5982,3.5982,3.5982,3.5982,3.5982,3.5982,3.5982,3.5982,3.5982,3.5982,3.5982,3.5982,3.5982,3.6417,3.8495,3.9962,4.1289,4.2942,4.4191,4.4744,4.379,4.3291,4.3014,4.3014,4.3014,4.3014,4.3014,4.3014,4.3014,4.3014,4.314,4.324,4.324,4.324,4.324,4.324,4.3115,4.3014,4.3014,4.3313,4.3564,4.3564,4.4066,4.4543,4.4945,4.5497,4.5874,4.605,4.6225,4.6301,4.6301,4.6301,4.6301,4.6301,4.6301,4.6401,4.6522,4.6401,4.6496,4.6848,4.6848,4.7149,4.7682,4.7682,4.7857,4.8184,4.841,4.8642,4.885,4.9527,4.9792,4.9855,5.0512,5.0752,5.0684,2.7456,2.7389,2.7309,2.7309,2.6881,2.652,2.6413,2.6092,2.5718,2.5304,2.5358,2.5317,2.4973,2.5251,2.5543,2.5678,2.5891,2.5864,2.5531,2.5146,2.4946,2.4946,2.4946,2.5384,2.632,2.8233,3.0149,3.2053,3.3951,3.528,3.5982,3.5982,3.5982,3.5982,3.5982,3.5982,3.5982,3.5982,3.5982,3.5982,3.5982,3.5982,3.5982,3.5982,3.5982,3.5982,3.5982,3.5982,3.5982,3.5982,3.5982,3.5982,3.5982,3.5982,3.6336,3.8088,3.9823,4.1497,4.2863,4.4347,4.5321,4.4644,4.4041,4.3564,4.3363,4.3313,4.3266,4.3039,4.3014,4.3014,4.3014,4.3014,4.3014,4.3014,4.3014,4.309,4.3291,4.3313,4.3416,4.3614,4.3915,4.4141,4.4141,4.4644,4.5196,4.5773,4.6125,4.6301,4.6301,4.6301,4.6301,4.6301,4.6301,4.6396,4.6597,4.6622,4.6622,4.6622,4.6853,4.7104,4.74,4.74,4.7732,4.8259,4.8259,4.8385,4.8611,4.8962,4.9145,4.917,4.9464,4.959,4.959,4.959,4.959,4.959,2.7642,2.7482,2.7349,2.7376,2.7054,2.6734,2.6466,2.636,2.6119,2.5585,2.5784,2.585,2.5545,2.5758,2.5971,2.6024,2.6038,2.5904,2.5571,2.5531,2.5518,2.5518,2.5518,2.5226,2.4693,2.6757,2.8758,3.0657,3.2561,3.4405,3.604,3.6001,3.5982,3.5982,3.5982,3.5982,3.5982,3.5982,3.5982,3.5982,3.5982,3.5982,3.5982,3.5982,3.5982,3.5982,3.5982,3.5982,3.5982,3.5982,3.5982,3.5982,3.5982,3.5982,3.6336,3.8088,3.9725,4.1373,4.3208,4.4494,4.537,4.5518,4.5171,4.4589,4.4016,4.3865,4.374,4.324,4.314,4.314,4.314,4.314,4.314,4.314,4.314,4.3288,4.379,4.3865,4.4066,4.4539,4.464,4.4665,4.4665,4.5221,4.5773,4.6276,4.6301,4.6301,4.6301,4.6301,4.6326,4.6376,4.6376,4.6622,4.7174,4.7224,4.7224,4.7174,4.7682,4.7933,4.7983,4.7983,4.8309,4.8868,4.8868,4.917,4.959,4.959,4.959,4.959,4.959,4.959,4.959,4.959,4.959,4.959,2.7642,2.7642,2.7724,2.7951,2.7321,2.676,2.6734,2.6146,2.5665,2.5531,2.5571,2.5585,2.5518,2.5571,2.5798,2.6253,2.6293,2.6172,2.5917,2.5638,2.5518,2.5518,2.5518,2.5451,2.5331,2.8758,3.1479,3.3338,3.5088,3.6158,3.6523,3.6172,3.5982,3.5982,3.5982,3.5982,3.5982,3.5982,3.5982,3.5982,3.5982,3.5982,3.5982,3.5982,3.5982,3.5982,3.5982,3.5982,3.5982,3.5982,3.5982,3.5982,3.5982,3.5982,3.6336,3.8088,3.8861,3.9823,4.2864,4.3907,4.442,4.5769,4.6024,4.5673,4.464,4.4414,4.4389,4.4292,4.4238,4.4238,4.4238,4.4238,4.4238,4.4238,4.4238,4.4288,4.4389,4.4414,4.4464,4.4589,4.502,4.5296,4.5296,4.5799,4.6175,4.6301,4.6301,4.6301,4.6301,4.6301,4.6471,4.6923,4.6923,4.7174,4.7732,4.8184,4.8184,4.7732,4.7857,4.8159,4.8617,4.8617,4.8919,4.9414,4.9414,4.949,4.959,4.959,4.959,4.959,4.959,4.959,4.959,4.959,4.959,4.959,2.7428,2.7495,2.7535,2.7737,2.7228,2.6787,2.6787,2.6319,2.5932,2.5932,2.5932,2.5932,2.5932,2.5932,2.6052,2.636,2.6386,2.6319,2.6212,2.6012,2.5932,2.5932,2.5932,2.5932,2.5932,2.9859,3.2228,3.2861,3.3732,3.5138,3.6973,3.6738,3.6621,3.6621,3.6621,3.6621,3.6621,3.6406,3.6328,3.6309,3.6094,3.5982,3.5982,3.5982,3.5982,3.5982,3.5982,3.5982,3.5982,3.5982,3.5982,3.5982,3.5982,3.5982,3.6186,3.7092,3.7955,3.8993,4.0773,4.1861,4.2738,4.3638,4.3879,4.4065,4.4842,4.5045,4.497,4.4665,4.4589,4.4589,4.4589,4.4589,4.4589,4.4589,4.4589,4.469,4.4995,4.5045,4.5146,4.5367,4.5698,4.5874,4.5874,4.615,4.6301,4.6301,4.6522,4.6672,4.6672,4.6898,4.7205,4.745,4.7475,4.7757,4.8309,4.8642,4.8793,4.8711,4.8711,4.8862,4.9163,4.9163,4.9314,4.959,4.959,4.959,4.959,4.959,4.959,4.959,4.959,4.959,4.959,4.959,4.959,4.959,2.7134,2.7229,2.7242,2.7296,2.7014,2.6787,2.6787,2.6573,2.6386,2.6386,2.6386,2.6386,2.6386,2.6386,2.6386,2.6386,2.6386,2.6386,2.6386,2.6386,2.6386,2.6386,2.6386,2.6386,2.6386,3.0068,3.1852,3.1581,3.2213,3.418,3.7402,3.7324,3.7305,3.7305,3.7305,3.7305,3.7266,3.6934,3.6812,3.6773,3.6387,3.6196,3.6196,3.6152,3.6133,3.6113,3.6021,3.5982,3.5982,3.5982,3.5982,3.5982,3.5982,3.5982,3.5982,3.5982,3.7025,3.8221,3.8519,3.966,4.0827,4.1117,4.1213,4.1833,4.4208,4.5002,4.5146,4.4907,4.4661,4.4543,4.4861,4.4661,4.4543,4.4861,4.489,4.5095,4.5573,4.5623,4.5799,4.625,4.6301,4.6301,4.6301,4.6401,4.6451,4.6451,4.6923,4.7224,4.7224,4.7682,4.7958,4.8058,4.8058,4.8335,4.8944,4.8944,4.917,4.959,4.959,4.959,4.959,4.959,4.959,4.959,4.959,4.959,4.959,4.959,4.959,4.959,4.959,4.959,4.959,4.959,4.959,4.959,2.6827,2.6881,2.6961,2.7269,2.7014,2.6787,2.6787,2.6573,2.6386,2.6386,2.6386,2.6386,2.6386,2.6386,2.6386,2.6386,2.6386,2.6386,2.6386,2.6386,2.6386,2.6386,2.6386,2.6386,2.6386,2.8647,3.0661,3.2357,3.5504,3.7275,3.7796,3.7461,3.7305,3.7305,3.7305,3.7305,3.7285,3.7226,3.7207,3.7207,3.7148,3.7129,3.709,3.6753,3.6616,3.6543,3.6152,3.5982,3.5982,3.5982,3.5982,3.5982,3.5982,3.5982,3.5982,3.5982,3.6186,3.6674,3.8188,3.8762,3.9322,4.0827,4.1213,4.1287,4.1697,4.2896,4.4346,4.5775,4.4853,4.428,4.578,4.4823,4.431,4.5835,4.6075,4.61,4.6175,4.62,4.6225,4.6301,4.6301,4.6301,4.6301,4.6722,4.6998,4.6998,4.7475,4.7807,4.7807,4.7883,4.8134,4.8667,4.8693,4.8944,4.949,4.949,4.9515,4.959,4.959,4.959,4.959,4.959,4.959,4.959,4.959,4.959,4.959,4.959,4.959,4.959,4.959,4.959,4.959,4.959,4.959,4.959,2.656,2.6587,2.6627,2.676,2.6667,2.6587,2.6587,2.6466,2.6386,2.6386,2.6386,2.6386,2.6386,2.6386,2.6386,2.6386,2.6386,2.6386,2.6386,2.6386,2.6386,2.6386,2.6386,2.6386,2.6386,2.8374,2.9859,3.0785,3.4666,3.7134,3.8281,3.8105,3.8008,3.8008,3.8008,3.8008,3.7988,3.7754,3.7656,3.7637,3.7402,3.7305,3.7266,3.709,3.7047,3.6973,3.6543,3.6387,3.6348,3.6094,3.5982,3.5982,3.5982,3.5982,3.5982,3.5982,3.5982,3.6186,3.6924,3.7159,3.7341,3.8088,3.832,3.8531,3.9551,4.0343,4.1606,4.4312,4.3482,4.3114,4.5793,4.489,4.4281,4.6029,4.6301,4.6301,4.6301,4.6301,4.6396,4.6697,4.6998,4.7205,4.7205,4.7431,4.7525,4.7525,4.8083,4.8385,4.8385,4.8686,4.8962,4.9213,4.927,4.9339,4.959,4.959,4.959,4.959,4.959,4.959,4.959,4.959,4.959,4.959,4.959,4.959,4.959,4.959,4.959,4.959,4.959,4.959,4.959,4.959,4.959,4.959]},{"header":{"parameterUnit":"m.s-1","parameterCategory":1,"la1":30.6,"la2":28.766,"lo1":-90.7593,"lo2":-88.6598,"dx":0.0162,"dy":0.0183,"nx":116,"ny":114,"refTime":"2022-11-08T06:00:00:Z","depth":0,"parameterNumber":3,"parameterNumberName":"V-component_of_WINDS"},"data":[0.0,0.0,0.0,0.0,0.0,0.0,0.0,0.0,0.0,0.0,0.0,0.0,0.0,0.0,0.0,0.0,0.0,0.0,0.0,0.0,0.0,0.0,0.0,0.0,0.0,0.0,0.0,0.0,0.0,0.0,0.0,0.0,0.0,0.0,0.0,0.0,0.0,0.0,0.0,0.0,0.0,0.0,0.0,0.0,0.0,0.0,0.0,0.0,0.0,0.0,0.0,0.0,0.0,0.0,0.0,0.0,0.0,0.0,0.0,0.0,0.0,0.0,0.0,0.0,0.0,0.0,0.0,0.0,0.0,0.0,0.0,0.0,0.0,0.0,0.0,0.0,0.0,0.0,0.0,0.0,0.0,0.0,0.0,0.0,0.0,0.0,0.0,0.0,0.0,0.0,0.0,0.0,0.0,0.0,0.0,0.0,0.0,0.0,0.0,0.0,0.0,0.0,0.0,0.0,0.0,0.0,0.0,0.0,0.0,0.0,0.0,0.0,0.0,0.0,0.0,0.0,0.0,0.0,0.0,0.0,0.0,0.0,0.0,0.0,0.0,0.0,0.0,0.0,0.0,0.0,0.0,0.0,0.0,0.0,0.0,0.0,0.0,0.0,0.0,0.0,0.0,0.0,0.0,0.0,0.0,0.0,0.0,0.0,0.0,0.0,0.0,0.0,0.0,0.0,0.0,0.0,0.0,0.0,0.0,0.0,0.0,0.0,0.0,0.0,0.0,0.0,0.0,0.0,0.0,0.0,0.0,0.0,0.0,0.0,0.0,0.0,0.0,0.0,0.0,0.0,0.0,0.0,0.0,0.0,0.0,0.0,0.0,0.0,0.0,0.0,0.0,0.0,0.0,0.0,0.0,0.0,0.0,0.0,0.0,0.0,0.0,0.0,0.0,0.0,0.0,0.0,0.0,0.0,0.0,0.0,0.0,0.0,0.0,0.0,0.0,0.0,0.0,0.0,0.0,0.0,0.0,0.0,0.0,0.0,0.0,0.0,0.0,0.0,0.0,0.0,0.0,0.0,0.0,0.0,0.0,0.0,0.0,0.0,0.0,0.0,0.0,0.0,0.0,0.0,0.0,0.0,0.0,0.0,0.0,0.0,0.0,0.0,0.0,0.0,0.0,0.0,0.0,0.0,0.0,0.0,0.0,0.0,0.0,0.0,0.0,0.0,0.0,0.0,0.0,0.0,0.0,0.0,0.0,0.0,0.0,0.0,0.0,0.0,0.0,0.0,0.0,0.0,0.0,0.0,0.0,0.0,0.0,0.0,0.0,0.0,0.0,0.0,0.0,0.0,0.0,0.0,0.0,0.0,0.0,0.0,0.0,0.0,0.0,0.0,0.0,0.0,0.0,0.0,0.0,0.0,0.0,0.0,0.0,0.0,0.0,0.0,0.0,0.0,0.0,0.0,0.0,0.0,0.0,0.0,0.0,0.0,0.0,0.0,0.0,0.0,0.0,0.0,0.0,0.0,0.0,0.0,0.0,0.0,0.0,0.0,0.0,0.0,0.0,0.0,0.0,0.0,0.0,0.0,0.0,0.0,0.0,0.0,0.0,0.0,0.0,0.0,0.0,0.0,0.0,0.0,0.0,0.0,0.0,0.0,0.0,0.0,0.0,0.0,0.0,0.0,0.0,0.0,0.0,0.0,0.0,0.0,0.0,0.0,0.0,0.0,0.0,0.0,0.0,0.0,0.0,0.0,0.0,0.0,0.0,0.0,0.0,0.0,0.0,0.0,0.0,0.0,0.0,0.0,0.0,0.0,0.0,0.0,0.0,0.0,0.0,0.0,0.0,0.0,0.0,0.0,0.0,0.0,0.0,0.0,0.0,0.0,0.0,0.0,0.0,0.0,0.0,0.0,0.0,0.0,0.0,0.0,0.0,0.0,0.0,0.0,0.0,0.0,0.0,0.0,0.0,0.0,0.0,0.0,0.0,0.0,0.0,0.0,0.0,0.0,0.0,0.0,0.0,0.0,0.0,0.0,0.0,0.0,0.0,0.0,0.0,0.0,0.0,0.0,0.0,0.0,0.0,0.0,0.0,0.0,0.0,0.0,0.0,0.0,0.0,0.0,0.0,0.0,0.0,0.0,0.0,0.0,0.0,0.0,0.0,0.0,0.0,0.0,0.0,0.0,0.0,0.0,0.0,0.0,0.0,0.0,0.0,0.0,0.0,0.0,0.0,0.0,0.0,0.0,0.0,0.0,0.0,0.0,0.0,0.0,0.0,0.0,0.0,0.0,0.0,0.0,0.0,0.0,0.0,0.0,0.0,0.0,0.0,0.0,0.0,0.0,0.0,0.0,0.0,0.0,0.0,0.0,0.0,0.0,0.0,0.0,0.0,0.0,0.0,0.0,0.0,0.0,0.0,0.0,0.0,0.0,0.0,0.0,0.0,0.0,0.0,0.0,0.0,0.0,0.0,0.0,0.0,0.0,0.0,0.0,0.0,0.0,0.0,0.0,0.0,0.0,0.0,0.0,0.0,0.0,0.0,0.0,0.0,0.0,0.0,0.0,0.0,0.0,0.0,0.0,0.0,0.0,0.0,0.0,0.0,0.0,0.0,0.0,0.0,0.0,0.0,0.0,0.0,0.0,0.0,0.0,0.0,0.0,0.0,0.0,0.0,0.0,0.0,0.0,0.0,0.0,0.0,0.0,0.0,0.0,0.0,0.0,0.0,0.0,0.0,0.0,0.0,0.0,0.0,0.0,0.0,0.0,0.0,0.0,0.0,0.0,0.0,0.0,0.0,0.0,0.0,0.0,0.0,0.0,0.0,0.0,0.0,0.0,0.0,0.0,0.0,0.0,0.0,0.0,0.0,0.0,0.0,0.0,0.0,0.0,0.0,0.0,0.0,0.0,0.0,0.0,0.0,0.0,0.0,0.0,0.0,0.0,0.0,0.0,0.0,0.0,0.0,0.0,0.0,0.0,0.0,0.0,0.0,0.0,0.0,0.0,0.0,0.0,0.0,0.0,0.0,0.0,0.0,0.0,0.0,0.0,0.0,0.0,0.0,0.0,0.0,0.0,0.0,0.0,0.0,0.0,0.0,0.0,0.0,0.0,0.0,0.0,0.0,0.0,0.0,0.0,0.0,0.0,0.0,0.0,0.0,0.0,0.0,0.0,0.0,0.0,0.0,0.0,0.0,0.0,0.0,0.0,0.0,0.0,0.0,0.0,0.0,0.0,0.0,0.0,0.0,0.0,0.0,0.0,0.0,0.0,0.0,0.0,0.0,0.0,0.0,0.0,0.0,0.0,0.0,0.0,0.0,0.0,0.0,0.0,0.0,0.0,0.0,0.0,0.0,0.0,0.0,0.0,0.0,0.0,0.0,0.0,0.0,0.0,0.0,0.0,0.0,0.0,0.0,0.0,0.0,0.0,0.0,0.0,0.0,0.0,0.0,0.0,0.0,0.0,0.0,0.0,0.0,0.0,0.0,0.0,0.0,0.0,0.0,0.0,0.0,0.0,0.0,0.0,0.0,0.0,0.0,0.0,0.0,0.0,0.0,0.0,0.0,0.0,0.0,0.0,0.0,0.0,0.0,0.0,0.0,0.0,0.0,0.0,0.0,0.0,0.0,0.0,0.0,0.0,0.0,0.0,0.0,0.0,0.0,0.0,0.0,0.0,0.0,0.0,0.0,0.0,0.0,0.0,0.0,0.0,0.0,0.0,0.0,0.0,0.0,0.0,0.0,0.0,0.0,0.0,0.0,0.0,0.0,0.0,0.0,0.0,0.0,0.0,0.0,0.0,0.0,0.0,0.0,0.0,0.0,0.0,0.0,0.0,0.0,0.0,0.0,0.0,0.0,0.0,0.0,0.0,0.0,0.0,0.0,0.0,0.0,0.0,0.0,0.0,0.0,0.0,0.0,0.0,0.0,0.0,0.0,0.0,0.0,0.0,0.0,0.0,0.0,0.0,0.0,0.0,0.0,0.0,0.0,0.0,0.0,0.0,0.0,0.0,0.0,0.0,0.0,0.0,0.0,0.0,0.0,0.0,0.0,0.0,0.0,0.0,0.0,0.0,0.0,0.0,0.0,0.0,0.0,0.0,0.0,0.0,0.0,0.0,0.0,0.0,0.0,0.0,0.0,0.0,0.0,0.0,0.0,0.0,0.0,0.0,0.0,0.0,0.0,0.0,0.0,0.0,0.0,0.0,0.0,0.0,0.0,0.0,0.0,0.0,0.0,0.0,0.0,0.0,0.0,0.0,0.0,0.0,0.0,0.0,0.0,0.0,0.0,0.0,0.0,0.0,0.0,0.0,0.0,0.0,0.0,0.0,0.0,0.0,0.0,0.0,0.0,0.0,0.0,0.0,0.0,0.0,0.0,0.0,0.0,0.0,0.0,0.0,0.0,0.0,0.0,0.0,0.0,0.0,0.0,0.0,0.0,0.0,0.0,0.0,0.0,0.0,0.0,0.0,0.0,0.0,0.0,0.0,0.0,0.0,0.0,0.0,0.0,0.0,0.0,0.0,0.0,0.0,0.0,0.0,0.0,0.0,0.0,0.0,0.0,0.0,0.0,0.0,0.0,0.0,0.0,0.0,0.0,0.0,0.0,0.0,0.0,0.0,0.0,0.0,0.0,0.0,0.0,0.0,0.0,0.0,0.0,0.0,0.0,0.0,0.0,0.0,0.0,0.0,0.0,0.0,0.0,0.0,0.0,0.0,0.0,0.0,0.0,0.0,0.0,0.0,0.0,0.0,0.0,0.0,0.0,0.0,0.0,0.0,0.0,0.0,0.0,0.0,0.0,0.0,0.0,0.0,0.0,0.0,0.0,0.0,0.0,0.0,0.0,0.0,0.0,0.0,0.0,0.0,0.0,0.0,0.0,0.0,0.0,0.0,0.0,0.0,0.0,0.0,0.0,0.0,0.0,0.0,0.0,0.0,0.0,0.0,0.0,0.0,0.0,0.0,0.0,0.0,0.0,0.0,0.0,0.0,0.0,0.0,0.0,0.0,0.0,0.0,0.0,0.0,0.0,0.0,0.0,0.0,0.0,0.0,0.0,0.0,0.0,0.0,0.0,0.0,0.0,0.0,0.0,0.0,0.0,0.0,0.0,0.0,0.0,0.0,0.0,0.0,0.0,0.0,0.0,0.0,0.0,0.0,0.0,0.0,0.0,0.0,0.0,0.0,0.0,0.0,0.0,0.0,0.0,0.0,0.0,0.0,0.0,0.0,0.0,0.0,0.0,0.0,0.0,0.0,0.0,0.0,0.0,0.0,0.0,0.0,0.0,0.0,0.0,0.0,0.0,0.0,0.0,0.0,0.0,0.0,0.0,0.0,0.0,0.0,0.0,0.0,0.0,0.0,0.0,0.0,0.0,0.0,0.0,0.0,0.0,0.0,0.0,0.0,0.0,0.0,0.0,0.0,0.0,0.0,0.0,0.0,0.0,0.0,0.0,0.0,0.0,0.0,0.0,0.0,0.0,0.0,0.0,0.0,0.0,0.0,0.0,0.0,0.0,0.0,0.0,0.0,0.0,0.0,0.0,0.0,0.0,0.0,0.0,0.0,0.0,0.0,0.0,0.0,0.0,0.0,0.0,0.0,0.0,0.0,0.0,0.0,0.0,0.0,0.0,0.0,0.0,0.0,0.0,0.0,0.0,0.0,0.0,0.0,0.0,0.0,0.0,0.0,0.0,0.0,0.0,0.0,0.0,0.0,0.0,0.0,0.0,0.0,0.0,0.0,0.0,0.0,0.0,0.0,0.0,0.0,0.0,0.0,0.0,0.0,0.0,0.0,0.0,0.0,0.0,0.0,0.0,0.0,0.0,0.0,0.0,0.0,0.0,0.0,0.0,0.0,0.0,0.0,0.0,0.0,0.0,0.0,0.0,0.0,0.0,0.0,0.0,0.0,0.0,0.0,0.0,0.0,0.0,0.0,0.0,0.0,0.0,0.0,0.0,0.0,0.0,0.0,0.0,0.0,0.0,0.0,0.0,0.0,0.0,0.0,0.0,0.0,0.0,0.0,0.0,0.0,0.0,0.0,0.0,0.0,0.0,0.0,0.0,0.0,0.0,0.0,0.0,0.0,0.0,0.0,0.0,0.0,0.0,0.0,0.0,0.0,0.0,0.0,0.0,0.0,1.5698,1.2571,0.0,0.0,0.0,0.0,0.0,0.0,0.0,0.0,0.0,0.0,0.0,0.0,0.0,0.0,0.0,0.0,0.0,0.0,0.0,0.0,0.0,0.0,0.0,0.444,0.4525,0.4405,0.4395,0.0,0.0,0.0,0.0,0.0,0.0,0.0,0.3591,0.352,0.374,0.4256,0.5469,0.741,1.0021,0.92,0.7703,0.5657,0.0,0.0,0.0,0.0,0.0,0.0,0.0,0.0,0.0,0.0,0.0,0.0,0.0,0.0,0.0,0.0,0.0,0.0,0.0,0.0,0.0,0.0,0.0,0.0,0.0,0.0,0.0,0.0,0.0,0.0,0.0,0.0,0.0,0.0,0.0,0.0,0.0,0.0,0.0,0.0,0.0,0.0,0.0,0.0,0.0,0.0,0.0,0.0,0.0,0.0,0.0,0.0,0.0,0.0,0.0,0.0,0.0,0.0,0.0,0.0,0.0,0.0,0.0,0.0,0.0,0.0,0.0,0.0,0.0,0.0,1.8933,1.6901,0.0,0.0,0.0,0.0,0.0,0.0,0.0,0.0,0.0,0.0,0.0,0.0,0.0,0.0,0.0,0.0,0.0,0.0,0.0,0.0,0.0,0.4467,0.4394,0.4934,0.5264,0.5253,0.5149,0.5087,0.5087,0.4452,0.0,0.0,0.3741,0.3662,0.3748,0.398,0.4708,0.5958,0.8791,1.1475,1.3989,1.4851,1.3485,1.0219,0.796,0.0,0.0,0.0,0.0,0.0,0.0,0.0,0.0,0.0,0.0,0.0,0.0,0.0,0.0,0.0,0.0,0.0,0.0,0.0,0.0,0.0,0.0,0.0,0.0,0.0,0.0,0.0,0.0,0.0,0.0,0.0,0.0,0.0,0.0,0.0,0.0,0.0,0.0,0.0,0.0,0.0,0.0,0.0,0.0,0.0,0.0,0.0,0.0,0.0,0.0,0.0,0.0,0.0,0.0,0.0,0.0,0.0,0.0,0.0,0.0,0.0,0.0,0.0,2.0788,2.1203,2.1845,2.2336,2.3794,2.577,2.2558,2.2067,2.317,1.8442,0.0,0.0,0.0,0.0,0.0,0.0,0.0,0.0,0.0,0.0,0.0,0.0,0.0,0.0,0.0,0.0,0.0,0.0,0.0,0.5194,0.5074,0.5657,0.6216,0.6595,0.609,0.5754,0.5754,0.5142,0.4516,0.3937,0.3832,0.397,0.4378,0.4754,0.5866,0.7768,1.3346,1.6691,1.7895,1.9196,1.9284,1.8078,1.355,1.1165,1.0387,0.0,0.0,0.0,0.0,0.0,0.0,0.0,0.0,0.0,0.0,0.0,0.0,0.0,0.0,0.0,0.0,0.0,0.0,0.0,0.0,0.0,0.0,0.0,0.0,0.0,0.0,0.0,0.0,0.0,0.0,0.0,0.0,0.0,0.0,0.0,0.0,0.0,0.0,0.0,0.0,0.0,1.5504,1.4176,0.0,0.0,0.0,0.0,0.0,0.0,0.0,0.0,0.0,0.0,0.0,0.0,0.0,2.0706,2.3125,2.4123,2.5385,2.6899,2.7896,2.89,2.9854,2.9949,3.02,3.0507,2.998,0.0,2.5134,2.3477,0.0,0.0,0.0,0.0,0.0,0.0,0.0,0.0,0.0,0.0,0.0,0.0,0.0,0.0,0.0,0.0,0.0,0.0,0.0,0.0,0.0,0.8778,0.995,1.0702,1.0852,1.0254,0.8748,0.7697,0.6358,0.4546,0.3978,0.4071,0.4922,0.6524,0.9768,1.4697,1.8265,2.0579,2.1638,2.2268,2.2221,2.1566,1.9384,1.6879,1.4128,1.2192,0.0,0.0,0.0,0.0,0.0,0.0,0.0,0.0,0.0,0.0,0.0,0.0,0.0,0.0,0.0,0.0,0.0,0.0,0.0,0.0,0.0,0.0,0.0,0.0,0.0,0.0,0.0,0.0,0.0,0.0,0.0,0.0,0.0,0.0,0.0,0.0,0.0,0.0,0.0,1.2843,1.4582,1.4223,1.4093,1.2931,0.0,0.0,0.0,0.0,0.0,0.0,0.0,0.0,0.0,2.0289,2.1973,2.427,2.7243,2.8021,2.8925,2.9955,3.0457,3.0954,3.1406,3.1406,3.1406,3.1406,3.1406,3.0432,2.8699,2.6683,2.4522,2.225,0.0,0.0,0.0,0.0,1.8182,1.8547,0.0,0.0,0.0,0.0,0.0,0.0,0.0,0.0,0.0,0.0,0.0,0.0,0.9974,1.1981,1.3595,1.4466,1.4849,1.413,1.1964,1.0303,0.8338,0.6028,0.4752,0.4695,0.5929,0.9281,1.402,2.0238,2.2007,2.3408,2.4406,2.4572,2.4406,2.3963,2.3963,2.183,1.808,1.62,1.4206,1.2044,0.0,0.0,0.0,0.0,0.0,0.0,0.0,0.0,0.0,0.0,0.0,0.0,0.0,0.0,0.0,0.0,0.0,0.0,0.0,0.0,0.0,0.0,0.0,0.0,0.0,0.0,0.0,0.0,0.0,0.0,0.0,0.0,0.0,0.0,0.0,0.0,0.0,1.3128,1.4469,1.4823,1.5042,1.4048,0.0,0.0,0.0,0.0,0.0,0.0,1.6367,1.7644,1.9681,2.2639,2.475,2.7109,2.9722,3.0468,3.1085,3.1612,3.1612,3.1687,3.1834,3.1834,3.1834,3.1834,3.1834,3.1834,3.1637,2.9321,2.7864,2.6859,2.4221,2.2688,2.2049,2.2889,2.3191,2.3678,0.0,0.0,0.0,0.0,0.0,0.0,0.0,0.0,0.0,0.0,0.0,1.1512,1.2091,1.435,1.6016,1.6525,1.6069,1.5432,1.4646,1.2143,1.011,0.877,0.6641,0.6207,0.774,1.3268,1.7866,2.1407,2.3606,2.496,2.5536,2.6122,2.6348,2.6323,2.6323,2.4983,2.2619,2.0425,1.8483,1.6495,1.2176,0.0,0.0,0.0,0.0,0.0,0.0,0.0,0.0,0.0,0.0,0.0,0.0,0.0,0.0,0.0,0.0,0.0,0.0,0.0,0.0,0.0,0.0,0.0,0.0,0.0,0.0,0.0,0.0,0.0,0.0,0.0,0.0,0.0,0.0,0.0,0.0,0.0,0.0,1.7283,1.8336,0.0,0.0,0.0,0.0,1.6692,1.6628,1.7798,2.0722,2.1545,2.2954,2.5144,2.7476,2.8984,2.9603,3.0778,3.1637,3.2144,3.2144,3.2466,3.3014,3.3014,3.3014,3.3014,3.3014,3.3014,3.2914,3.1708,3.0256,2.8706,2.8028,2.6766,2.5536,2.7168,2.777,2.8097,0.0,0.0,0.0,0.8626,0.8261,0.7847,0.71,0.7172,0.7389,0.774,1.0778,1.3246,1.4115,1.7262,1.9775,2.1046,2.1356,2.0817,1.9331,1.5957,1.3814,1.3346,0.9645,0.9764,1.4446,1.8276,2.1518,2.4145,2.5326,2.5979,2.618,2.6399,2.6499,2.6499,2.6499,2.6047,2.5201,2.3678,2.1841,1.9721,1.6887,1.3125,0.0,0.0,0.0,0.0,0.0,0.0,0.0,0.0,0.0,0.0,0.0,0.0,0.0,0.0,0.0,0.0,0.0,0.0,0.0,0.0,0.0,0.0,0.0,0.0,0.0,0.0,0.0,0.0,0.0,0.0,0.0,0.0,0.0,0.0,0.0,0.0,0.0,1.6908,1.8063,0.0,1.6918,1.7443,1.8155,1.8852,2.0135,2.1485,2.2812,2.3358,2.4671,2.6955,2.7064,2.8435,3.1262,3.0922,3.1427,3.2788,3.2788,3.2889,3.3115,3.3467,3.3796,3.4148,3.4148,3.4572,3.515,3.4374,3.3072,3.1587,3.1386,3.0954,3.0552,3.1486,3.1838,3.1989,0.0,0.0,0.0,0.8997,0.8663,0.8349,0.7841,0.7947,0.8564,0.9903,1.2842,1.5686,1.7882,2.0779,2.3101,2.4468,2.48,2.4018,2.1844,1.8591,1.6293,1.527,1.2444,1.3531,1.9183,2.1454,2.3662,2.5904,2.6587,2.6901,2.6901,2.6901,2.7061,2.733,2.6748,2.6645,2.685,2.5794,2.4305,2.2433,2.039,1.707,1.3086,0.0,0.0,0.0,0.0,0.0,0.0,0.0,0.0,0.0,0.0,0.0,0.0,0.0,0.0,0.0,0.0,0.0,0.0,0.0,0.0,0.0,0.0,0.0,0.0,0.0,0.0,0.0,0.0,0.0,0.0,0.0,0.0,0.0,0.0,1.5064,1.7174,1.7272,1.8717,1.9291,1.825,1.9639,2.0762,2.1191,2.2695,2.3711,2.3984,2.4258,2.5189,2.6899,2.6582,2.7764,3.0634,3.0656,3.138,3.2775,3.3171,3.3567,3.3922,3.4299,3.4728,3.5278,3.5255,3.5705,3.638,3.5981,3.5177,3.4195,3.4195,3.4195,3.4246,3.4622,3.4726,3.4776,0.0,0.0,0.97,0.97,0.9067,0.8699,0.9215,0.8649,0.9643,1.3921,1.6,1.8789,2.3235,2.4759,2.5753,2.649,2.6039,2.459,2.2004,1.9869,1.7379,1.4342,1.5096,1.7474,2.1549,2.2732,2.4359,2.6585,2.7364,2.7736,2.7736,2.7736,2.8185,2.8939,2.7313,2.6994,2.7653,2.6884,2.5887,2.4666,2.2498,2.0793,1.9005,0.0,0.0,0.0,0.0,0.0,0.0,0.0,0.0,0.0,0.0,0.0,0.0,0.0,0.0,0.0,0.0,0.0,0.0,0.0,0.0,0.0,0.0,0.0,0.0,0.0,0.0,0.0,0.0,0.0,0.0,0.0,0.0,0.0,1.4995,1.6758,1.8264,1.8676,2.0605,2.1758,2.1307,2.2441,2.3381,2.3769,2.4199,2.441,2.441,2.443,2.4672,2.5192,2.63,2.7159,2.7691,2.9988,3.1488,3.2147,3.3301,3.4435,3.5533,3.5487,3.5834,3.6431,3.6433,3.6458,3.6505,3.648,3.6505,3.6505,3.643,3.6405,3.6405,3.643,3.6455,3.6455,0.97,0.97,0.97,0.97,0.9453,0.9241,0.9277,0.9023,1.0008,1.3256,1.5627,1.8743,2.3202,2.5589,2.7168,2.7937,2.7864,2.6841,2.4661,2.1306,1.8573,1.6635,2.1192,2.4091,2.4835,2.652,2.7683,2.8298,2.8524,2.8636,2.8636,2.8636,2.8764,2.8987,2.8524,2.8071,2.7687,2.7454,2.6848,2.5929,2.4883,2.2925,2.0349,0.0,0.0,0.0,0.0,0.0,0.0,0.0,0.0,0.0,0.0,0.0,0.0,0.0,0.0,0.0,0.0,0.0,0.0,0.0,0.0,0.0,0.0,0.0,0.0,0.0,0.0,0.0,0.0,0.0,0.0,0.0,1.5137,1.695,1.6715,1.908,2.0977,2.1386,2.2225,2.2849,2.3066,2.3418,2.3789,2.4219,2.4648,2.4906,2.4906,2.5171,2.5956,2.7297,2.6826,2.7592,2.9827,2.9935,3.1052,3.3102,3.2714,3.379,3.6135,3.5454,3.6015,3.7563,3.7563,3.804,3.8768,3.8366,3.8441,3.8642,3.7009,3.6405,3.6455,3.6833,3.7235,3.7563,0.97,0.97,0.97,0.97,0.9577,0.9465,0.9308,0.9179,1.0564,1.4705,1.702,2.0361,2.5788,2.7981,2.9167,2.9378,2.8908,2.7153,2.3762,2.0372,1.9129,2.0587,2.4028,2.637,2.7278,2.8424,2.9002,2.9002,2.9364,2.9535,2.9535,2.9535,2.9721,3.0025,2.9317,2.8923,2.8748,2.8016,2.7421,2.6934,2.6257,2.4943,2.3253,2.2124,1.9619,1.6536,1.4742,1.4769,1.5356,1.3539,0.0,0.0,0.0,0.0,0.0,0.0,0.0,0.0,0.0,0.0,0.0,0.0,0.0,0.0,0.0,0.0,0.0,0.0,0.0,0.0,0.0,0.0,0.0,0.0,1.7874,1.9531,1.9531,2.1035,2.2305,2.2693,2.3123,2.3493,2.3769,2.4277,2.4629,2.4687,2.5273,2.5649,2.5649,2.5879,2.6512,2.7654,2.7017,2.7548,2.9415,2.9484,3.0489,3.2444,3.2989,3.441,3.653,3.66,3.7392,3.8718,3.8718,3.9094,3.9672,3.9371,3.9421,0.0,0.0,0.0,0.0,0.0,3.8442,3.8743,0.97,0.97,0.97,0.97,0.9567,0.9455,0.9324,0.9176,1.1191,1.7048,1.9052,2.2598,2.9456,3.097,3.1276,3.0757,2.9571,2.6638,2.1464,1.9078,2.004,2.4929,2.5083,2.6366,2.9089,2.9239,2.9286,2.9286,3.0071,3.0434,3.0434,3.0434,3.0822,3.1453,2.9936,2.9659,3.0193,2.854,2.7802,2.762,2.6816,2.6499,2.6499,2.6499,2.5251,2.3321,2.2017,2.0501,1.8945,1.7625,0.0,0.0,0.0,0.0,0.0,0.0,0.0,0.0,0.0,0.0,0.0,0.0,0.0,0.0,0.0,0.0,0.0,0.0,0.0,0.0,0.0,0.0,0.0,0.0,2.0762,2.2654,2.2693,2.2713,2.281,2.3062,2.3532,2.3887,2.3926,2.5078,2.564,2.5336,2.604,2.6465,2.6465,2.6465,0.0,0.0,0.0,2.7363,2.7839,2.9001,3.0089,3.1194,3.345,3.5346,3.6839,3.7976,3.8939,3.9697,3.9697,3.9697,3.9697,3.9772,3.9823,3.9873,3.9747,3.9747,3.9798,3.9798,3.9823,3.9948,0.97,0.97,0.97,0.97,0.9504,0.935,0.9459,0.9159,1.1114,1.7174,1.8648,2.2165,3.0108,3.1651,3.2123,3.212,3.0946,2.8415,2.4124,2.4226,2.4942,2.5982,2.8053,2.9436,3.0027,3.0688,3.1014,3.1014,3.119,3.1263,3.1263,3.1263,3.1336,3.1496,3.1161,3.0762,3.0238,2.9192,2.833,2.762,2.6816,2.6499,2.6499,2.6499,2.6223,2.582,2.5519,2.5192,2.4689,2.3155,2.1372,1.9567,1.8457,1.5356,0.0,0.0,0.0,0.0,0.0,0.0,0.0,0.0,0.0,0.0,0.0,0.0,0.0,0.0,0.0,0.0,0.0,0.0,0.0,2.0254,2.2266,2.3652,2.3981,2.402,2.3806,2.3159,2.3806,2.4434,2.4809,2.5727,2.6367,2.6621,2.6797,2.6869,2.6869,2.6869,2.709,2.7545,2.7871,2.8242,2.8672,2.9605,3.0752,3.2112,3.1832,0.0,3.731,3.6402,3.7329,3.9697,3.9697,3.9697,3.9722,4.0174,4.06,4.0901,4.0049,3.9973,4.035,4.035,4.0625,4.1001,0.97,0.97,0.97,0.97,0.9485,0.9331,0.9487,0.9208,1.077,1.5695,1.7574,2.0577,2.6158,2.7715,2.8016,2.702,2.5938,2.4924,2.4077,2.5126,2.655,2.8225,2.9577,3.048,3.0881,3.1278,3.1511,3.1511,3.1511,3.1511,3.1511,3.1839,3.1989,3.1989,3.1989,3.1797,3.1306,2.9691,2.8748,2.8233,2.6994,2.6499,2.6499,2.6499,2.6499,2.6499,2.6499,2.6499,2.6373,2.5603,2.432,2.2926,2.2149,1.9136,1.5564,0.0,0.0,0.0,0.0,0.0,0.0,0.0,0.0,0.0,0.0,0.0,0.0,0.0,0.0,1.5108,1.7249,0.0,2.0508,2.2206,2.3418,2.3951,2.3453,2.3518,2.3711,2.4049,2.4664,2.523,2.5708,2.6548,2.7057,2.6986,2.7226,2.7344,2.7344,2.7344,2.7637,2.8281,2.8496,2.8906,2.9551,2.998,3.0693,3.1653,3.1905,3.3162,3.5293,3.5288,3.6108,3.7554,3.856,3.9,3.9102,4.0358,4.1076,4.1252,4.07,4.065,4.0901,4.0901,4.1076,4.1352,0.97,0.97,0.97,0.97,0.9485,0.9331,0.9487,0.9264,1.0383,1.4013,1.6159,1.8535,2.1556,2.3067,2.3182,2.1559,2.1101,2.1783,2.378,2.542,2.7556,3.0393,3.0524,3.0837,3.1496,3.1511,3.1511,3.1511,3.1511,3.1511,3.1511,3.2049,3.2303,3.2303,3.2303,3.2303,3.2169,2.9947,2.9002,2.886,2.7162,2.6499,2.6499,2.6499,2.6499,2.6499,2.6499,2.6499,2.6499,2.6499,2.5973,2.5192,2.4608,2.2345,1.9453,1.7234,1.5335,0.0,0.0,0.0,0.0,0.0,0.0,0.0,0.0,1.2781,1.3685,1.4972,1.6551,1.8322,2.0274,2.1602,2.2734,2.387,2.4394,2.4196,2.2925,2.3172,2.3907,2.5043,2.5385,2.5792,2.6459,2.7311,2.7663,2.7285,2.7598,2.7819,2.7819,2.7897,2.8223,2.8879,2.9054,2.9492,3.0195,3.0293,3.0527,3.0928,3.2092,3.2822,3.3134,3.432,3.5041,3.5393,3.7102,3.8111,3.8731,4.0335,4.1232,4.1628,4.1628,4.1628,4.1628,4.1503,4.1528,4.1704,0.97,0.97,0.97,0.97,0.9485,0.9331,0.9487,0.9264,1.0213,1.3404,1.4563,1.6439,2.003,2.1121,2.1545,2.1473,2.3196,2.4709,2.5735,2.8389,3.0352,3.1321,3.1365,3.1424,3.1511,3.1511,3.1511,3.1511,3.1511,3.1511,3.1511,3.157,3.16,3.16,3.16,3.16,3.1499,2.9734,2.9002,2.886,2.7162,2.6499,2.6499,2.6499,2.6499,2.6499,2.6499,2.6499,2.6499,2.6499,2.6448,2.6181,2.5228,2.4346,2.3085,2.0003,1.8382,1.7294,1.5873,1.5247,1.5142,1.5868,1.52,1.478,0.0,1.7031,1.7718,1.8986,2.0352,2.1759,2.3105,2.3789,2.4297,2.4867,2.5293,2.5167,2.405,2.5108,2.5831,2.5423,2.5084,2.5455,2.6806,2.7715,2.8203,2.8144,2.8203,2.8223,2.8223,2.8574,2.8828,2.8879,2.9648,3.0098,3.0195,3.0605,3.084,3.0898,3.1054,3.1825,3.3106,3.3275,3.4069,3.5311,3.5915,3.7487,3.9641,3.9881,4.109,4.2813,4.2813,4.2813,4.2735,4.2261,4.2411,4.2838,0.97,0.97,0.9681,0.9583,0.9439,0.9308,0.9359,0.9216,0.9718,1.1454,1.2293,1.3273,1.4739,1.4782,1.4857,1.5228,1.9134,2.2192,2.3662,2.8006,3.0807,3.1481,3.1511,3.1511,3.1511,3.1511,3.1511,3.1511,3.1511,3.1511,3.1511,3.1899,3.2079,3.2079,3.2079,3.2079,3.196,2.9891,2.9002,2.886,2.7162,2.6499,2.6499,2.6499,2.6499,2.6399,2.5753,2.5376,0.0,2.5452,2.5511,2.5544,2.581,2.4431,2.2541,2.1541,1.991,1.8469,1.8655,1.8377,1.8108,1.8479,1.8147,1.8027,1.9022,1.957,2.0157,2.1191,2.2266,2.3223,2.4004,2.4512,2.4686,2.4345,2.5312,2.5389,2.3323,2.4649,2.5737,2.5547,2.5531,2.6138,2.7623,2.8086,2.8301,2.8301,2.8301,2.8398,2.8652,2.8828,2.9113,2.9648,3.0019,3.0332,3.0586,3.0801,3.0898,3.0898,3.0898,3.1228,3.1825,3.1825,3.2934,3.4855,3.5301,3.6765,3.8849,3.8849,3.9395,4.0303,4.1248,4.1615,4.1704,4.2379,4.2813,4.3014,0.97,0.97,0.9659,0.9483,0.935,0.9278,0.9242,0.9157,0.9291,0.9821,1.0368,1.0654,1.051,1.0017,1.0014,1.0796,1.5592,1.9592,2.2014,2.6995,3.0319,3.1451,3.1511,3.1511,3.1511,3.1511,3.1511,3.1511,3.1511,3.1511,3.1511,3.1989,3.2213,3.2213,3.2213,3.2213,3.208,2.9919,2.9002,2.886,2.7162,2.6499,2.6499,2.6499,2.6232,2.5748,2.4872,2.418,2.3627,2.3461,2.3537,2.3701,2.3943,2.2782,2.1362,2.1551,2.053,1.9416,1.9921,2.0059,2.0059,1.9923,2.0079,2.0332,2.0703,2.1191,2.1815,2.2695,2.3457,2.4141,2.4664,2.5039,2.5102,2.4529,2.5532,2.5623,2.3453,2.4826,2.5958,2.5755,2.6316,2.7141,2.8201,2.8301,2.8301,2.8301,2.8398,2.8594,2.8879,2.9113,2.9551,3.0176,3.0332,3.0547,3.0879,3.0898,3.0898,3.0898,3.0898,3.0898,3.0898,3.1016,3.2136,3.4047,3.4377,3.5689,3.7536,3.7536,3.7805,3.8313,3.9493,3.9931,4.01,4.1248,4.2234,4.3014,0.97,0.97,0.9599,0.9338,0.9292,0.9247,0.9119,0.9096,0.9093,0.9126,0.916,0.9108,0.8998,0.8948,0.9515,1.0954,1.4648,1.8431,2.2151,2.6025,2.9165,3.1405,3.1511,3.1511,3.1511,3.1511,3.1511,3.1511,3.1511,3.1511,3.1511,3.154,3.154,3.154,3.154,3.154,3.1409,2.9734,2.9002,2.886,2.7162,2.6499,2.6499,2.6499,2.5569,2.4248,2.4065,2.3185,2.1866,2.0425,2.0326,2.0474,1.8428,1.9089,2.0472,1.9646,2.0213,2.0761,1.9104,1.9609,2.0468,2.0019,2.0547,2.1151,2.1171,2.1854,2.2715,2.3574,2.4102,2.4645,2.5503,2.5654,2.581,2.6239,2.6362,2.6136,2.5412,2.6654,2.7266,2.6209,2.7357,2.8254,2.8301,2.8301,2.8301,2.8301,2.8672,2.8879,2.8898,2.9707,3.0176,3.0195,3.0644,3.0879,3.0898,3.0898,3.0898,3.0898,3.0898,3.0898,3.0898,3.1309,3.1983,3.2835,3.2886,3.4011,3.5867,3.5867,3.679,3.8194,3.8253,3.8283,3.8283,3.8342,4.0332,4.3014,0.9575,0.9561,0.9489,0.9208,0.9162,0.9116,0.8975,0.8954,0.8954,0.8954,0.8954,0.0,0.0,0.0,0.0,0.0,1.3006,1.5927,1.889,2.3417,2.688,2.8843,3.1036,3.2008,3.1511,3.1994,3.2008,3.1511,3.1511,3.1511,3.1511,3.1511,3.1511,3.1511,3.1511,3.1511,3.1438,3.0329,2.9535,2.8907,2.7769,2.7313,2.7313,2.7313,2.5702,2.3299,0.0,2.0163,1.8345,1.8229,1.8341,1.8558,1.892,1.8461,1.777,1.7632,1.8283,1.9201,1.9766,2.0253,2.0625,2.0723,2.121,2.1738,2.1991,2.2754,2.3516,2.4082,2.4102,2.4102,2.4394,2.4453,2.4291,2.3815,2.4634,2.5393,2.5511,2.6168,2.6865,2.7492,2.8014,2.8301,2.8301,2.8301,2.7887,2.6906,2.8109,2.8584,2.7884,2.9326,3.0332,3.0644,3.082,3.0898,3.0898,3.0898,3.0898,3.0898,3.1172,3.1465,3.1788,3.2168,3.2519,3.2812,3.3086,3.3595,3.4195,3.4195,3.4539,3.5139,3.6204,3.6608,3.6751,3.7805,3.8905,3.9983,0.9577,0.9532,0.9444,0.9203,0.9126,0.0,0.0,0.0,0.0,0.0,0.0,0.0,0.0,0.0,0.0,0.0,0.0,1.3752,1.6241,2.0095,2.3143,2.5111,2.7269,2.8321,2.8132,2.8406,2.8873,2.9459,2.9981,3.0522,3.1071,3.1625,3.1739,3.1511,3.1511,3.1511,3.1467,3.0658,2.9995,2.9324,2.7723,2.6938,2.6614,2.544,2.3298,0.0,1.8404,1.621,1.4487,1.4884,1.5678,1.6651,1.7471,1.7589,1.7332,1.6758,1.7701,1.9139,2.0097,2.0586,2.0918,2.1327,2.1914,2.2443,2.2654,2.3516,2.4339,2.459,2.4062,2.3613,2.3769,2.3789,2.3693,2.3411,2.4397,2.5511,2.6451,2.6363,2.6746,2.814,2.8301,2.8359,2.8496,2.8516,2.8118,2.7184,2.8367,2.89,2.8369,2.9661,3.0586,3.0879,3.0898,3.0898,3.0898,3.0898,3.0957,3.1113,3.1543,3.1973,3.2433,3.2676,3.2871,3.3027,3.3301,3.3386,3.3386,3.3386,3.3386,3.3513,3.455,3.4933,3.5057,3.6081,3.6842,3.7574,0.9687,0.9567,0.9457,0.0,0.0,0.0,0.0,0.0,0.0,0.0,0.0,0.0,0.0,0.0,0.0,0.0,0.0,0.0,1.4247,1.6248,1.8331,2.0564,2.0874,2.1325,2.2032,2.1642,2.2795,2.5602,2.7019,2.8428,2.9881,3.1394,3.1715,3.1002,3.1032,3.1062,3.1019,3.025,2.9896,2.9604,2.6843,2.5325,2.4354,2.1215,1.873,1.6565,1.3733,1.1823,1.0592,1.0691,1.2605,1.4887,1.4447,1.6571,1.8901,1.7107,1.8486,2.0468,2.0078,2.0625,2.1405,2.1816,2.256,2.3186,2.3142,2.4141,2.5043,2.5024,2.3965,2.3142,2.3516,2.3613,2.3906,2.475,2.541,2.6354,2.7909,2.7187,2.6912,2.8072,2.8274,2.8476,2.8859,2.8918,2.8937,2.8957,2.9375,2.9737,2.9928,3.0538,3.0898,3.0898,3.0898,3.0898,3.0898,3.0918,3.1152,3.1552,3.2042,3.2452,3.2832,3.2832,3.3047,3.3386,3.3386,3.3386,3.3386,3.3386,3.3386,3.3386,3.3386,3.3386,3.3386,3.3386,3.4383,3.5898,0.0,0.0,0.0,0.0,0.0,0.0,0.0,0.0,0.0,0.0,0.0,0.0,0.0,0.0,0.0,0.0,0.0,0.0,1.1525,1.3944,1.5917,1.7182,2.0326,2.1808,2.1378,2.2401,2.2961,2.3044,2.3423,2.3682,2.3915,2.4816,2.4859,2.4238,2.4728,2.4938,2.4926,2.4731,2.4253,2.3542,2.2322,2.1438,2.0684,1.9336,1.7001,1.4306,1.3396,1.1381,0.9299,1.0337,1.309,1.6339,1.786,1.8433,1.8624,1.9041,1.9593,2.0195,2.0723,2.1717,2.2555,2.2381,2.2732,2.3201,2.3555,2.4121,2.4492,2.4202,2.2832,2.1522,2.0976,2.1192,2.1583,2.2108,2.3515,2.4819,2.559,2.5991,2.6336,2.6608,2.7886,2.8809,2.8879,2.9219,2.9531,2.9844,2.998,2.9098,2.6888,2.9394,3.0898,3.0898,3.0898,3.0898,3.0898,3.1191,3.1738,3.2461,3.2578,3.2851,3.3262,3.3262,3.3289,3.3386,3.3386,3.3386,3.3386,3.3386,3.3386,3.3386,3.3386,3.3386,3.3386,3.3386,3.367,3.407,0.0,0.0,0.0,0.0,0.0,0.0,0.0,0.0,0.0,0.0,0.0,0.0,0.0,0.0,0.0,0.0,0.0,0.0,0.0,1.1407,1.2589,1.3174,1.5496,1.6722,1.6572,1.7223,1.811,1.9258,1.9567,2.0136,2.0935,2.1639,2.1536,2.0836,2.1235,2.1385,2.1385,2.1385,2.1099,0.0,0.0,1.8382,1.7641,1.6088,1.4034,1.1869,1.1201,1.0672,1.0595,1.2872,1.5557,1.8151,1.9258,2.0007,2.0461,2.021,2.0557,2.1132,2.164,2.244,2.3086,2.283,2.322,2.3552,2.3066,2.344,2.3574,2.2599,2.1016,1.9708,1.9396,2.0038,2.0643,2.0778,2.2941,2.477,2.5297,2.573,2.6264,2.696,2.7837,2.8516,2.8859,2.9141,2.9174,2.8852,2.9679,2.9537,2.7995,2.98,3.0898,3.0898,3.0898,3.0976,3.1172,3.1777,3.2324,3.2793,3.2988,3.3184,3.3386,3.3386,3.3386,3.3386,3.3386,3.3386,3.3386,3.3386,3.3386,3.3386,3.3386,3.3386,3.3386,3.3386,3.3386,3.3386,0.0,0.0,0.0,0.0,0.0,0.0,0.0,0.0,0.0,0.9453,0.9151,0.8914,0.8914,0.8914,0.0,0.0,0.0,0.0,0.0,0.0,0.9329,0.944,0.9568,0.9952,1.0662,1.0333,1.172,1.4944,1.558,1.6825,1.8597,1.9326,1.9209,1.839,1.8471,1.8531,1.8531,1.8531,1.8531,1.8352,1.6525,1.5486,1.4743,0.0,1.0725,0.975,0.8711,1.0097,1.2897,1.6293,1.8584,2.0033,2.0136,2.1613,2.2963,2.1065,2.1509,2.2576,2.2598,2.299,2.3342,2.322,2.3767,2.3906,2.2266,2.2521,2.2601,2.0801,1.9121,1.8069,1.8305,1.9492,2.0369,2.0208,2.2931,2.5224,2.5621,2.5874,2.6515,2.7783,2.7882,2.8151,2.882,2.8965,2.8561,2.7503,2.9117,3.0207,3.0393,3.0616,3.0762,3.0879,3.0898,3.1152,3.168,3.2422,3.2832,3.2871,3.3242,3.3386,3.3386,3.3386,3.3386,3.3386,3.3386,3.3386,3.3386,3.3386,3.3386,3.3386,3.3386,3.3386,3.3386,3.3386,3.3386,3.3386,0.0,0.0,0.0,0.0,0.0,0.0,0.0,0.0,0.0,0.0,1.0436,0.8914,0.0,0.0,0.0,0.0,0.0,0.0,0.0,0.0,0.0,0.8602,0.9343,0.9821,0.9956,1.0605,1.1142,1.1625,1.1605,1.1656,1.1811,1.2327,1.2207,1.1616,1.2108,1.2347,1.2347,1.2347,1.2347,1.2257,1.1426,1.1012,1.0783,0.9496,0.9114,0.0,0.9502,1.0807,1.2929,1.6337,1.9149,2.1535,2.344,2.3764,2.3313,2.2501,2.2594,2.3006,2.3069,2.3613,2.4121,2.3769,2.3789,2.3555,2.2208,2.2266,2.2031,1.996,1.8711,1.7796,1.7155,1.8398,1.9496,1.9467,2.2327,2.4263,2.3482,2.5344,2.6572,2.5976,2.7557,2.8769,2.8879,2.9238,2.9408,2.9187,2.9489,2.9125,2.7826,2.906,3.0165,3.0859,3.0898,3.1426,3.2559,3.2715,3.2969,3.332,3.3347,3.3386,3.3386,3.3386,3.3386,3.3386,3.3386,3.3386,3.3386,3.3386,3.3386,3.3386,3.3386,3.3386,3.3386,3.3386,3.3386,3.3386,0.0,0.0,0.0,0.0,0.0,0.0,0.0,1.2085,1.2969,1.487,1.4183,1.2791,1.0866,0.9549,0.8765,0.0,0.0,0.0,0.0,0.0,0.0,0.8403,0.8918,0.9244,0.9244,0.9708,1.0061,1.0297,0.0,0.9607,0.9689,0.9485,0.9192,0.8865,0.9157,0.9306,0.9306,0.9306,0.9306,0.9306,0.9349,0.9259,0.9126,0.9161,0.9572,0.0,1.0255,1.1768,1.4031,1.6244,1.8819,2.1393,2.3236,2.3954,2.4009,2.3162,2.3179,2.3535,2.375,2.4102,2.4352,2.416,2.432,2.3851,2.1406,2.1491,2.117,1.7936,1.7237,1.6974,1.6159,1.762,1.8771,1.823,2.1493,2.379,2.2919,2.5038,2.6659,2.6597,2.7591,2.8359,2.8574,2.8789,2.8906,2.8906,2.8906,2.8779,2.8418,2.9371,3.0098,3.0508,3.0976,3.1621,3.2492,3.2695,3.3008,3.3386,3.3386,3.3386,3.3386,3.3386,3.3386,3.3386,3.3386,3.3386,3.3386,3.3386,3.3386,3.3386,3.3386,3.3386,3.3386,3.3386,3.3386,3.3386,0.0,0.0,0.0,0.0,0.0,0.0,0.0,1.3786,1.4899,1.7128,1.7924,1.6938,1.3396,1.1001,0.9376,0.0,0.0,0.0,0.0,0.0,0.0,0.0,0.857,0.8683,0.8683,0.0,0.0,0.9574,0.8911,0.0,0.0,0.0,0.0,0.0,0.7914,0.7914,0.7914,0.7914,0.7974,0.0,0.0,0.8886,0.8934,0.0,0.0,0.0,0.0,1.2504,1.4607,1.617,1.8229,2.0411,2.1827,2.3081,2.3866,2.3151,2.3196,2.3672,2.4375,2.4551,2.4551,2.4551,2.4828,2.4183,2.0684,2.0691,2.0305,1.6235,1.5874,1.6083,1.5512,1.7015,1.811,1.7405,2.0561,2.306,2.2913,2.4744,2.649,2.7448,2.7721,2.7956,2.8262,2.8301,2.8301,2.8301,2.8379,2.8672,2.9305,2.9687,3.0,3.0195,3.0976,3.1641,3.2198,3.2531,3.2871,3.3281,3.3281,3.3281,3.325,3.3347,3.3347,3.3301,3.3347,3.3386,3.3386,3.3386,3.3386,3.3386,3.3386,3.3386,3.3386,3.3386,3.3386,3.3386,0.0,0.0,0.0,0.0,0.0,0.0,0.0,1.5107,1.7196,1.9406,1.9771,1.8662,1.5629,1.3733,1.1543,0.0,0.0,0.0,0.0,0.0,0.0,0.0,0.0,0.0,0.0,0.0,0.0,0.8815,0.8373,0.0,0.0,0.0,0.0,0.0,0.0,0.7914,0.7914,0.7914,0.0,0.0,0.0,0.0,0.0,0.0,0.0,0.0,0.0,1.2421,1.3107,1.6256,1.7814,1.8732,2.0365,2.1187,2.1641,2.2215,2.2492,2.2969,2.4593,2.5024,2.5024,2.5024,2.5063,2.4183,2.0684,2.033,1.9701,1.6128,1.5454,1.5483,1.541,1.6562,1.7603,1.7859,1.9594,2.1445,2.2952,2.4348,2.5688,2.6934,2.7754,2.8262,2.8281,2.8301,2.8301,2.8301,2.8652,2.873,2.8418,2.8809,2.9367,3.0176,3.0684,3.1377,3.2198,3.2237,3.2472,3.2851,3.2851,3.2851,3.2871,3.3242,3.3203,3.2871,3.323,3.3386,3.3386,3.3386,3.3386,3.3386,3.3386,3.3386,3.3386,3.3386,3.3386,3.3386,0.0,0.0,0.0,0.0,0.0,0.0,1.4217,1.547,1.732,2.0927,2.1366,2.042,1.7862,1.6098,1.3266,0.8794,0.0,0.0,0.0,0.0,0.0,0.0,0.0,0.0,0.0,0.0,0.8585,0.8345,0.8576,0.0,0.0,0.0,0.0,0.0,0.0,0.7914,0.7914,0.7914,0.0,0.0,0.0,0.0,0.0,0.0,0.0,0.0,0.0,0.0,1.3644,1.4944,1.599,1.6873,1.7852,1.859,1.9546,2.1912,2.2707,2.3193,2.4981,2.5273,2.516,2.541,2.5273,2.4261,2.1055,2.0596,1.9819,1.615,1.5758,1.5925,1.5483,1.6254,1.7035,1.7191,1.8672,2.0234,2.1446,2.3186,2.4785,2.6069,2.7226,2.8034,2.8262,2.8301,2.8398,2.8652,2.8828,2.8965,2.909,2.9453,2.9844,3.0176,3.0644,3.1172,3.1777,3.1777,3.1992,3.2452,3.2452,3.2452,3.2452,3.2598,3.2715,3.2812,3.2969,3.3184,3.3386,3.3386,3.3386,3.3386,3.3386,3.3386,3.3386,3.3386,3.3386,3.3386,0.0,0.0,0.0,0.0,0.0,1.0859,1.4416,1.5697,1.745,2.0832,2.1684,2.1109,1.8809,1.6472,1.3563,0.979,0.8551,0.0,0.0,0.0,0.0,0.0,0.0,0.0,0.0,0.0,0.8677,0.8388,0.8896,0.8925,0.0,0.0,0.8465,0.8188,0.0,0.0,0.0,0.0,0.0,0.0,0.0,0.0,0.0,0.0,0.0,0.0,0.0,0.0,0.0,0.0,0.0,1.5527,1.5919,1.6745,1.8245,2.1403,2.2567,2.3186,2.5035,2.541,2.5352,2.564,2.5215,2.3987,2.1231,2.0434,1.9346,1.6082,1.5816,1.6032,1.5497,1.5903,1.6395,1.6668,1.8049,1.9434,2.0468,2.2345,2.3984,2.5015,2.6426,2.7428,2.7695,2.8066,2.8476,2.8859,2.9043,2.9297,2.9755,3.0185,3.0332,3.0195,3.0644,3.1035,3.1328,3.1328,3.1543,3.2003,3.2003,3.2003,3.2003,3.214,3.2296,3.2422,3.2559,3.2851,3.3242,3.3242,3.3269,3.3386,3.3386,3.3386,3.3386,3.3386,3.3386,3.3386,0.0,0.0,0.0,0.0,0.0,0.0,1.2973,1.59,1.8059,1.8843,2.0276,2.0344,1.8053,1.4349,1.2033,1.1966,0.9593,0.0,0.0,0.0,0.0,0.0,0.0,0.0,0.0,0.0,0.9088,0.9084,0.9162,0.9435,0.9849,0.854,0.8252,0.886,0.0,0.0,0.0,0.0,0.0,0.0,0.0,0.0,1.0485,0.0,0.0,0.0,0.0,0.0,0.0,0.0,0.0,0.0,0.0,1.6055,1.7922,2.0559,2.1789,2.2716,2.4585,2.5391,2.5674,2.5693,2.4742,2.3264,2.1094,1.957,1.801,1.5844,1.541,1.541,1.5396,1.5396,1.5688,1.6551,1.7779,1.9064,2.041,2.2112,2.3342,2.3769,2.5352,2.6431,2.6431,2.7559,2.8476,2.8859,2.9316,2.9774,3.0176,3.0625,3.0664,3.0215,3.0644,3.0898,3.0898,3.0898,3.1113,3.1523,3.1523,3.1523,3.1513,3.2003,3.1934,3.1562,3.2022,3.2452,3.2793,3.2793,3.3047,3.3386,3.3386,3.3386,3.3386,3.3386,3.3386,3.3386,0.0,0.0,0.0,0.0,0.0,0.0,0.0,1.3096,1.4682,1.6412,1.6644,1.6745,1.7027,1.4139,1.2145,1.2011,0.973,0.0,0.0,0.0,0.0,0.0,0.0,0.0,0.0,0.9405,1.0176,1.0946,1.1871,1.2184,1.1866,1.1446,1.0872,1.0144,0.9058,0.8491,0.0,0.0,0.0,0.0,0.0,1.0396,1.0485,0.0,0.0,0.0,0.0,0.0,0.0,0.0,0.0,0.0,0.0,0.0,0.0,1.8583,1.9924,2.0934,2.1789,2.2324,2.2576,2.2285,2.166,2.0723,1.918,1.8281,1.7324,1.5727,1.5396,1.5396,1.5396,1.5396,1.6074,1.8144,1.8809,1.9648,2.127,2.2717,2.3557,2.3401,2.541,2.7051,2.7637,2.832,2.8906,2.9336,2.9766,3.0224,3.0644,3.082,3.082,3.0684,3.082,3.0898,3.0898,3.0898,3.0957,3.1094,3.1094,3.1094,3.1094,3.123,3.1367,3.1523,3.166,3.2129,3.2773,3.248,3.2648,3.2988,3.2988,3.2988,3.3027,3.332,3.3386,3.3347,0.0,0.0,0.0,0.0,0.0,0.0,0.0,1.1603,1.2787,1.4174,1.3967,1.4238,1.5702,1.2965,1.1282,1.1949,0.9923,0.0,0.0,0.0,0.0,0.0,0.0,0.0,0.8947,0.9409,1.0485,1.219,1.41,1.4676,1.394,1.394,1.3089,1.1515,1.0458,0.9633,0.0,0.0,0.0,0.0,0.9966,1.0028,1.0295,0.0,0.0,0.0,0.0,0.0,0.0,0.0,0.0,0.0,0.0,0.0,0.0,0.0,1.7738,1.8775,2.0327,2.0859,2.0918,2.0664,2.0,1.9162,1.8205,1.7422,1.6617,1.5625,1.5669,1.5786,1.5454,1.5669,1.6371,1.7849,1.8768,1.9628,2.0527,2.2187,2.3457,2.387,2.5317,2.6816,2.8164,2.8672,2.9101,2.9559,2.9961,3.0391,3.0859,3.0898,3.0898,3.0898,3.0898,3.0898,3.0898,3.0898,3.0898,3.0898,3.0898,3.0898,3.0898,3.0898,3.1035,3.1269,3.1269,3.168,0.0,3.2031,3.2168,3.2559,3.2559,3.2559,3.2598,3.2851,3.2949,3.291,0.0,0.0,0.0,0.0,0.0,0.0,0.0,1.1194,1.2145,1.2145,1.2145,1.2644,1.4012,1.1018,0.9653,1.1608,0.0,0.0,0.0,0.0,0.0,0.0,0.0,0.0,0.9146,0.9117,1.0382,1.3005,1.5791,1.678,1.6068,1.6031,1.4929,1.2975,1.2252,1.114,0.9845,0.9329,0.9578,1.0275,0.9485,0.9453,0.0,0.0,0.0,0.0,0.0,0.0,0.0,0.0,0.0,0.0,0.0,0.0,0.0,0.0,0.0,0.0,0.0,2.0499,2.0273,2.0291,1.9333,1.8301,1.8028,1.6971,0.0,1.5547,1.6128,1.6453,1.5649,1.6141,1.6625,1.6418,1.8083,1.9297,1.8929,2.1054,2.3301,2.5063,2.5258,2.606,2.8184,2.873,2.9141,2.9618,3.0,3.043,3.0859,3.0898,3.0898,3.0898,3.0898,3.0898,3.0898,3.0898,3.0898,3.0898,3.0898,3.0898,3.0898,3.0898,3.0898,3.0898,3.0898,3.1133,3.1494,3.1484,3.1738,3.2159,3.2159,3.2159,3.2159,3.2179,3.2198,3.2198,0.0,0.0,0.0,0.0,0.0,0.0,0.0,0.0,0.0,0.0,1.0545,1.0636,1.0887,0.9606,0.8926,0.0,0.0,0.0,0.0,0.0,0.0,0.0,0.0,0.0,0.985,1.0694,1.243,1.5079,1.6757,1.7984,1.8779,1.8262,1.6974,1.5035,1.3581,1.1659,0.9497,0.9204,0.9445,1.0008,0.9805,0.9792,0.0,0.0,0.0,0.0,1.2346,1.3483,0.0,0.0,0.0,0.0,0.0,0.0,0.0,0.0,1.5856,1.6362,1.7481,0.0,1.7208,1.742,1.6803,1.6421,0.0,1.6603,1.5688,1.6147,1.6492,1.6629,1.6434,1.657,1.721,1.8769,1.9981,2.0957,2.1503,2.2947,2.4746,2.6842,2.6758,2.7266,2.9129,2.9383,2.9618,3.0019,3.0469,3.0781,3.0879,3.0898,3.0898,3.0898,3.0898,3.0898,3.0898,3.0898,3.0898,3.0898,3.0898,3.0898,3.0898,3.0898,3.0898,3.0898,3.0898,3.1133,3.1474,3.1172,3.1289,3.168,3.168,3.168,3.1719,3.2081,3.2198,3.2159,0.0,0.0,0.0,0.0,0.0,0.0,0.0,0.0,0.0,0.0,0.0,0.934,0.9173,0.8789,0.0,0.0,0.0,0.0,0.0,0.0,0.0,0.0,0.0,0.8832,1.0061,1.0629,1.2519,1.5799,1.6495,1.7805,1.9699,1.9078,1.7717,1.5694,1.3386,1.1517,1.0037,0.9549,0.9542,0.9868,0.9623,0.0,0.0,0.0,0.0,0.0,1.2195,1.3316,0.0,1.4818,1.5452,1.6045,0.0,0.0,0.0,0.0,1.5958,1.5974,1.6621,1.6795,1.6666,1.613,1.6197,1.6433,1.656,1.624,1.5931,1.5968,1.6371,1.657,1.618,1.6902,1.7759,1.8342,1.9982,2.1796,2.3457,2.4277,2.5293,2.692,2.6875,2.7246,2.8601,2.8894,2.9344,3.0137,3.0625,3.0898,3.0898,3.0898,3.0898,3.0898,3.0898,3.0898,3.0898,3.0898,3.0898,3.0898,3.0898,3.0898,3.0898,3.0898,3.0898,3.0898,3.1094,3.1191,3.125,3.1406,3.1504,3.1494,3.1494,3.1494,3.1523,3.1562,3.1612,3.1573,0.0,0.0,0.0,0.0,0.0,0.0,0.0,0.0,0.0,0.0,0.0,0.0,0.0,0.0,0.0,0.0,0.0,0.0,0.0,0.0,0.0,0.0,0.8515,0.8988,1.0365,1.015,1.1975,1.5934,1.6031,1.7372,1.9839,1.9483,1.8089,1.5749,1.2821,1.1275,1.0766,0.9984,0.9754,0.9868,0.9403,0.0,0.0,0.0,0.0,0.0,0.0,0.0,0.0,1.4692,1.5261,1.5703,1.5703,0.0,0.0,0.0,0.0,0.0,1.6731,1.7414,1.7473,1.5946,1.6504,1.7135,1.5997,1.6226,1.6496,1.5853,1.6336,1.6699,1.6162,1.7468,1.8383,1.7701,1.9943,2.2674,2.5239,2.5532,2.5825,2.668,2.6719,2.7076,2.7995,2.832,2.8984,3.0215,3.0664,3.0898,3.0898,3.0898,3.0898,3.0898,3.0898,3.0898,3.0898,3.0898,3.0898,3.0898,3.0898,3.0898,3.0898,3.0898,3.0898,3.0918,3.1269,0.0,3.1035,3.1807,3.1855,3.1494,3.1494,3.1455,3.1387,3.1016,3.0898,3.0898,0.0,0.0,0.0,0.0,0.0,0.0,0.0,0.0,0.0,0.0,0.0,0.0,0.0,0.0,0.0,0.0,0.0,0.0,0.0,0.0,0.0,0.9032,0.8472,0.9285,1.1729,1.1037,1.261,1.6547,1.7123,1.8484,2.0548,2.1048,1.947,1.6128,1.3649,1.1803,1.0445,1.002,0.9862,0.9893,0.9818,0.0,0.0,0.0,0.0,0.0,0.0,0.0,0.0,1.4557,1.5261,1.5703,1.5703,0.0,0.0,0.0,0.0,0.0,1.7619,1.8324,1.8523,1.6772,1.6496,1.6779,1.7177,1.7357,1.7399,1.7288,1.7444,1.7941,1.8936,1.8831,1.926,2.1269,2.3223,2.5278,2.7506,2.7526,2.7604,2.8437,2.8223,2.8476,2.9687,2.9579,2.9794,3.0703,3.0859,3.0898,3.0898,3.0898,3.0898,3.0898,3.0898,3.0898,3.0898,3.0898,3.0898,3.0898,3.0898,3.0898,3.0898,3.0898,3.0898,3.0898,0.0,3.1152,3.1426,3.1562,3.1582,3.1494,3.1494,3.1309,3.0976,3.0918,3.0898,3.0898,0.0,0.0,0.0,0.0,0.0,0.0,0.0,0.0,0.0,0.0,0.0,0.0,0.0,0.0,0.0,0.0,0.0,0.0,0.0,0.0,0.8685,0.9961,0.9723,1.0485,1.2433,1.2794,1.4716,1.8326,1.972,2.0857,2.1734,1.9723,1.7549,1.5224,1.2657,1.1097,1.0378,1.004,0.9893,0.9893,0.0,0.0,0.0,0.0,0.0,0.0,0.0,0.0,0.0,0.0,1.5261,1.5804,1.6432,0.0,0.0,0.0,0.0,0.0,1.7375,1.7463,1.7427,1.7245,1.8266,1.9179,1.8733,1.9313,1.9778,1.9085,1.9014,1.9131,1.9473,2.0191,2.1469,2.3834,2.4898,2.6016,2.7741,2.8015,2.8093,2.8223,2.8262,2.8516,2.9121,2.9199,2.9687,3.0801,3.0898,3.0898,3.0898,3.0898,3.0898,3.0898,3.0898,3.0898,3.0898,3.0898,3.0898,3.0898,3.0898,3.0898,3.0898,3.0898,3.0898,3.0918,0.0,3.1562,3.1533,3.2235,3.2285,3.1875,3.1875,3.1601,3.1211,3.0976,3.0898,3.0918,0.0,0.0,0.0,0.0,0.0,0.0,0.0,0.0,0.0,0.0,0.0,0.0,0.0,0.0,0.0,0.0,0.0,0.0,0.0,0.8114,0.8865,1.0523,1.1032,1.2024,1.3681,1.4722,1.6795,1.9938,2.1924,2.2912,2.2812,1.8691,1.6005,1.4562,1.1865,1.0486,1.0193,0.9849,0.9717,0.9723,0.0,0.0,0.0,0.0,0.0,0.0,0.0,0.0,0.0,0.0,0.0,0.0,0.0,0.0,0.0,1.74,1.7174,1.6827,1.7388,1.6943,1.6594,1.7773,1.9279,2.0241,1.9352,2.0533,2.1547,2.0601,2.0678,2.0858,2.062,2.2233,2.4085,2.5609,2.6206,2.6811,2.7858,2.8171,2.821,2.7878,2.821,2.8476,2.8574,2.8965,2.9687,3.0801,3.0898,3.0898,3.0898,3.0898,3.0898,3.0898,3.0898,3.0898,3.0898,3.0898,3.0898,3.0898,3.0898,3.0898,3.0898,3.0996,3.1035,3.1074,3.1866,3.2031,3.1894,3.2871,3.2891,3.2335,3.2237,3.1866,3.1328,3.1016,3.0898,3.0957,0.0,0.0,0.0,0.0,0.0,0.0,0.0,0.0,0.0,0.0,0.0,0.0,0.0,0.0,0.0,0.0,0.0,0.0,0.0,0.8503,0.9182,0.9939,1.1681,1.3825,1.6361,1.6502,1.7891,2.0628,2.2592,2.3531,2.346,1.9792,1.7061,1.5145,1.2547,1.0751,0.9623,0.9299,0.9163,0.9208,0.9698,0.0,0.0,0.0,0.0,0.0,0.0,0.0,0.0,0.0,0.0,0.0,0.0,0.0,1.7437,1.7978,1.7763,1.7551,1.8583,1.8044,1.7462,1.8563,1.7846,1.7086,1.7919,1.9741,2.1265,2.13,2.2441,2.3649,2.4284,2.5754,2.6744,2.6404,2.7656,2.8703,2.8781,2.8516,2.8281,2.8262,2.8613,2.9043,2.9461,2.9863,3.0332,3.0859,3.0898,3.0898,3.0898,3.0898,3.0898,3.0898,3.0898,3.0898,3.0898,3.0898,3.0898,3.0898,3.0898,3.0898,3.0898,3.1289,3.1465,3.1474,3.1973,3.2394,3.2715,3.2793,3.2812,3.2715,3.2355,3.169,3.0937,3.0898,3.0898,3.0957,0.0,0.0,0.0,0.0,0.0,0.0,0.0,0.0,0.0,0.0,0.0,0.0,0.0,0.0,0.0,0.0,0.0,0.0,0.0,0.8128,0.9188,1.1229,1.2279,1.3964,1.651,1.829,2.0469,2.314,2.3857,2.4018,2.3509,1.8865,1.6088,1.4867,1.1844,1.0431,1.0238,0.9799,0.9799,1.0087,0.9962,0.9893,0.0,0.0,0.0,0.0,0.0,0.0,0.0,0.0,1.5236,1.6045,1.6887,1.7501,1.7928,1.8154,1.7827,1.7483,1.7848,1.7633,1.7437,1.8064,1.7812,1.805,2.039,2.2871,2.5004,2.6143,2.6657,2.6657,2.5772,2.6562,2.7208,2.6836,2.7754,2.8535,2.8535,2.8613,2.8672,2.8672,2.9297,2.9785,2.9941,3.0371,3.0703,3.0879,3.0898,3.0898,3.0898,3.0898,3.0898,3.0898,3.0898,3.0898,3.0898,3.1152,3.1269,3.1269,3.1269,3.1269,3.1289,3.1719,3.1777,3.1533,3.2246,3.2656,3.2812,3.3066,3.3027,3.2754,3.2374,3.1797,3.1309,3.1582,3.1523,3.1426,0.0,0.0,0.0,0.0,0.0,0.0,0.0,0.0,0.0,0.0,0.0,0.0,0.0,0.0,0.0,0.0,0.0,0.0,0.7966,0.8131,0.9235,1.1557,1.2402,1.391,1.6329,1.9,2.1404,2.3488,2.3822,2.3564,2.2672,1.8126,1.5694,1.4963,1.1991,1.0883,1.1184,1.0457,1.0256,1.0432,1.0231,1.0156,0.0,0.0,0.0,0.0,0.0,0.0,0.0,0.0,1.5085,1.612,1.6812,1.7565,1.8217,1.8393,1.8455,1.8395,1.8142,1.7881,1.7836,1.8456,1.8312,1.8887,2.2269,2.4443,2.628,2.8168,2.8503,2.8095,2.6842,2.6771,2.6941,2.6993,2.75,2.7988,2.8262,2.8652,2.8898,2.8898,2.9668,3.0195,3.0195,3.0625,3.0898,3.0898,3.0898,3.0898,3.0898,3.0898,3.0898,3.0898,3.0898,3.0898,3.0898,3.1309,3.1552,3.1719,3.1855,3.1855,3.1738,3.2198,3.2207,3.1953,3.2676,3.2988,3.3008,3.3301,3.3184,3.2773,3.2511,3.2187,3.1953,3.2246,3.2266,3.2266,0.0,0.0,0.0,0.0,0.0,0.0,0.0,0.0,0.0,0.0,0.0,0.0,0.0,0.0,0.0,0.0,0.0,0.0,0.8085,0.8599,0.9372,1.0475,1.1974,1.3818,1.6044,1.8433,2.0144,2.1115,2.2154,2.2079,2.0894,1.7907,1.6216,1.5601,1.3403,1.2429,1.2328,1.1184,1.0413,0.9975,1.0482,1.0701,1.0819,0.0,0.0,0.0,0.0,0.0,0.0,0.0,1.4893,1.5286,1.7476,1.8179,1.8292,1.8832,1.9786,2.0541,1.9923,1.9146,1.8819,2.0068,1.9214,1.9062,2.293,2.3671,2.4136,2.6288,2.7208,2.7656,2.7677,2.6729,2.6174,2.689,2.7031,2.7324,2.8184,2.8652,2.8898,2.8898,2.9687,3.0195,3.0195,3.0625,3.0898,3.0898,3.0898,3.0898,3.0898,3.0898,3.0898,3.0898,3.0898,3.0898,3.0898,3.1309,3.1738,3.2198,3.2598,3.2609,3.2218,3.2598,3.2793,3.2812,3.3242,3.3386,3.3386,3.3386,3.3184,3.2793,3.2793,3.2793,3.2793,3.2812,3.3066,3.3464,0.0,0.0,0.0,0.0,0.0,0.0,0.0,0.0,0.0,0.0,0.0,0.0,0.0,0.0,0.0,0.0,0.0,0.0,0.8123,0.8371,0.9212,1.0728,1.1761,1.3016,1.4587,1.6298,1.8364,2.083,2.1135,2.0402,1.8643,1.6607,1.5814,1.6046,1.47,1.3808,1.3236,1.2301,1.17,1.1349,1.0874,1.0958,1.1399,0.0,0.0,0.0,0.0,0.0,0.0,0.0,0.0,0.0,1.613,1.725,1.8217,1.8393,1.8681,1.8697,1.7555,1.8323,1.9377,1.9182,2.0159,2.1854,2.4528,2.5607,2.6786,2.9413,3.0438,3.0151,2.7904,2.7911,2.8,2.7151,2.7519,2.8105,2.8652,2.9101,2.9492,2.9785,3.0332,3.0684,3.0684,3.082,3.0898,3.0898,3.0898,3.0898,3.0898,3.0898,3.0898,3.0898,3.0898,3.0898,3.0898,3.1651,3.2061,3.2218,3.2891,3.3008,3.2617,3.3047,3.3066,3.2812,3.3242,3.3386,3.3386,3.3386,3.3308,3.3242,3.3242,3.3242,3.3281,3.3574,3.3769,3.3984,0.0,0.0,0.0,0.0,0.0,0.0,0.0,0.0,0.0,0.0,0.9465,0.9704,0.0,0.0,0.0,0.0,0.0,0.0,0.8119,0.8527,0.9479,1.1075,1.1533,1.2438,1.3879,1.5261,1.6509,1.7565,1.8595,1.8123,1.6287,1.6576,1.6696,1.6627,1.7097,1.6464,1.4998,1.4384,1.3587,1.2723,1.2241,1.2128,1.2303,0.0,0.0,0.0,0.0,0.0,0.0,0.0,0.0,0.0,1.5211,1.6532,1.8053,1.8944,1.966,2.0023,1.9526,2.0436,2.1462,2.1066,2.1748,2.3103,2.5445,2.6816,2.8307,3.085,3.099,3.0338,2.9217,2.8674,2.8206,2.7604,2.7676,2.8047,2.8781,2.9297,2.9755,3.0137,3.0605,3.0898,3.0898,3.0898,3.0898,3.0898,3.0898,3.0898,3.0898,3.0898,3.0898,3.0898,3.0898,3.0898,3.0898,3.1768,3.2198,3.2218,3.3027,3.325,3.3047,3.3269,3.3281,3.3066,3.3289,3.3386,3.3386,3.3386,3.3386,3.3386,3.3386,3.3601,3.3965,3.4219,3.4583,3.4922,0.0,0.0,0.0,0.0,0.0,0.0,0.0,0.0,0.0,0.9325,0.9127,0.9379,0.0,0.0,0.0,0.9764,0.8702,0.8038,0.8085,0.885,0.9939,1.1357,1.1443,1.2235,1.3855,1.4975,1.4563,1.2615,1.518,1.5595,1.4061,1.728,1.821,1.7283,1.9974,1.9618,1.7052,1.6677,1.5515,1.387,1.3984,1.3723,1.3326,1.3925,0.0,0.0,0.0,0.0,0.0,0.0,0.0,0.0,1.4717,1.6015,1.7738,1.9837,2.1562,2.2901,2.3585,2.3921,2.4149,2.4451,2.3739,2.3594,2.6001,2.7441,2.8879,3.0907,2.9979,2.9309,3.0964,2.9123,2.7577,2.8191,2.7676,2.7591,2.8781,2.9355,2.9813,3.0215,3.0625,3.0898,3.0898,3.0898,3.0898,3.0898,3.0898,3.0898,3.0898,3.0898,3.0898,3.0898,3.0898,3.0918,3.0937,3.1788,3.2218,3.2257,3.3047,3.3386,3.3386,3.3386,3.3386,3.3386,3.3386,3.3386,3.3386,3.3386,3.3386,3.3386,3.3457,3.3984,3.4707,3.4746,3.5293,3.5982,0.0,0.0,0.0,0.0,0.0,0.0,0.0,0.0,0.8821,0.9343,0.9184,0.9367,1.0149,0.9909,0.0,0.9152,0.8937,0.8639,0.8123,0.8908,0.9767,1.0691,1.2536,1.3891,1.4556,1.3844,1.2729,1.1241,1.3357,1.3959,1.3164,1.649,1.7883,1.7692,2.036,1.9785,1.6734,1.5665,1.4576,1.3575,1.3453,1.3524,1.3817,1.4419,1.428,0.0,0.0,0.0,0.0,0.0,0.0,0.0,1.4582,1.5728,1.6963,1.8329,1.9364,2.0125,2.05,2.1808,2.3226,2.3827,2.5307,2.6724,2.7291,2.7878,2.8645,2.9768,3.1416,3.197,2.9855,2.9825,2.9723,2.8488,2.8418,2.873,2.9383,2.9805,3.0234,3.0684,3.082,3.0898,3.0898,3.0898,3.0898,3.0898,3.0898,3.0898,3.0898,3.0898,3.0898,3.0898,3.0898,3.1055,3.1387,3.1925,3.2374,3.2656,3.3184,3.3386,3.3386,3.3386,3.3386,3.3386,3.3386,3.3386,3.3386,3.3386,3.3386,3.3425,3.3809,3.4238,3.4746,3.5117,3.5566,3.5982,0.0,0.0,0.0,0.0,0.0,0.0,0.0,0.0,0.8894,0.9428,0.9263,0.9362,1.0031,0.9697,0.0,0.0,0.8659,0.8378,0.8026,0.9133,1.0234,1.1273,1.3035,1.3655,1.2897,1.2209,1.1191,0.9879,1.1251,1.2388,1.334,1.6681,1.8546,1.9235,2.1275,2.0382,1.7315,1.6593,1.5574,1.4435,1.4326,1.4341,1.4347,1.4132,1.3839,1.3505,1.2998,0.0,0.0,0.0,0.0,0.0,0.0,0.0,1.6436,1.8092,1.8761,1.9412,2.1442,2.2821,2.388,2.4799,2.6392,2.7585,2.7174,2.8249,2.9532,3.014,3.1599,3.2378,3.1163,3.0994,3.0479,2.8829,2.8742,2.9141,2.9785,3.0059,3.0371,3.084,3.0898,3.0898,3.0898,3.0898,3.0898,3.0898,3.0898,3.0898,3.0898,3.0898,3.0898,3.0898,3.0898,3.0996,3.1211,3.1885,3.2316,3.2531,3.3125,3.3386,3.3386,3.3386,3.3386,3.3386,3.3386,3.3386,3.3386,3.3386,3.3386,3.3457,3.3938,3.4368,3.4766,3.5215,3.5664,3.5982,0.0,0.0,0.0,0.0,0.0,0.0,0.0,0.0,0.0,0.9366,0.9198,0.9239,0.9754,0.9186,0.8741,0.0,0.0,0.0,0.7914,0.9318,1.0753,1.2061,1.2978,1.2736,1.1181,1.0822,1.0174,0.9242,0.9884,1.173,1.4716,1.7437,1.9352,2.0578,2.1944,2.0763,1.7774,1.7421,1.6382,1.4936,1.5007,1.4783,1.4341,1.353,1.3141,1.2956,1.2546,1.2689,1.3073,1.3173,0.0,0.0,0.0,0.0,1.607,1.7879,1.8395,1.9094,2.2622,2.3953,2.4695,2.6138,2.7057,2.7428,2.6881,2.8686,3.0558,3.0916,3.1641,3.235,3.2745,3.2001,3.0808,2.9179,2.9043,2.9394,3.0098,3.0273,3.0449,3.084,3.0898,3.0898,3.0898,3.0898,3.0898,3.0898,3.0898,3.0898,3.0898,3.0898,3.0898,3.0898,3.0898,3.0918,3.0996,3.1807,3.2237,3.2316,3.3066,3.3386,3.3386,3.3386,3.3386,3.3386,3.3386,3.3386,3.3386,3.3386,3.3386,3.3445,3.3984,3.4427,3.4766,3.5312,3.5723,3.5982,0.0,0.0,0.0,0.0,0.0,0.0,0.0,0.0,0.0,0.0,0.8795,0.8737,0.8632,0.8374,0.8149,0.8049,0.7944,0.7914,0.7914,0.0,0.0,1.1789,1.1991,1.2209,1.2525,1.0867,1.0199,1.0553,1.1221,1.3765,1.8074,1.8484,1.9121,1.9878,2.1225,1.9862,1.6474,1.5291,1.3943,1.2682,1.3018,1.2909,1.2603,1.303,1.283,1.2333,1.238,1.2446,1.2588,1.3056,1.3584,0.0,0.0,0.0,1.5753,1.6045,1.6492,1.7251,1.9003,2.14,2.3971,2.6314,2.7012,2.7266,2.7891,2.9233,3.0454,3.0889,3.2986,3.4009,3.1734,3.208,3.1897,2.9315,2.9531,3.0059,3.0176,3.0547,3.082,3.0879,3.0898,3.0898,3.0898,3.0898,3.0898,3.0898,3.0898,3.0898,3.0898,3.0898,3.0898,3.0898,3.0898,3.1074,3.1426,3.1944,3.2374,3.2715,3.3184,3.3386,3.3386,3.3386,3.3386,3.3386,3.3386,3.3386,3.3386,3.3386,3.3386,3.3464,3.4297,3.4648,3.4805,3.5625,3.5942,3.5982,0.0,0.0,0.0,0.0,0.0,0.0,0.0,0.0,0.0,0.0,0.0,0.9066,0.9032,0.8748,0.8371,0.7951,0.7914,0.8068,0.8432,0.8998,0.9768,1.0683,1.0747,1.0692,1.0622,0.9777,0.9473,0.9734,1.1137,1.3968,1.8155,1.8912,2.0587,2.2921,2.1315,1.9568,1.7722,1.5514,1.4106,1.3329,1.2912,1.3906,1.5361,1.2969,1.3249,1.4643,1.2693,1.219,1.247,1.2893,1.3709,1.439,1.3491,0.0,0.0,0.0,1.4909,1.5781,1.922,2.2171,2.4691,2.6543,2.6986,2.7084,2.748,2.8231,2.9164,3.0355,3.159,3.2083,3.0831,3.1305,3.1296,2.9569,2.9805,3.0293,3.0547,3.0762,3.0898,3.0898,3.0898,3.0898,3.0898,3.0898,3.0898,3.0898,3.0898,3.0898,3.0898,3.0898,3.0898,3.0898,3.0898,3.0976,3.1172,3.1601,3.2129,3.2793,3.2988,3.3184,3.3386,3.3386,3.3386,3.3386,3.3386,3.3386,3.3386,3.3386,3.3555,3.3848,3.4453,3.4863,3.5156,3.5801,3.5982,3.5982,0.0,0.0,0.0,0.0,0.0,0.0,0.0,0.0,0.0,0.0,0.0,0.955,0.9567,0.0,0.0,0.0,0.7913,0.8098,0.8616,0.88,0.9122,0.9619,0.9649,0.9413,0.892,0.889,0.898,0.9152,1.1256,1.4237,1.7989,1.9331,2.1874,2.5214,2.1764,1.9618,1.847,1.6077,1.4725,1.4147,1.3765,1.5246,1.7367,1.4653,1.5466,1.7668,1.4753,1.376,1.3795,1.3688,1.4176,1.4657,1.3551,1.3885,0.0,0.0,0.0,1.4744,1.9059,2.1668,2.3599,2.5472,2.5957,2.6147,2.6719,2.7469,2.837,2.9547,3.0068,3.0219,2.9978,3.0609,3.0845,2.99,3.0098,3.0488,3.084,3.0898,3.0898,3.0898,3.0898,3.0898,3.0898,3.0898,3.0898,3.0898,3.0898,3.0898,3.0898,3.0898,3.0898,3.0898,3.0898,3.0898,3.0898,3.1309,3.1894,3.2637,3.2734,3.2969,3.3262,3.378,3.3776,3.3386,3.3386,3.3386,3.3406,3.3535,3.3769,3.4153,3.4668,3.5078,3.5449,3.5859,3.6287,3.6674,0.0,0.0,0.0,0.0,0.0,0.0,0.0,0.0,0.0,0.0,0.0,0.9921,0.9808,0.9581,0.9109,0.8164,0.7984,0.7914,0.7944,0.8555,0.892,0.895,0.895,0.0,0.889,0.889,0.9212,0.9849,1.2442,1.5404,1.8672,2.001,2.2093,2.4575,2.2492,2.0031,1.7315,1.6233,1.5001,1.3971,1.5489,1.6033,1.6227,1.9112,2.0495,2.074,1.9604,1.8563,1.7507,1.6123,1.5229,1.4533,1.3521,1.3634,1.4022,0.0,0.0,0.0,1.668,1.7603,1.8716,2.2167,2.3164,2.3864,2.5957,2.7727,2.8831,2.8476,2.9408,3.0009,2.9142,3.0404,3.1271,3.0305,3.0547,3.0859,3.0879,3.0898,3.0898,3.0898,3.0898,3.0898,3.0898,3.0898,3.0898,3.0898,3.0898,3.0898,3.0898,3.0898,3.0898,3.0898,3.0898,3.0898,3.0898,3.1309,3.1758,3.2237,3.2598,3.2812,3.2894,3.481,3.486,3.3386,3.3386,3.3386,3.3425,3.3867,3.4095,3.4192,3.5019,3.5371,3.5449,3.5859,3.7059,3.8465,0.0,0.0,0.0,0.0,0.0,0.0,0.0,0.0,0.0,0.0,0.0,0.0,0.0,1.034,0.9593,0.8705,0.8168,0.7914,0.7914,0.8128,0.8252,0.8252,0.8252,0.8252,0.8252,0.8676,0.9242,0.9909,1.2095,1.4633,1.7443,1.8775,2.0159,2.1425,2.0747,2.0083,1.9289,1.6398,1.5126,1.5184,1.6447,1.8262,2.0391,2.1756,2.3233,2.4363,2.2937,2.0788,1.855,1.7878,1.6787,1.5505,1.4189,1.411,1.4304,1.3444,1.3915,1.5118,1.7019,1.8057,1.9243,2.1977,2.2981,2.3675,2.5108,2.6191,2.6923,2.7055,2.7215,2.7676,2.8714,3.0452,3.1395,3.0373,3.1408,3.1977,3.1025,3.0898,3.0898,3.0898,3.0898,3.0898,3.0898,3.0898,3.0898,3.0898,3.0898,3.0898,3.0898,3.0898,3.0898,3.0898,3.0898,3.0898,3.0898,3.1035,3.1465,3.2198,3.3357,3.4186,3.4739,3.5467,3.5468,3.4871,3.3839,3.3386,3.3425,3.3887,3.4271,3.4531,3.5156,3.623,3.7338,3.6344,3.7809,4.0116,0.0,0.0,0.0,0.0,0.0,1.0001,1.0001,0.9574,0.9715,1.093,0.0,0.0,0.0,0.0,1.0334,0.9004,0.8698,0.848,0.8248,0.8454,0.8484,0.8248,0.8454,0.8454,0.8248,0.9083,0.9764,1.0199,1.195,1.3795,1.5771,1.7302,1.8395,1.9031,1.8792,1.9331,2.0189,1.7366,1.6411,1.6921,1.8751,2.0627,2.2612,2.5046,2.6686,2.7553,2.6793,2.4721,2.2326,2.217,2.0823,1.8826,1.6442,1.5016,1.4072,1.3393,1.3957,1.5115,1.6466,1.7357,1.8578,2.1295,2.1618,2.1957,2.4647,2.4934,2.4996,2.6328,2.6602,2.7084,2.8828,3.0846,3.1878,3.0826,3.1589,3.2006,3.1025,3.0898,3.0898,3.0898,3.0898,3.0898,3.0898,3.0898,3.1112,3.1594,3.1623,3.1854,3.235,3.2379,3.215,3.1652,3.117,3.0898,3.0898,3.1551,3.1928,3.1983,3.4399,3.5555,3.5605,3.6301,3.6608,3.6569,3.5686,3.4667,3.3672,3.4101,3.4531,3.5046,3.6057,3.7343,3.8531,3.7955,3.9562,4.1884,0.0,0.0,0.0,0.0,1.0518,1.0068,1.0038,1.0035,1.0342,1.1066,0.0,0.0,0.0,0.0,0.0,0.9214,0.9624,0.9679,0.9004,0.9546,0.9632,0.8962,0.9563,0.9589,0.895,1.0174,1.0812,1.0812,1.2125,1.3118,1.3812,1.5704,1.6965,1.7601,1.6987,1.781,1.9582,1.901,1.8753,1.8988,2.2348,2.2955,2.2562,2.9029,3.0881,3.0159,3.1279,3.0587,2.9126,2.9056,2.7277,2.427,2.0062,1.6196,1.3223,1.3198,1.3643,1.4233,0.0,0.0,0.0,1.974,1.8806,1.855,2.4386,2.4027,2.3303,2.6309,2.7598,2.8457,2.9422,3.1518,3.2739,3.1683,3.1221,3.0976,3.0918,3.0918,3.0928,3.0986,3.0928,3.0928,3.1025,3.0995,3.1585,3.3049,3.3162,3.3789,3.5206,3.5288,3.4626,3.3162,3.171,3.0937,3.0898,3.2897,3.3123,3.1632,3.5697,3.6861,3.5426,3.7375,3.8283,3.8328,3.8799,3.7205,3.4334,3.4714,3.5145,3.5744,3.7856,3.8696,3.896,4.0602,4.2296,4.3762,0.0,0.0,0.0,1.1201,1.14,1.1468,1.089,1.1299,1.1942,0.0,0.0,0.0,1.4862,1.4678,1.379,1.194,1.1949,1.1534,1.0196,1.0131,1.0025,0.9853,0.987,0.9819,0.9619,1.0409,1.0812,1.0812,1.167,1.2424,1.3089,1.4111,1.4948,1.565,1.6891,1.7443,1.7473,1.6373,1.6998,1.8864,2.0783,2.3033,2.5704,2.9896,3.2026,3.3073,3.527,3.4242,3.1899,3.2459,2.9449,2.445,1.888,1.562,1.3778,1.3341,1.391,1.4702,1.4868,0.0,0.0,0.0,0.0,0.0,2.0706,2.1287,2.199,2.4212,2.5117,2.6328,2.909,3.1092,3.2259,3.2057,3.2823,3.3048,3.1977,3.1543,3.1741,3.2822,3.1736,3.1759,3.3894,3.3127,3.3106,0.0,3.4681,3.4875,3.5288,3.5288,3.4626,3.3162,3.2701,3.1998,3.0928,3.2897,3.3822,3.3714,3.7511,3.9278,3.911,3.9686,4.0142,4.0463,3.9439,3.8905,3.875,3.8848,3.8946,3.9205,4.0113,4.1223,4.2178,4.1469,4.3075,4.5403,0.0,0.0,1.3257,1.3405,1.3811,1.4077,1.3938,1.4305,1.4648,0.0,0.0,0.0,1.7526,1.7195,1.6223,1.4392,1.4197,1.3377,1.1576,1.1476,1.1226,1.0652,1.066,1.0563,1.0289,1.0882,1.1211,1.1211,1.161,1.2005,1.24,1.3083,1.3592,1.4023,1.5141,1.5755,1.5838,1.4812,1.6039,1.8945,2.1701,2.3852,2.5824,3.0239,3.2137,3.295,3.6389,3.5892,3.3926,3.6349,3.282,2.6528,2.1677,1.8201,1.5676,1.4313,1.4874,1.5889,1.5628,1.6371,1.7389,1.8204,0.0,0.0,2.0953,2.1818,2.2894,2.5873,2.7118,2.8511,3.1185,3.1897,3.2274,3.2992,3.3315,3.3165,3.232,3.1797,3.2048,3.3518,3.2588,3.2729,3.5068,3.4718,3.4873,3.6131,3.6635,3.7071,3.7432,3.6657,3.5535,3.4069,3.4013,3.3416,3.2145,3.474,3.5994,3.5836,3.9481,4.1015,4.0592,4.0592,4.1278,4.2331,4.0967,4.1226,4.2602,4.2845,4.2078,4.0905,4.1865,4.2832,4.3669,4.3419,4.4583,4.615,0.0,0.0,1.5117,1.6654,1.6998,1.7331,1.8059,1.8256,1.8059,0.0,1.8876,2.0235,2.0814,2.0196,1.8937,1.6949,1.6536,1.5478,1.3383,1.3345,1.2817,1.1582,1.1846,1.1695,1.0982,1.1736,1.2021,1.179,1.1923,1.1953,1.191,1.243,1.2741,1.2795,1.2795,1.3508,1.4669,1.4297,1.6091,1.9615,2.3766,2.5047,2.5076,3.0628,3.2228,3.2078,3.6417,3.6896,3.6074,3.9906,3.6446,2.9944,2.6378,2.2412,1.8584,1.6008,1.6443,1.7613,1.6963,1.7565,1.8581,1.9409,1.8191,0.0,2.2615,2.3444,2.4341,2.832,3.0221,3.1649,3.3283,3.2555,3.2076,3.3274,3.2734,3.2226,3.2502,3.2126,3.2482,3.4186,3.3827,3.4093,3.5803,3.6193,3.6787,3.7827,3.8824,3.9707,4.0547,3.8843,3.7147,3.568,3.5626,3.5163,3.4153,3.7504,3.8742,3.7914,4.1371,4.2263,4.0851,4.0923,4.2009,4.383,4.3017,4.3755,4.5623,4.61,4.4521,4.1915,4.3419,4.3979,4.4189,4.5732,4.6301,4.6301,1.4888,1.5189,1.6035,1.8104,1.8972,1.9608,2.0405,2.1042,2.1373,2.1238,2.2271,2.3427,2.4439,2.4132,2.3097,2.1264,1.9927,1.8537,1.6897,1.5014,1.3833,1.3548,1.3411,1.289,1.1938,1.3436,1.3433,1.179,1.2603,1.2873,1.2615,1.219,1.2274,1.2795,1.2795,1.3238,1.4088,1.5539,1.8647,2.2672,2.3135,2.598,3.0255,3.3036,3.5579,3.7985,4.0505,4.1523,4.1474,4.0199,3.7451,3.3524,2.757,2.4309,2.202,1.8563,1.8743,1.9837,1.8794,1.8995,1.9334,1.8681,1.8821,0.0,1.8107,1.9034,2.0549,2.2205,2.3326,2.4667,2.6802,2.8255,2.8791,2.7803,3.0028,3.252,3.4354,3.4224,3.5066,3.8239,3.6776,3.6749,3.9829,3.8752,3.8622,4.0418,4.0749,4.0956,4.1125,4.0361,3.9245,3.7769,3.7715,3.7054,3.569,3.8433,3.9736,3.9547,4.1879,4.2821,4.2541,4.2988,4.3629,4.4464,4.4752,4.5355,4.615,4.6276,4.5908,4.5342,4.5671,4.5793,4.5823,4.618,4.6301,4.6301,1.562,1.6204,1.7523,2.0128,2.1204,2.232,2.4222,2.4823,2.4916,2.4552,2.527,2.6235,2.7181,2.6429,2.5203,2.353,2.2016,2.0352,1.8471,1.6546,1.5174,1.4431,1.3972,1.3525,1.301,1.3862,1.363,1.231,1.2797,1.2792,1.2304,1.1975,1.3041,1.5171,1.3538,1.4257,1.6727,1.6398,1.8544,2.2353,2.4698,2.8607,3.3245,3.5565,3.7481,3.92,4.1572,4.3229,4.3928,4.1294,3.86,3.5497,3.0589,2.7273,2.4499,2.0907,2.0815,2.1594,2.0213,2.0238,2.0439,1.9648,1.961,0.0,0.0,2.0444,2.1768,2.3921,2.4308,2.4852,2.6776,2.6943,2.6662,2.6392,2.8984,3.1422,3.2447,3.3703,3.5685,3.8963,3.8288,3.8572,4.1062,4.0659,4.0772,4.2053,4.1628,4.1428,4.1731,4.1202,4.0209,3.8752,3.9404,3.9224,3.8045,4.0074,4.1237,4.1506,4.2529,4.314,4.3388,4.3689,4.4267,4.507,4.5372,4.5799,4.6301,4.6301,4.6301,4.6301,4.6301,4.6301,4.6301,4.6301,4.6301,4.6301,1.6175,1.7214,1.9101,2.1806,2.3038,2.4526,2.719,2.7722,2.7689,2.7402,2.8374,2.9456,3.0398,2.9914,2.8967,2.7613,2.615,2.4113,2.1245,1.9512,1.8033,1.6849,1.5228,1.4695,1.5454,1.4699,1.3806,1.2795,1.2865,1.2593,1.2005,1.185,1.3639,1.6854,1.4849,1.5874,1.9061,1.7971,1.9459,2.2971,2.753,3.0941,3.3679,3.6703,3.8063,3.8829,4.2002,4.4068,4.4885,4.2271,3.9523,3.6605,3.3133,2.9989,2.685,2.3202,2.2884,2.3386,2.1633,2.1557,2.1812,2.1055,2.0646,2.0792,0.0,0.0,0.0,2.6113,2.5879,2.5628,2.705,2.5524,2.4325,2.5083,2.7243,2.8813,2.8839,3.1436,3.4516,3.7712,3.8833,3.9764,4.0744,4.1019,4.1461,4.2227,4.1133,4.0759,4.1604,4.152,4.0913,3.9716,4.0859,4.1136,4.0447,4.1709,4.2562,4.3014,4.3115,4.3363,4.3815,4.4041,4.4618,4.5497,4.5598,4.5899,4.6301,4.6301,4.6301,4.6301,4.6301,4.6301,4.6301,4.6301,4.6301,4.6301,1.7687,1.8729,2.0278,2.2009,2.3451,2.4948,2.6564,2.7393,2.8263,2.9557,3.207,3.428,3.5746,3.8091,3.9229,3.8418,3.6997,3.4055,2.9151,2.6185,2.4534,2.4365,1.9242,1.7969,2.1445,1.7889,1.4943,1.2795,1.3091,1.3049,1.2675,1.2065,1.2682,1.435,1.6899,1.7669,1.7324,2.1725,2.5842,2.9535,3.1346,3.0941,2.9744,3.4143,3.6896,3.905,4.4077,4.5633,4.4885,4.2271,3.9818,3.7113,3.2567,3.0942,2.9871,2.5664,2.5226,2.5628,2.3436,2.3261,2.3351,2.1874,2.2114,2.2301,2.0703,0.0,2.1094,2.1471,0.0,2.0778,2.1496,0.0,0.0,1.9937,2.1902,2.377,2.4583,2.7241,3.0604,3.4693,3.8241,4.0016,3.9245,3.8035,3.7981,3.9592,3.8172,3.7933,3.9544,4.1181,4.203,4.1841,4.2003,4.2055,4.1941,4.2579,4.2939,4.3014,4.3463,4.374,4.384,4.4844,4.5372,4.5552,4.5999,4.625,4.6301,4.6301,4.6301,4.6301,4.6301,4.6301,4.6301,4.6301,4.6301,4.6301,1.7952,1.8994,2.0481,2.2043,2.3173,2.4669,2.6987,2.8712,3.0176,3.1234,3.2814,3.4607,3.6592,3.7122,3.7889,3.9343,3.8125,3.5757,3.2239,2.9431,2.6938,2.4769,2.0804,1.9243,2.0432,1.7935,1.5617,1.3657,1.3391,1.2884,1.2214,1.234,1.4107,1.7296,1.9082,2.1475,2.4287,2.5734,2.753,2.9564,3.1256,3.1046,3.0342,3.6148,3.9338,4.1164,4.4526,4.5304,4.4736,4.4796,4.1784,3.7985,3.793,3.4668,3.0597,2.9295,2.7893,2.6447,2.4848,2.5445,2.5863,2.3305,2.3597,2.391,2.1441,2.0283,1.9987,2.0954,0.0,0.0,0.0,0.0,0.0,0.0,2.1466,2.3098,2.2214,2.5889,2.9582,3.2031,0.0,0.0,0.0,0.0,0.0,0.0,3.6057,3.6522,3.9148,4.0559,4.172,4.2635,4.2663,4.2663,4.2663,4.2889,4.3014,4.3014,4.3539,4.3966,4.4292,4.5121,4.5673,4.5974,4.62,4.6301,4.6301,4.6301,4.6301,4.6301,4.6301,4.6301,4.6301,4.6301,4.6301,4.6301,1.8459,1.9439,2.0623,2.1502,2.2801,2.4635,2.7384,2.9557,3.1393,3.2733,3.4621,3.674,3.9242,3.9605,4.0604,4.3024,4.2453,4.0663,3.7572,3.4499,3.201,3.0316,2.4513,2.2048,2.3693,1.9495,1.6473,1.4881,1.3944,1.3204,1.2634,1.2939,1.5148,1.8942,2.0528,2.3939,2.853,2.9009,3.0027,3.142,3.302,3.3708,3.4248,3.8691,4.1463,4.3169,4.5125,4.5424,4.5014,4.6112,4.3192,0.0,4.1239,3.7651,3.2832,3.3175,3.1582,2.9358,2.7729,2.815,2.8253,2.4824,2.4504,2.4397,2.2067,2.0558,2.0074,2.1443,2.0626,0.0,0.0,0.0,1.9622,1.9083,0.0,2.2071,2.0452,2.3537,2.6548,2.8129,2.8836,0.0,0.0,0.0,0.0,0.0,0.0,3.4074,3.7644,3.9599,4.1184,4.2479,4.2838,4.3014,4.3014,4.3014,4.3014,4.3014,4.3689,4.4213,4.4614,4.5372,4.5924,4.6301,4.6301,4.6301,4.6301,4.6301,4.6301,4.6301,4.6301,4.6301,4.6301,4.6301,4.6301,4.6301,1.9805,2.0602,2.0947,2.0211,2.2496,2.5211,2.7452,2.9118,3.1181,3.4043,3.8814,4.3048,4.6066,5.0175,5.3038,5.3929,5.4666,5.2926,4.7785,4.3288,4.2408,4.594,3.2127,2.7918,3.5464,2.4339,1.7753,1.6343,1.4943,1.4418,1.4699,1.4058,1.4852,1.6958,2.0887,2.38,2.6051,3.115,3.516,3.817,3.8853,4.0307,4.1901,4.0816,4.2013,4.4506,4.6531,4.6779,0.0,4.4805,4.3221,0.0,0.0,3.8726,3.8041,3.7052,3.6669,3.5939,3.2887,3.1551,3.0118,2.6355,2.4434,2.3132,2.1878,2.1516,2.1568,2.2171,2.182,2.1432,2.1432,2.0539,1.9622,1.9083,1.9083,0.0,0.0,1.8769,1.9547,2.2246,2.4794,0.0,0.0,0.0,0.0,0.0,0.0,0.0,3.3933,3.8265,4.0846,4.1349,4.2434,4.3014,4.3014,4.3014,4.3014,4.3014,4.4091,4.4564,4.464,4.5744,4.6301,4.6301,4.6301,4.6301,4.6301,4.6301,4.6301,4.6301,4.6301,4.6301,4.6301,4.6301,4.6301,4.6301,2.1018,2.1915,2.2267,2.1014,2.2436,2.4534,2.6725,2.961,3.2991,3.7018,3.8299,4.1816,4.9738,5.1167,5.2558,5.515,5.5147,5.3613,5.0302,4.5906,4.4025,4.5277,3.4347,2.9891,3.3544,2.5013,1.9904,1.8594,1.6513,1.5633,1.5873,1.5771,1.6308,1.7563,2.1974,2.6261,3.0329,3.3021,3.6583,4.0385,4.0157,4.1235,4.2951,4.2502,4.2861,4.3908,4.5912,4.5912,0.0,4.6501,4.5096,4.3166,4.5183,4.3328,4.0607,4.1537,4.0255,3.833,0.0,0.0,3.6102,3.1323,2.9453,2.7794,2.387,2.2957,2.2951,2.2956,2.35,2.3554,2.2286,2.1705,2.1028,1.9748,1.9233,1.8882,0.0,1.8003,1.8099,1.9259,2.1346,2.2537,0.0,0.0,0.0,0.0,0.0,0.0,0.0,3.6483,3.8979,4.0801,4.2258,4.3014,4.3014,4.3014,4.3014,4.3014,4.4091,4.4589,4.464,4.5769,4.6301,4.6301,4.6301,4.6301,4.6301,4.6301,4.6301,4.6301,4.6301,4.6301,4.6301,4.6301,4.6301,4.6301,2.3419,2.3611,2.3316,2.186,2.3038,2.494,2.7173,3.1832,3.6339,3.9817,4.1172,4.4893,5.2906,5.3095,5.3719,5.6329,5.6136,5.4761,5.2197,4.9086,4.7477,4.7748,3.9715,3.6208,3.8205,2.9801,2.4838,2.3622,1.9499,1.7617,1.7859,1.7303,1.7629,1.875,2.1834,2.6627,3.2477,3.3666,3.7481,4.281,4.2851,4.3309,4.4057,4.4536,4.4147,4.3638,0.0,4.6471,4.6052,4.8237,4.7399,4.5933,4.8745,4.7151,4.4457,4.5693,4.4586,4.2761,4.2053,4.1814,0.0,3.6084,3.4305,3.2439,2.7611,2.6652,2.6732,2.6573,2.5865,2.5515,2.6122,2.3785,2.173,2.1558,1.9953,1.8456,0.0,1.7802,1.788,1.7634,1.8928,1.9865,1.9937,0.0,0.0,0.0,0.0,0.0,0.0,0.0,3.7632,3.8904,4.0821,4.2007,4.2384,4.2384,4.2685,4.3316,4.4192,4.469,4.497,4.5899,4.6301,4.6301,4.6301,4.6301,4.6301,4.6301,4.6301,4.6301,4.6301,4.6301,4.6301,4.6301,4.6301,4.6326,2.6657,2.5565,2.4169,2.2827,2.4315,2.6496,2.8852,3.5485,4.0852,4.2555,4.7333,5.1994,5.5824,5.644,5.697,5.8036,5.8031,5.6751,5.389,5.2875,5.2773,5.3687,4.7951,4.6056,4.8984,3.8159,3.1961,3.0947,2.3765,2.0416,2.064,1.8788,1.8777,2.0335,2.0658,2.5061,3.2249,3.3126,3.8008,4.5274,4.6621,4.6352,4.5304,4.6711,4.5642,4.3848,4.713,4.8319,4.8476,4.977,4.9823,4.9456,5.0069,4.9853,4.9366,4.9366,4.9366,4.8977,4.7048,4.5553,4.3787,4.0547,3.8732,0.0,0.0,3.2364,3.2721,3.2687,2.918,2.7574,3.2354,2.6604,2.1875,2.4131,2.0978,1.7866,1.6787,1.798,1.8524,0.0,0.0,1.9032,2.1291,0.0,0.0,0.0,0.0,2.6954,0.0,3.463,3.6727,3.6002,3.8404,4.0224,4.1275,4.1302,4.213,4.3815,4.4338,4.492,4.5497,4.605,4.6301,4.6301,4.6301,4.6301,4.6301,4.6301,4.6301,4.6301,4.6301,4.6301,4.6301,4.6301,4.6301,4.6401,2.6243,2.6175,2.6192,2.637,2.6877,2.8338,3.1613,3.7188,4.2719,4.7502,5.0855,5.488,6.0417,5.9674,5.9034,5.9734,5.9185,5.8238,5.6853,5.4532,5.4262,5.6664,4.9999,4.7376,4.9763,4.0169,3.4868,3.4352,2.7399,2.3772,2.3271,2.1695,2.0724,2.0361,2.1842,2.6108,3.2247,3.3004,3.7147,4.3259,4.4556,4.4287,4.3379,0.0,4.5822,4.5095,4.7429,4.8319,4.8476,4.977,5.0099,5.0069,5.0727,5.0817,5.072,5.072,5.072,5.0601,5.0069,4.9015,4.7467,4.5117,4.2813,4.0483,0.0,0.0,0.0,0.0,3.5672,3.41,3.1554,2.8138,2.4865,2.2246,2.0115,1.8682,1.8406,1.8393,0.0,1.9044,0.0,0.0,0.0,0.0,0.0,0.0,0.0,0.0,3.112,0.0,3.4359,3.5435,3.8226,4.0224,4.1275,4.1302,4.213,4.3815,4.4338,4.492,4.5497,4.605,4.6301,4.6301,4.6301,4.6301,4.6301,4.6301,4.6301,4.6301,4.6301,4.6301,4.6301,4.6301,4.6301,4.6401,2.7946,2.8194,2.8622,2.899,3.158,3.3966,3.5124,3.91,4.3917,4.9372,5.448,5.8428,6.0469,6.0446,6.032,6.0381,5.9606,5.8204,5.6125,5.5615,5.5581,5.5953,5.3179,5.2248,5.3501,4.6088,4.1331,3.9546,3.19,2.7087,2.5053,2.2714,2.1511,2.1413,2.2565,2.5967,3.1021,3.45,3.8116,4.1762,4.4496,4.5005,0.0,4.6711,4.7369,4.7241,4.8626,4.8955,4.8887,4.986,5.0196,5.0338,5.0996,5.1206,5.1206,5.1206,5.1206,5.1206,5.1206,5.069,4.9853,4.8723,4.7339,4.5633,4.3389,4.2861,4.2713,0.0,4.0527,3.8924,0.0,0.0,2.6918,2.1629,1.9775,1.9008,1.9008,0.0,0.0,0.0,2.1064,0.0,0.0,0.0,0.0,0.0,0.0,0.0,0.0,0.0,3.372,3.5564,3.7796,3.9496,4.0575,4.06,4.1302,4.2707,4.3539,4.4317,4.5146,4.5949,4.6301,4.6301,4.6301,4.6301,4.6301,4.6301,4.6301,4.6301,4.6301,4.6301,4.6301,4.6301,4.6446,4.6722,3.0379,3.0619,3.0967,3.0802,3.6403,4.0554,3.9439,4.2275,4.613,5.0566,5.7861,6.1642,5.8902,6.0114,6.093,6.0569,5.9746,5.786,5.4584,5.6765,5.7036,5.4499,5.6799,5.8118,5.8069,5.3112,4.8729,4.5041,3.6511,3.0424,2.6598,2.3192,2.2036,2.288,2.3247,2.5783,3.0205,3.6945,4.0242,4.1414,4.5903,4.7317,4.7018,4.8947,4.9666,4.9756,5.0278,5.0032,4.9516,5.0129,5.0338,5.0435,5.1026,5.1206,5.1206,5.1206,5.1206,5.1176,5.1086,5.1056,5.1056,5.0966,5.0996,5.0458,4.8185,4.7758,4.7818,4.7818,4.4496,4.2821,0.0,0.0,2.8828,2.2671,2.0665,2.0036,2.0537,0.0,0.0,0.0,0.0,0.0,0.0,0.0,0.0,0.0,0.0,0.0,0.0,0.0,3.3689,3.5941,3.7294,3.8542,3.9697,0.0,4.0325,4.13,4.2534,4.3639,4.464,4.5769,4.6301,4.6301,4.6301,4.6301,4.6301,4.6301,4.6301,4.6301,4.6301,4.6301,4.6326,4.6401,4.6722,4.7274,3.0612,3.1357,3.2077,3.1417,3.6387,4.1747,4.5441,5.0379,5.4381,5.6356,5.9669,6.1845,6.196,6.1126,6.0772,6.1251,6.055,5.9753,5.8986,5.9438,5.9471,5.8964,5.9438,5.9438,5.8829,5.4938,5.1082,4.7312,3.9653,3.3783,2.9676,2.6333,2.4396,2.372,2.4704,2.8425,3.4293,3.9497,4.2754,4.4736,4.8274,4.9598,4.968,5.1139,5.1678,5.1708,5.1828,5.1056,5.0159,5.0817,5.1026,5.1056,5.1146,5.1206,5.1206,5.1206,5.1206,5.1086,5.0548,5.0398,5.0249,4.9756,5.0002,5.0278,4.98,5.0129,5.0518,5.0518,4.9045,4.7181,4.5334,0.0,0.0,2.7545,0.0,0.0,0.0,0.0,0.0,0.0,0.0,0.0,0.0,0.0,0.0,0.0,2.4772,0.0,0.0,0.0,3.2111,0.0,3.7294,0.0,0.0,0.0,4.0675,4.1327,4.2911,4.3991,4.464,4.5769,4.6301,4.6301,4.6301,4.6301,4.6301,4.6301,4.6301,4.6301,4.6301,4.6301,4.6346,4.6798,4.7299,4.7782,3.3707,3.4451,3.5666,3.6553,4.1388,4.6655,5.114,5.6583,5.9676,5.8194,5.9359,6.0489,6.0885,6.2126,6.2717,6.2221,6.1455,6.0767,6.0262,5.9784,5.9708,6.008,6.0114,5.9945,5.9573,5.7476,5.3585,4.7902,4.2726,3.6814,3.0275,2.8664,2.6994,2.5472,2.808,3.1368,3.5314,4.0361,4.4001,4.6591,4.9531,5.0936,5.1355,5.2336,5.2719,5.2719,5.2719,5.2306,5.1708,5.1325,5.1206,5.1206,5.1206,5.1206,5.1206,5.1206,5.1206,5.1056,5.0375,5.0458,5.0578,4.9942,5.0249,5.0727,5.0727,5.0966,5.1206,5.1206,5.072,4.8907,4.4429,3.9386,0.0,0.0,0.0,0.0,0.0,0.0,2.7595,0.0,0.0,0.0,0.0,0.0,0.0,2.3917,2.4938,2.7392,0.0,0.0,3.2016,0.0,0.0,0.0,0.0,0.0,0.0,4.1327,4.3011,4.4091,4.464,4.5769,4.6301,4.6301,4.6301,4.6301,4.6301,4.6301,4.6301,4.6301,4.6301,4.6476,4.6747,4.6998,4.7657,4.836,3.8349,3.8433,3.9718,4.255,4.728,5.1693,5.463,6.0211,6.2928,5.9722,6.0003,6.0444,6.026,6.3123,6.4427,6.2924,6.2057,6.1287,6.0583,5.9734,5.9573,6.0317,6.0351,6.0351,6.0351,5.981,5.6156,4.9304,4.5669,3.9737,3.1755,3.0944,3.0108,2.9456,3.2402,3.5286,3.8179,0.0,4.6018,4.8903,5.1143,5.2366,5.2905,5.3414,5.3558,5.3408,5.3408,5.3318,5.3049,5.1977,5.1528,5.1385,5.1236,5.1206,5.1206,5.1206,5.1206,5.1056,5.0375,5.0607,5.0817,5.0159,5.0488,5.0996,5.0996,5.1086,5.1206,5.1206,5.1206,4.9562,4.4157,4.1035,0.0,0.0,0.0,0.0,0.0,0.0,3.0833,0.0,0.0,0.0,0.0,0.0,0.0,0.0,2.6152,2.7469,3.1808,0.0,0.0,0.0,0.0,3.8191,3.932,0.0,4.0876,4.13,4.3109,4.4192,4.464,4.5769,4.6301,4.6301,4.6301,4.6301,4.6301,4.6301,4.6301,4.6326,4.6451,4.6722,4.7124,4.735,4.8033,4.8818,4.4345,4.2622,4.2831,4.6965,5.1332,5.4116,5.3508,5.9501,6.3956,6.3589,6.4237,6.4444,6.3735,6.3992,6.3805,6.2795,6.1981,6.1433,6.1311,6.0485,6.0351,6.1163,6.1197,6.1197,6.1197,6.1129,5.8761,5.3974,4.8274,4.2611,3.711,3.3704,3.4144,3.7833,3.7537,4.1115,0.0,4.8709,5.0839,5.3456,5.4413,5.485,5.491,5.497,5.464,5.4132,5.4132,5.3713,5.3169,5.3049,5.2606,5.2007,5.1385,5.1206,5.1206,5.1206,5.1206,5.1056,5.0375,5.0255,5.0159,4.9546,4.9853,5.0285,5.0285,5.0757,5.1206,5.1206,5.1206,4.9657,4.4673,4.508,4.3922,0.0,0.0,0.0,0.0,0.0,3.35,3.7632,0.0,0.0,0.0,0.0,0.0,0.0,2.8244,2.6465,2.8473,0.0,0.0,3.716,3.6808,3.706,3.814,4.0198,4.1252,4.1327,4.3485,4.4539,4.464,4.5769,4.6301,4.6301,4.6301,4.6301,4.6301,4.6301,4.6301,4.6351,4.6823,4.7048,4.7224,4.8259,4.8718,4.8868,5.0802,4.9517,4.9627,5.2637,5.408,5.6172,6.0321,6.2879,6.464,6.5448,6.4971,6.4457,6.4139,6.453,6.4671,6.4293,6.3055,6.2256,6.2193,6.093,6.0319,6.0573,6.1028,6.1298,6.1298,6.1298,5.9336,5.5277,5.0168,4.4553,3.8565,3.8374,3.9999,4.3098,4.5012,4.7584,5.0674,5.3219,5.5278,5.687,5.6443,5.6305,5.6207,5.5476,5.5029,5.479,5.479,5.461,5.4366,5.3922,5.3354,5.2725,5.2486,5.2396,5.2306,5.1917,5.1798,5.1588,5.0488,5.0495,5.0637,4.9979,5.0308,5.0817,5.0817,5.0996,5.1206,5.1206,5.1206,5.0348,4.7573,4.6367,4.4969,0.0,0.0,0.0,0.0,0.0,0.0,4.1466,0.0,3.7156,0.0,0.0,0.0,0.0,2.5256,2.4883,0.0,0.0,0.0,3.3668,0.0,3.8179,3.8542,4.149,4.3256,4.384,4.5016,4.5618,4.5648,4.607,4.6301,4.6301,4.6301,4.6301,4.6326,4.6647,4.6772,4.6823,4.735,4.7807,4.8159,4.8642,4.9019,4.9289,5.6565,5.6271,5.659,5.8474,5.8412,5.9697,6.4396,6.4897,6.5031,6.5815,6.5044,6.4457,6.4457,6.4971,6.5178,6.4971,6.3625,6.2781,6.2714,6.1433,6.0531,6.0173,6.0901,6.1314,6.1298,6.1501,6.0216,5.7356,5.3061,4.8206,4.2929,4.3416,4.5534,0.0,5.1472,5.3494,5.5289,5.697,5.8238,5.8965,5.7172,5.6469,5.6372,5.5526,5.5179,5.5179,5.5179,5.5179,5.5119,5.464,5.4162,5.3737,5.3318,5.3198,5.3109,5.2636,5.2336,5.2007,5.1056,5.0996,5.1086,5.0607,5.0847,5.1206,5.1206,5.1206,5.1206,5.1206,5.1206,5.0769,4.9431,4.7577,4.5947,4.5124,0.0,0.0,0.0,4.3456,0.0,4.2579,4.0489,0.0,0.0,0.0,0.0,0.0,2.6592,2.622,0.0,0.0,0.0,0.0,0.0,0.0,3.9448,4.2985,4.5018,4.5581,4.6501,4.6725,4.6301,4.6301,4.6541,4.6938,4.6938,4.704,4.7219,4.7571,4.7577,4.7375,4.7958,4.841,4.8818,4.8994,4.9264,4.959,6.1374,6.2144,6.305,6.4187,6.5277,6.5277,6.316,6.4224,6.5105,6.4591,6.4958,6.5288,6.5288,6.5288,6.4971,6.4176,6.3298,6.2795,6.2781,6.2042,6.12,6.0341,6.0999,6.1384,6.1318,6.2009,6.2009,6.1231,5.7457,0.0,5.2063,4.8443,5.0304,5.663,5.5936,5.854,6.3148,6.0087,5.9219,5.9603,5.6482,5.5204,5.5204,5.5204,5.5179,5.5179,5.5179,5.5179,5.5179,5.5179,5.5179,5.494,5.3618,5.3198,5.3198,5.3198,5.2725,5.2187,5.2187,5.1708,5.1206,5.1176,5.1176,5.1206,5.1206,5.1206,5.1206,5.1206,5.1206,5.0769,4.9431,4.9182,4.7978,4.4418,0.0,0.0,0.0,4.259,0.0,4.0364,3.4603,0.0,3.8717,3.3178,0.0,0.0,3.4964,3.1641,0.0,0.0,0.0,3.7175,3.8519,0.0,4.0769,4.4436,4.6072,4.5699,4.76,4.771,4.6301,4.6301,4.7087,4.8474,4.8474,4.879,4.9261,4.9261,4.873,4.7958,4.8535,4.8793,4.8868,4.9389,4.959,4.959,6.4787,6.5154,6.5375,6.5571,6.5865,6.5608,6.4187,6.5044,6.5632,6.5118,6.6145,6.6292,6.464,6.4494,6.4383,6.4139,6.3298,6.2811,6.2801,6.204,6.0981,5.9543,6.0705,6.1109,6.0505,6.1738,6.2299,6.2042,0.0,0.0,0.0,5.3179,5.5361,5.9911,6.1197,6.2685,6.4201,6.3166,6.2372,6.1662,5.9829,5.855,5.765,5.6826,5.6252,5.5893,5.5893,5.5593,5.5179,5.5179,5.5179,5.5119,5.4725,5.4551,5.4461,5.4012,5.3743,5.3473,5.2995,5.2749,5.2546,5.2546,5.2217,5.1887,5.1887,5.1528,5.1206,5.1206,5.1206,5.1058,5.065,5.0555,5.0165,4.9034,4.9443,0.0,4.8934,4.7014,4.5489,4.5098,4.0971,0.0,0.0,3.7785,0.0,0.0,0.0,3.1554,0.0,0.0,0.0,0.0,3.9732,0.0,4.2104,4.6119,4.8017,4.7839,4.928,4.9735,4.9309,4.9309,4.9809,5.0699,5.0699,5.1054,5.1656,5.2007,5.1986,5.1785,5.2373,5.1971,5.1007,5.1158,5.0563,4.959,6.6843,6.6953,6.6893,6.6746,6.6452,6.5852,6.4677,6.5485,6.5999,6.5362,6.6953,6.737,6.5241,6.5277,6.5204,6.4604,6.4347,6.419,6.4198,6.3734,6.2565,6.0527,6.1634,6.1604,6.0152,6.1603,0.0,6.1975,5.9911,5.8558,5.7949,5.8404,6.0028,6.2618,6.3971,6.4749,6.4965,6.4216,6.3627,6.3013,6.1542,6.0163,5.8882,5.8141,5.7165,5.6192,5.6192,5.5773,5.5179,5.5179,5.5179,5.5179,5.5179,5.5179,5.5119,5.47,5.4401,5.4132,5.3683,5.3408,5.3198,5.3198,5.2899,5.2516,5.2247,5.1887,5.1475,5.1236,5.1206,5.1206,5.1206,5.1206,5.1206,5.1206,5.1206,5.1206,5.1206,4.8621,4.6268,4.4901,0.0,0.0,0.0,4.0021,3.9676,0.0,0.0,0.0,0.0,0.0,3.7277,3.8712,4.3509,0.0,4.5504,4.8895,5.0284,4.9636,5.0601,5.11,5.11,5.1349,5.1989,5.2883,5.2883,5.3276,5.3894,5.4203,5.4166,5.3805,5.3566,5.2883,5.1927,5.133,5.0467,4.959,6.77,6.77,6.7664,6.7627,6.699,6.6072,6.4738,6.5668,6.6219,6.5472,6.738,6.8238,6.6659,6.7223,6.7076,6.5508,0.0,0.0,6.6512,6.6439,6.5353,6.2979,6.3477,6.2681,6.0333,6.1675,6.2042,6.1366,6.2042,6.2753,6.3409,6.3477,6.3849,6.4546,6.458,6.5019,6.5587,6.3784,6.3386,6.3814,6.1993,6.0503,5.9383,5.9383,5.8218,5.6594,5.6492,5.6016,5.539,5.5319,5.5239,5.5179,5.5179,5.5179,5.5179,5.5179,5.476,5.4281,5.4281,5.3803,5.3348,5.3348,5.3318,5.3109,5.2426,5.2276,5.2067,5.1415,5.1265,5.1236,5.1206,5.1206,5.1206,5.1206,5.1206,5.1182,5.1058,4.7923,4.4458,0.0,0.0,0.0,0.0,4.0776,4.3567,0.0,0.0,0.0,0.0,0.0,4.1351,4.6472,4.8959,5.0226,5.0255,5.2217,5.259,5.1373,5.1868,5.2072,5.21,5.2713,5.3782,5.5113,5.5113,5.5461,5.6012,5.6012,5.551,5.4564,5.3096,5.2363,5.1989,5.0499,4.9815,4.959,0.0,0.0,6.7517,6.688,6.6623,6.6182,6.5251,6.5888,6.6439,6.6256,6.7247,6.7614,6.6623,6.7223,6.7297,6.6292,6.5852,6.5852,6.6476,6.5925,6.5282,6.4639,6.4096,6.325,6.2013,6.2263,6.2333,6.2144,6.2333,6.2482,6.2651,6.326,6.3579,6.3781,6.4343,6.5019,6.5662,6.521,6.4898,6.4627,6.416,6.3223,6.206,6.206,6.1478,6.0515,5.9513,5.8423,5.7261,5.6279,5.5623,5.5179,5.5179,5.5179,5.5179,5.5179,5.5089,5.497,5.497,5.485,5.473,5.473,5.4341,5.3773,5.3139,5.2959,5.2755,5.2097,5.1977,5.1828,5.1295,5.1206,5.1206,5.1206,5.1206,5.0846,4.9824,4.8139,4.6685,0.0,4.4264,4.4224,4.6506,4.7074,4.7363,0.0,0.0,4.754,4.8067,4.6729,4.6565,4.7983,4.9455,5.0458,5.0966,5.2456,5.3804,5.4989,5.5539,5.5822,5.5822,5.5995,5.6539,5.7336,5.7336,5.7722,5.8315,5.8315,5.8185,5.7943,5.7552,5.5936,5.379,5.3399,5.1705,4.959,6.8862,6.8802,6.8641,6.8201,6.8128,6.7871,6.705,6.7614,6.8017,6.765,6.8605,6.9045,6.8238,6.8545,6.8458,6.7687,6.688,6.6733,6.754,6.7197,6.6934,6.6855,6.5991,6.4803,6.3185,6.3033,6.2798,6.24,6.24,6.2773,6.3396,6.3477,6.3849,6.4512,6.458,6.4816,6.5222,6.5581,6.5531,6.5289,6.5622,6.5014,6.3882,6.3882,6.3101,6.1901,6.1206,5.9937,5.8423,5.7406,5.6456,5.5623,5.5299,5.5179,5.5179,5.5179,5.5179,5.5179,5.5179,5.5179,5.5179,5.5179,5.491,5.4491,5.3803,5.3653,5.3384,5.2396,5.2187,5.2007,5.1325,5.1206,5.1206,5.1206,5.0674,5.0017,4.9308,4.7705,4.657,4.6449,4.6115,4.6587,4.8305,4.9213,4.9635,4.9552,4.9254,0.0,5.0504,5.0265,5.0405,5.1081,5.1726,5.2342,5.3025,5.4042,5.5264,5.6611,5.7244,5.7573,5.7573,5.7872,5.8231,5.8563,5.8563,5.877,5.9099,5.9099,5.9099,5.9018,5.8303,5.6537,5.4297,5.358,5.1736,4.959,7.011,7.011,7.011,7.011,7.011,6.9853,6.9192,6.9669,6.9889,6.9325,7.0353,7.0903,7.033,7.0183,6.9816,6.9155,6.8348,6.8164,6.8862,6.8885,6.895,6.8995,6.8243,6.6698,6.4411,6.3916,6.3258,6.24,6.24,6.3024,6.4241,6.3632,6.4005,6.5175,6.4546,6.4343,6.4478,6.5222,6.5615,6.5784,6.6508,6.617,6.5193,6.5193,6.4168,6.2695,6.2509,6.1329,5.9729,5.8972,5.7777,5.6525,5.5837,5.5505,5.5354,5.5209,5.5119,5.5059,5.5149,5.5179,5.5179,5.5179,5.5179,5.5029,5.4371,5.4221,5.3832,5.2486,5.2187,5.2037,5.1468,5.1265,5.1116,5.0936,4.9945,4.9117,4.8922,0.0,4.6098,4.6206,4.6746,4.74,4.8159,4.9582,5.0964,5.2115,5.1768,5.1947,5.2989,5.2516,5.2815,5.4162,5.4311,5.473,5.5478,5.6162,5.6735,5.7244,5.7905,5.8234,5.8264,5.886,5.9099,5.9099,5.9099,5.9099,5.9099,5.9099,5.9099,5.8964,5.7608,5.5964,5.4208,5.2853,5.1174,4.959,7.022,7.011,7.011,7.011,7.011,7.0073,6.9926,7.0,7.0293,7.0866,7.0536,7.0513,7.105,7.0513,7.0036,6.9926,6.9192,6.8788,6.8885,6.8885,6.921,6.9868,6.9074,6.8131,6.7054,6.4829,6.3258,6.24,6.24,6.2536,6.2739,6.2618,6.2685,6.2908,6.2787,6.3091,6.3714,6.4478,6.5121,6.5784,6.6508,6.6686,6.6503,6.6503,6.633,6.5883,6.4849,6.3906,6.2958,6.1801,6.0173,5.8511,5.7856,5.6913,5.5923,5.5384,5.479,5.4491,5.5029,5.5179,5.5179,5.5179,5.5179,5.5029,5.4371,5.4221,5.3832,5.2486,5.2187,5.2157,5.2067,5.1565,5.087,4.9786,4.9417,4.8854,4.7672,4.8185,4.8922,4.9408,5.0043,5.0728,5.1417,5.1744,5.1971,5.2163,5.2606,5.2725,5.2366,5.2247,5.2815,5.4162,5.476,5.5598,5.6795,5.7483,5.7846,5.7935,5.862,5.8949,5.8949,5.9069,5.9099,5.9099,5.9099,5.9099,5.9099,5.9099,5.9099,5.9072,5.8825,5.6963,5.4357,5.4119,5.2143,4.959,7.1468,7.1394,7.1394,7.1394,7.1394,7.1394,7.1394,7.1394,7.1541,7.1894,7.1615,7.1541,7.1894,7.1233,7.077,7.077,6.9619,6.9082,6.9522,6.9559,6.9926,7.072,7.0369,6.9098,6.6896,6.4795,6.3258,6.24,6.24,6.2584,6.299,6.2584,6.2618,6.299,6.2584,6.2584,6.2956,6.37,6.4208,6.4613,6.5764,6.6203,6.6237,6.6643,6.6791,6.6728,6.6148,6.5282,6.4131,6.2109,6.0392,5.8801,5.7075,5.5887,5.5059,5.476,5.4431,5.4192,5.4132,5.4371,5.4581,5.4192,5.4371,5.4491,5.3803,5.3653,5.3384,5.2396,5.2187,5.2187,5.2187,5.1947,5.1558,5.0983,5.0514,4.9809,4.8456,4.9145,4.9727,4.9688,5.0884,5.1738,5.1678,5.2007,5.2187,5.2187,5.2157,5.2157,5.2187,5.2187,5.2486,5.3114,5.482,5.6346,5.7633,5.7935,5.8264,5.865,5.8949,5.8919,5.8563,5.8563,5.8563,5.8534,5.8171,5.8441,5.9069,5.871,5.877,5.9099,5.9099,5.716,5.4386,5.4386,5.2359,4.964,7.2496,7.2496,7.2496,7.2496,7.2496,7.2496,7.2496,7.2496,7.2496,7.2496,7.2496,7.2496,7.2496,7.1931,7.1564,7.1564,7.0279,6.9633,7.0073,7.011,7.0367,7.0977,7.083,6.933,6.627,6.4743,6.3498,6.24,6.24,6.2685,6.3207,6.2651,6.2685,6.3226,6.2651,6.24,6.2468,6.3193,6.3511,6.3612,6.4918,6.5425,6.5493,6.6068,6.6284,6.6284,6.6284,6.5667,6.4531,6.2503,6.0976,5.9567,5.7369,5.6158,5.5463,5.5311,5.4849,5.4225,5.3421,5.3563,5.3832,5.3348,5.3593,5.3803,5.3114,5.2989,5.2779,5.2097,5.1977,5.2007,5.2187,5.2187,5.2097,5.1798,5.1277,5.0556,4.9567,4.9742,4.997,4.9912,5.1136,5.1828,5.1468,5.1917,5.2187,5.2187,5.1738,5.1678,5.2187,5.2187,5.2426,5.2875,5.4905,5.6645,5.8085,5.7935,5.8205,5.889,5.871,5.8381,5.7846,5.7846,5.7846,5.7842,5.7334,5.7782,5.883,5.8145,5.8264,5.8806,5.8329,5.6416,5.3913,5.3753,5.1866,4.9529,7.2496,7.2496,7.2496,7.2496,7.2496,7.2496,7.2496,7.2496,7.2496,7.2496,7.2496,7.2496,7.2496,7.2459,7.2422,7.2422,7.16,7.083,7.0146,7.011,7.011,7.0183,6.9486,6.8153,6.6235,6.5339,6.4078,6.24,6.24,6.2434,6.2502,6.2434,6.2434,6.2502,6.2415,6.24,6.2468,6.3193,6.3511,6.3579,6.4377,6.4681,6.4681,6.4749,6.4749,6.4749,6.4749,6.4688,6.4572,6.4409,6.3482,6.23,6.148,6.0395,5.926,5.8614,5.6787,5.4691,5.3537,5.3228,5.3258,5.3228,5.3228,5.3109,5.2426,5.2276,5.2097,5.1415,5.1265,5.1445,5.2097,5.2187,5.1798,5.0548,5.0306,5.0206,5.014,4.9686,5.0007,5.1775,5.1547,5.1475,5.2067,5.2187,5.2187,5.2187,5.2157,5.2157,5.2187,5.2187,5.3054,5.491,5.5149,5.6166,5.8085,5.7483,5.7513,5.8175,5.7543,5.7214,5.7184,5.7184,5.7184,5.7154,5.7124,5.7513,5.8115,5.7453,5.7573,5.7981,5.6007,5.4146,5.2529,5.1743,5.0333,4.9141,7.2496,7.2496,7.2496,7.2496,7.2496,7.2496,7.2496,7.2496,7.2312,7.1821,7.1747,7.1578,7.1064,7.1468,7.1527,7.1064,7.1197,7.094,7.0146,6.9633,6.9596,7.0073,6.9339,6.8349,6.7067,6.572,6.4427,6.3218,6.2659,6.24,6.24,6.24,6.24,6.24,6.24,6.24,6.2434,6.2685,6.2821,6.2888,6.3632,6.3917,6.3951,6.4444,6.4613,6.4613,6.4613,6.4613,6.441,6.3212,6.2487,6.1807,6.0358,5.9278,5.8441,5.7759,5.6343,5.4807,5.3945,5.3159,5.2486,5.2067,5.2276,5.2396,5.1738,5.1588,5.1505,5.1236,5.1206,5.1385,5.2067,5.2187,5.2037,5.1505,5.1798,5.1768,5.0936,5.099,5.1199,5.1558,5.1379,5.1295,5.1558,5.1588,5.1768,5.2157,5.2187,5.2366,5.2785,5.3204,5.3982,5.5149,5.5179,5.5927,5.7453,5.7214,5.7244,5.7483,5.7214,5.6885,5.6551,5.6551,5.6551,5.6521,5.6077,5.6526,5.7453,5.7214,5.7513,5.8062,5.7641,5.6517,5.5054,5.4734,5.3613,5.2429,7.2899,7.2679,7.2496,7.2496,7.2496,7.2422,7.2151,7.2349,7.2129,7.105,7.1123,7.0977,7.0183,7.083,7.1087,7.0513,7.0977,7.094,7.0146,6.9119,6.8752,6.9302,6.8825,6.8112,6.7243,6.574,6.4563,6.3701,6.2817,6.24,6.24,6.24,6.24,6.24,6.24,6.24,6.24,6.24,6.24,6.2415,6.2956,6.3159,6.3226,6.3734,6.3903,6.3903,6.3903,6.3903,6.3701,6.2361,6.1945,6.17,6.0335,5.963,5.8969,5.7538,5.6537,5.5581,5.4144,5.2987,5.2037,5.1355,5.1535,5.1768,5.1295,5.1206,5.1206,5.1206,5.1206,5.1325,5.1798,5.2067,5.2187,5.2187,5.2576,5.2546,5.1648,5.1738,5.1738,5.1236,5.1206,5.1206,5.1206,5.1385,5.1708,5.2157,5.2396,5.2785,5.3498,5.4132,5.473,5.5179,5.5179,5.5598,5.6496,5.6496,5.6585,5.6795,5.6585,5.6312,5.5893,5.5893,5.6013,5.6162,5.5713,5.6226,5.7393,5.7184,5.7513,5.8088,5.7867,5.7106,5.6104,5.5795,5.5018,5.4282,7.3722,7.3083,7.2532,7.2532,7.2496,7.2239,7.1417,7.1982,7.1908,7.0293,7.0793,7.0977,7.0183,7.0807,7.127,7.1307,7.1307,7.094,7.0146,6.8582,6.77,6.77,6.77,6.7286,6.6419,6.549,6.4563,6.3701,6.2817,6.24,6.24,6.24,6.24,6.24,6.24,6.24,6.24,6.24,6.24,6.24,6.24,6.24,6.24,6.24,6.24,6.24,6.24,6.24,6.24,6.24,6.24,6.24,6.24,6.24,6.1802,5.8734,5.7813,5.7121,5.4042,5.2749,5.2067,5.1355,5.1206,5.1206,5.1206,5.1206,5.1206,5.1206,5.1206,5.1206,5.1206,5.1738,5.2187,5.2187,5.2187,5.2187,5.2187,5.1594,5.1206,5.1206,5.1206,5.1206,5.1206,5.1828,5.2217,5.2217,5.2839,5.3528,5.4192,5.485,5.5179,5.5179,5.5179,5.5179,5.5179,5.5179,5.5508,5.6192,5.5534,5.5179,5.5209,5.5209,5.5593,5.6222,5.6222,5.6915,5.8025,5.7393,5.7513,5.7892,5.5752,5.4918,5.4811,5.3889,5.3535,5.3849,7.4551,7.4353,7.4169,7.4169,7.3266,7.2422,7.2202,7.1394,7.044,6.9412,6.9472,6.9302,6.8508,6.9119,6.9853,7.0403,7.0977,7.094,7.0146,6.8582,6.77,6.77,6.77,6.7286,6.6419,6.549,6.4563,6.3701,6.2817,6.24,6.24,6.24,6.24,6.24,6.24,6.24,6.24,6.24,6.24,6.24,6.24,6.24,6.24,6.24,6.24,6.24,6.24,6.24,6.24,6.24,6.24,6.24,6.24,6.24,6.2056,6.028,5.9177,5.8019,5.5774,5.4389,5.3324,5.2187,5.1535,5.1206,5.1206,5.1206,5.1206,5.1206,5.1206,5.1206,5.1206,5.1355,5.1475,5.1475,5.1475,5.1475,5.1475,5.1325,5.1206,5.1206,5.1618,5.1917,5.1917,5.2516,5.3084,5.3563,5.4221,5.467,5.488,5.5089,5.5179,5.5179,5.5179,5.5179,5.5179,5.5179,5.5299,5.5504,5.5299,5.5474,5.5893,5.5893,5.6252,5.6825,5.6825,5.7034,5.7423,5.7693,5.7905,5.8088,5.7924,5.7851,5.7796,5.7535,5.7428,5.754,7.5307,7.5124,7.4903,7.4903,7.3854,7.2863,7.2569,7.1688,7.066,6.9522,6.9669,6.9559,6.8728,6.9376,7.0059,7.055,7.1013,7.094,7.0146,6.9206,6.8655,6.8655,6.8655,6.8119,6.6924,6.6012,6.5117,6.4201,6.3351,6.2755,6.24,6.24,6.24,6.24,6.24,6.24,6.24,6.24,6.24,6.24,6.24,6.24,6.24,6.24,6.24,6.24,6.24,6.24,6.24,6.24,6.24,6.24,6.24,6.24,6.215,6.0953,5.974,5.8446,5.6817,5.5317,5.4012,5.3204,5.2486,5.1917,5.1678,5.1618,5.1505,5.1236,5.1206,5.1206,5.1206,5.1206,5.1206,5.1206,5.1206,5.1295,5.1535,5.1618,5.1684,5.1977,5.2336,5.2606,5.2606,5.3204,5.3862,5.4551,5.497,5.5179,5.5179,5.5179,5.5179,5.5179,5.5179,5.5354,5.5593,5.5623,5.5623,5.5623,5.5837,5.6137,5.6551,5.6551,5.6885,5.7513,5.7513,5.7663,5.7932,5.8351,5.8504,5.8534,5.8949,5.9099,5.9099,5.9099,5.9099,5.9099,7.5946,7.5506,7.5014,7.5087,7.4331,7.345,7.2716,7.2422,7.1762,7.0293,7.072,7.0903,7.0183,7.077,7.1233,7.138,7.1417,7.105,7.0257,7.0146,7.011,7.011,7.011,6.9426,6.7958,6.6961,6.6041,6.5095,6.4164,6.3283,6.2502,6.2434,6.24,6.24,6.24,6.24,6.24,6.24,6.24,6.24,6.24,6.24,6.24,6.24,6.24,6.24,6.24,6.24,6.24,6.24,6.24,6.24,6.24,6.24,6.215,6.0953,5.9805,5.8677,5.7339,5.5749,5.443,5.4306,5.3832,5.3198,5.2456,5.2276,5.2127,5.1475,5.1355,5.1355,5.1355,5.1355,5.1355,5.1355,5.1355,5.1588,5.2187,5.2276,5.2516,5.3139,5.3258,5.3288,5.3288,5.3892,5.4551,5.5149,5.5179,5.5179,5.5179,5.5179,5.5209,5.5269,5.5269,5.5623,5.6282,5.6342,5.6342,5.6282,5.6825,5.7124,5.7184,5.7184,5.7573,5.8175,5.8175,5.8534,5.9099,5.9099,5.9099,5.9099,5.9099,5.9099,5.9099,5.9099,5.9099,5.9099,7.5946,7.5946,7.6041,7.6665,7.5065,7.3648,7.345,7.1835,7.0513,7.0146,7.0257,7.0293,7.011,7.0257,7.0881,7.2129,7.2239,7.1908,7.1087,7.044,7.011,7.011,7.011,6.9926,6.9596,6.7954,6.6651,6.5784,6.429,6.3425,6.326,6.2651,6.24,6.24,6.24,6.24,6.24,6.24,6.24,6.24,6.24,6.24,6.24,6.24,6.24,6.24,6.24,6.24,6.24,6.24,6.24,6.24,6.24,6.24,6.215,6.0953,6.0417,5.974,5.7598,5.6707,5.6157,5.5215,5.485,5.4431,5.3258,5.2989,5.2959,5.2785,5.2779,5.2779,5.2779,5.2779,5.2779,5.2779,5.2779,5.2839,5.2959,5.2989,5.3049,5.3198,5.3653,5.3982,5.3982,5.4581,5.5029,5.5179,5.5179,5.5179,5.5179,5.5179,5.5444,5.5983,5.5983,5.6282,5.6885,5.7423,5.7423,5.6885,5.7034,5.7393,5.7876,5.7876,5.8234,5.889,5.889,5.8979,5.9099,5.9099,5.9099,5.9099,5.9099,5.9099,5.9099,5.9099,5.9099,5.9099,7.5359,7.5542,7.5652,7.6078,7.4808,7.3722,7.3722,7.2312,7.1248,7.1248,7.1248,7.1248,7.1248,7.1248,7.1578,7.2422,7.2496,7.2312,7.1894,7.1468,7.1248,7.1248,7.1248,7.1248,7.1248,6.9395,6.7852,6.6635,6.5759,6.4885,6.4038,6.3632,6.3429,6.3429,6.3429,6.3429,6.3429,6.3057,6.2922,6.2888,6.2516,6.24,6.24,6.24,6.24,6.24,6.24,6.24,6.24,6.24,6.24,6.24,6.24,6.24,6.2282,6.1656,6.1036,6.0332,5.9049,5.8282,5.7691,5.7063,5.6927,5.6337,5.4157,5.3683,5.3593,5.3288,5.3198,5.3198,5.3198,5.3198,5.3198,5.3198,5.3198,5.3318,5.3623,5.3683,5.3803,5.4127,5.4461,5.467,5.467,5.4999,5.5179,5.5179,5.5504,5.5683,5.5683,5.5953,5.6256,5.6611,5.6641,5.6915,5.7573,5.7905,5.8085,5.8052,5.8052,5.8231,5.859,5.859,5.877,5.9099,5.9099,5.9099,5.9099,5.9099,5.9099,5.9099,5.9099,5.9099,5.9099,5.9099,5.9099,5.9099,7.4551,7.4683,7.472,7.4867,7.4221,7.3722,7.3722,7.301,7.2496,7.2496,7.2496,7.2496,7.2496,7.2496,7.2496,7.2496,7.2496,7.2496,7.2496,7.2496,7.2496,7.2496,7.2496,7.2496,7.2496,7.0836,6.9192,6.7725,6.7253,6.6276,6.4783,6.4647,6.4613,6.4613,6.4613,6.4613,6.4546,6.3971,6.368,6.3612,6.3024,6.2773,6.2773,6.2618,6.2584,6.255,6.2468,6.24,6.24,6.24,6.24,6.24,6.24,6.24,6.24,6.24,6.1696,6.087,6.0682,5.9849,5.9058,5.8857,5.879,5.811,5.5577,5.4835,5.4463,5.3697,5.3699,5.3796,5.3582,5.3699,5.3796,5.3582,5.3558,5.3743,5.4311,5.4371,5.4581,5.5119,5.5179,5.5179,5.5179,5.5299,5.5359,5.5359,5.5983,5.6342,5.6342,5.6825,5.7154,5.7274,5.7274,5.7603,5.8264,5.8264,5.8534,5.9099,5.9099,5.9099,5.9099,5.9099,5.9099,5.9099,5.9099,5.9099,5.9099,5.9099,5.9099,5.9099,5.9099,5.9099,5.9099,5.9099,5.9099,5.9099,7.3707,7.3854,7.4074,7.4793,7.4221,7.3722,7.3722,7.301,7.2496,7.2496,7.2496,7.2496,7.2496,7.2496,7.2496,7.2496,7.2496,7.2496,7.2496,7.2496,7.2496,7.2496,7.2496,7.2496,7.2496,7.1464,7.041,6.9389,6.7038,6.58,6.5547,6.4884,6.4613,6.4613,6.4613,6.4613,6.458,6.4478,6.4444,6.4444,6.4343,6.4309,6.4241,6.3579,6.3342,6.3294,6.2618,6.24,6.24,6.24,6.24,6.24,6.24,6.24,6.24,6.24,6.2282,6.1951,6.0891,6.048,6.0118,5.9058,5.879,5.869,5.8255,5.7379,5.6315,5.516,5.5761,5.6168,5.5105,5.5786,5.6144,5.511,5.491,5.494,5.5029,5.5059,5.5089,5.5179,5.5179,5.5179,5.5179,5.5743,5.6072,5.6072,5.6641,5.6974,5.6974,5.7064,5.7363,5.7935,5.7965,5.8264,5.8979,5.8979,5.9009,5.9099,5.9099,5.9099,5.9099,5.9099,5.9099,5.9099,5.9099,5.9099,5.9099,5.9099,5.9099,5.9099,5.9099,5.9099,5.9099,5.9099,5.9099,5.9099,7.2973,7.3046,7.3156,7.3523,7.3266,7.3046,7.3046,7.2716,7.2496,7.2496,7.2496,7.2496,7.2496,7.2496,7.2496,7.2496,7.2496,7.2496,7.2496,7.2496,7.2496,7.2496,7.2496,7.2496,7.2496,7.1573,7.0881,7.0484,6.8221,6.682,6.6305,6.6,6.5831,6.5831,6.5831,6.5831,6.5797,6.5392,6.5222,6.5189,6.4783,6.4613,6.4546,6.4241,6.4086,6.4038,6.3294,6.3024,6.2956,6.2516,6.24,6.24,6.24,6.24,6.24,6.24,6.24,6.2282,6.1756,6.1615,6.146,6.0953,6.0807,6.0628,5.9968,5.939,5.8464,5.659,5.7181,5.741,5.5551,5.6183,5.6614,5.5406,5.5179,5.5179,5.5179,5.5179,5.5354,5.5713,5.6072,5.6256,5.6256,5.6526,5.6701,5.6701,5.7304,5.7663,5.7663,5.8022,5.8351,5.865,5.8653,5.88,5.9099,5.9099,5.9099,5.9099,5.9099,5.9099,5.9099,5.9099,5.9099,5.9099,5.9099,5.9099,5.9099,5.9099,5.9099,5.9099,5.9099,5.9099,5.9099,5.9099,5.9099,5.9099]}]]